[[{"header":{"parameterUnit":"m.s-1","parameterCategory":1,"la1":30.6,"la2":29.2853,"lo1":-89.7004,"lo2":-87.6739,"dy":0.0162,"dx":0.0183,"nx":112,"ny":82,"refTime":"2025-09-08T12:00:00:Z","depth":0,"parameterNumber":2,"parameterNumberName":"U-component_of_WINDS"},"data":[0.0,0.0,0.0,0.0,0.0,0.0,0.0,0.0,0.0,0.0,0.0,0.0,0.0,0.0,0.0,0.0,0.0,0.0,0.0,0.0,0.0,0.0,0.0,0.0,0.0,0.0,0.0,0.0,0.0,0.0,0.0,0.0,0.0,0.0,0.0,0.0,0.0,0.0,0.0,0.0,0.0,0.0,0.0,0.0,0.0,0.0,0.0,0.0,0.0,0.0,0.0,0.0,0.0,0.0,0.0,0.0,0.0,0.0,0.0,0.0,0.0,0.0,0.0,0.0,0.0,0.0,0.0,0.0,0.0,0.0,0.0,0.0,0.0,0.0,0.0,0.0,0.0,0.0,0.0,0.0,0.0,0.0,0.0,0.0,0.0,0.0,0.0,0.0,0.0,0.0,1.6936,1.7924,1.9016,1.969,1.969,1.969,1.8758,1.655,0.0,0.0,0.0,0.0,0.0,0.0,0.0,0.0,0.0,0.0,0.0,0.0,0.0,0.0,0.0,0.0,0.0,0.0,0.0,0.0,0.0,0.0,0.0,0.0,0.0,0.0,0.0,0.0,0.0,0.0,0.0,0.0,0.0,0.0,0.0,0.0,0.0,0.0,0.0,0.0,0.0,0.0,0.0,0.0,0.0,0.0,0.0,0.0,0.0,0.0,0.0,0.0,0.0,0.0,0.0,0.0,0.0,0.0,0.0,0.0,0.0,0.0,0.0,0.0,0.0,0.0,0.0,0.0,0.0,0.0,0.0,0.0,0.0,0.0,0.0,0.0,0.0,0.0,0.0,0.0,0.0,0.0,0.0,0.0,0.0,0.0,0.0,0.0,0.0,0.0,0.0,0.0,0.0,0.0,0.0,0.0,0.0,0.0,0.0,0.0,0.0,0.0,0.0,0.0,1.6848,1.9136,1.957,1.969,1.969,1.969,1.9021,1.739,0.0,0.0,0.0,0.0,0.0,0.0,0.0,0.0,0.0,0.0,0.0,0.0,0.0,0.0,0.0,0.0,0.0,0.0,0.0,0.0,0.0,0.0,0.0,0.0,0.0,0.0,0.0,0.0,0.0,0.0,0.0,0.0,0.0,0.0,0.0,0.0,0.0,0.0,0.0,0.0,0.0,0.0,0.0,0.0,0.0,0.0,0.0,0.0,0.0,0.0,0.0,0.0,0.0,0.0,0.0,0.0,0.0,0.0,0.0,0.0,0.0,0.0,0.0,0.0,0.0,0.0,0.0,0.0,0.0,0.0,0.0,0.0,0.0,0.0,0.0,0.0,0.0,0.0,0.0,0.0,0.0,0.0,0.0,0.0,0.0,0.0,0.0,0.0,0.0,0.0,0.0,0.0,0.0,0.0,0.0,0.0,0.0,0.0,0.0,0.0,0.0,0.0,0.0,1.6862,1.7565,1.948,1.969,1.969,1.969,1.969,1.9066,1.7571,1.5808,0.0,0.0,0.0,0.0,0.0,0.0,0.0,0.0,0.0,0.0,0.0,0.0,0.0,0.0,0.0,0.0,0.0,0.0,0.0,0.0,0.0,0.0,0.0,0.0,0.0,0.0,0.0,0.0,0.0,0.0,0.0,0.0,0.0,0.0,0.0,0.0,0.0,0.0,0.0,0.0,0.0,0.0,0.0,0.0,0.0,0.0,0.0,0.0,0.0,0.0,0.0,0.0,0.0,0.0,0.0,0.0,0.0,0.0,0.0,0.0,0.0,0.0,0.0,0.0,0.0,0.0,0.0,0.0,0.0,0.0,0.0,0.0,0.0,0.0,0.0,0.0,0.0,0.0,0.0,0.0,0.0,0.0,0.0,0.0,0.0,0.0,0.0,0.0,0.0,0.0,0.0,0.0,0.0,0.0,0.0,0.0,0.0,0.0,0.0,0.0,0.0,0.0,1.8208,1.8568,1.957,1.969,1.969,1.969,1.954,1.8902,1.7571,1.571,0.0,0.0,0.0,0.0,0.0,0.0,0.0,0.0,0.0,0.0,0.0,0.0,0.0,0.0,0.0,0.0,0.0,0.0,0.0,0.0,0.0,0.0,0.0,0.0,0.0,0.0,0.0,0.0,0.0,0.0,0.0,0.0,0.0,0.0,0.0,0.0,0.0,0.0,0.0,0.0,0.0,0.0,0.0,0.0,0.0,0.0,0.0,0.0,0.0,0.0,0.0,0.0,0.0,0.0,0.0,0.0,0.0,0.0,0.0,0.0,0.0,0.0,0.0,0.0,0.0,0.0,0.0,0.0,0.0,0.0,0.0,0.0,0.0,0.0,0.0,0.0,0.0,0.0,0.0,0.0,0.0,0.0,0.0,0.0,0.0,0.0,0.0,0.0,0.0,0.0,0.0,0.0,0.0,0.0,0.0,0.0,0.0,0.0,0.0,0.0,0.0,0.0,1.8448,1.9585,1.9675,1.969,1.969,1.969,1.9121,1.841,1.756,1.5459,0.0,0.0,0.0,0.0,0.0,0.0,0.0,0.0,0.0,0.0,0.0,0.0,0.0,0.0,0.0,0.0,0.0,0.0,0.0,0.0,0.0,0.0,0.0,0.0,0.0,0.0,0.0,0.0,0.0,0.0,0.0,0.0,0.0,0.0,0.0,0.0,0.0,0.0,0.0,0.0,0.0,0.0,0.0,0.0,0.0,0.0,0.0,0.0,0.0,0.0,0.0,0.0,0.0,0.0,0.0,0.0,0.0,0.0,0.0,0.0,0.0,0.0,0.0,0.0,0.0,0.0,0.0,0.0,0.0,0.0,0.0,0.0,0.0,0.0,0.0,0.0,0.0,0.0,0.0,0.0,0.0,0.0,0.0,0.0,0.0,0.0,0.0,0.0,0.0,0.0,0.0,0.0,0.0,0.0,0.0,0.0,0.0,0.0,0.0,0.0,0.0,0.0,1.8358,1.9226,1.9681,1.969,1.969,1.969,1.945,1.8619,1.6984,0.0,0.0,0.0,0.0,0.0,0.0,0.0,0.0,0.0,0.0,0.0,0.0,0.0,0.0,0.0,0.0,0.0,0.0,0.0,0.0,0.0,0.0,0.0,0.0,0.0,0.0,0.0,0.0,0.0,0.0,0.0,0.0,0.0,0.0,0.0,0.0,0.0,0.0,0.0,0.0,0.0,0.0,0.0,0.0,0.0,0.0,0.0,0.0,0.0,0.0,0.0,0.0,0.0,0.0,0.0,0.0,0.0,0.0,0.0,0.0,0.0,0.0,0.0,0.0,0.0,0.0,0.0,0.0,0.0,0.0,0.0,0.0,0.0,0.0,0.0,0.0,0.0,0.0,0.0,0.0,0.0,0.0,0.0,0.0,0.0,0.0,0.0,0.0,0.0,0.0,0.0,0.0,0.0,0.0,0.0,0.0,0.0,0.0,0.0,0.0,0.0,0.0,1.7473,1.8478,1.9181,1.963,1.969,1.969,1.969,1.9495,1.8578,1.6646,0.0,0.0,0.0,0.0,0.0,0.0,0.0,0.0,0.0,0.0,0.0,0.0,0.0,0.0,0.0,0.0,0.0,0.0,0.0,0.0,0.0,0.0,0.0,0.0,0.0,0.0,0.0,0.0,0.0,0.0,0.0,0.0,0.0,0.0,0.0,0.0,0.0,0.0,0.0,0.0,0.0,0.0,0.0,0.0,0.0,0.0,0.0,0.0,0.0,0.0,0.0,0.0,0.0,0.0,0.0,0.0,0.0,0.0,0.0,0.0,0.0,0.0,0.0,0.0,0.0,0.0,0.0,0.0,0.0,0.0,0.0,0.0,0.0,0.0,0.0,0.0,0.0,0.0,0.0,0.0,0.0,0.0,0.0,0.0,0.0,0.0,0.0,0.0,0.0,0.0,0.0,0.0,0.0,0.0,0.0,0.0,0.0,0.0,0.0,0.0,0.0,0.0,1.755,1.8867,1.969,1.969,1.969,1.969,1.969,1.9091,1.81,0.0,0.0,0.0,0.0,0.0,0.0,0.0,0.0,0.0,0.0,0.0,0.0,0.0,0.0,0.0,0.0,0.0,0.0,0.0,0.0,0.0,0.0,0.0,0.0,0.0,0.0,0.0,0.0,0.0,0.0,0.0,0.0,0.0,0.0,0.0,0.0,0.0,0.0,0.0,0.0,0.0,0.0,0.0,0.0,0.0,0.0,0.0,0.0,0.0,0.0,0.0,0.0,0.0,0.0,0.0,0.0,0.0,0.0,0.0,0.0,0.0,0.0,0.0,0.0,0.0,0.0,0.0,0.0,0.0,0.0,0.0,0.0,0.0,0.0,0.0,0.0,0.0,0.0,0.0,0.0,0.0,0.0,0.0,0.0,0.0,0.0,0.0,0.0,0.0,0.0,0.0,0.0,0.0,0.0,0.0,0.0,0.0,0.0,0.0,0.0,0.0,0.0,0.0,1.7851,1.9004,1.969,1.969,1.969,1.969,1.969,1.951,1.8433,1.6099,0.0,0.0,0.0,0.0,0.0,0.0,0.0,0.0,0.0,0.0,0.0,0.0,0.0,0.0,0.0,0.0,0.0,0.0,0.0,0.0,0.0,0.0,0.0,0.0,0.0,0.0,0.0,0.0,0.0,0.0,0.0,0.0,0.0,0.0,0.0,0.0,0.0,0.0,0.0,0.0,0.0,0.0,0.0,0.0,0.0,0.0,0.0,0.0,0.0,0.0,0.0,0.0,0.0,0.0,0.0,0.0,0.0,0.0,0.0,0.0,0.0,0.0,0.0,0.0,0.0,0.0,0.0,0.0,0.0,0.0,0.0,0.0,0.0,0.0,0.0,0.0,0.0,0.0,0.0,0.0,0.0,0.0,0.0,0.0,0.0,0.0,0.0,0.0,0.0,0.0,0.0,0.0,0.0,0.0,0.0,0.0,0.0,0.0,0.0,0.0,0.0,0.0,1.8007,1.9088,1.969,1.969,1.969,1.969,1.969,1.969,1.8672,1.6248,0.0,0.0,0.0,0.0,0.0,0.0,0.0,0.0,0.0,0.0,0.0,0.0,0.0,0.0,0.0,0.0,0.0,0.0,0.0,0.0,0.0,0.0,0.0,0.0,0.0,0.0,0.0,0.0,0.0,0.0,0.0,0.0,0.0,0.0,0.0,0.0,0.0,0.0,0.0,0.0,0.0,0.0,0.0,0.0,0.0,0.0,0.0,0.0,0.0,0.0,0.0,0.0,0.0,0.0,0.0,0.0,0.0,0.0,0.0,0.0,0.0,0.0,0.0,0.0,0.0,0.0,0.0,0.0,0.0,0.0,0.0,0.0,0.0,0.0,0.0,0.0,0.0,0.0,0.0,0.0,0.0,0.0,0.0,0.0,0.0,0.0,0.0,0.0,0.0,0.0,0.0,0.0,0.0,0.0,0.0,0.0,0.0,0.0,0.0,0.0,0.0,0.0,1.8069,1.9106,1.969,1.969,1.969,1.969,1.969,1.969,1.8867,1.6921,0.0,0.0,0.0,0.0,0.0,0.0,0.0,0.0,0.0,0.0,0.0,0.0,0.0,0.0,0.0,0.0,0.0,0.0,0.0,0.0,0.0,0.0,0.0,0.0,0.0,0.0,0.0,0.0,0.0,0.0,0.0,0.0,0.0,0.0,0.0,0.0,0.0,0.0,0.0,0.0,0.0,0.0,0.0,0.0,0.0,0.0,0.0,0.0,0.0,0.0,0.0,0.0,0.0,0.0,0.0,0.0,0.0,0.0,0.0,0.0,2.1673,0.0,0.0,0.0,0.0,0.0,0.0,0.0,0.0,0.0,0.0,0.0,0.0,0.0,0.0,0.0,0.0,0.0,0.0,0.0,0.0,0.0,0.0,0.0,0.0,0.0,0.0,0.0,0.0,0.0,0.0,0.0,0.0,0.0,0.0,0.0,0.0,0.0,0.0,0.0,0.0,0.0,1.8374,1.9192,1.969,1.969,1.969,1.969,1.969,1.969,1.9061,1.7578,1.6659,0.0,0.0,0.0,0.0,0.0,0.0,0.0,0.0,0.0,0.0,0.0,0.0,0.0,0.0,0.0,0.0,0.0,0.0,0.0,0.0,0.0,0.0,0.0,0.0,0.0,0.0,0.0,0.0,0.0,0.0,0.0,0.0,0.0,0.0,0.0,0.0,0.0,0.0,0.0,0.0,0.0,0.0,0.0,0.0,0.0,0.0,0.0,0.0,0.0,0.0,0.0,0.0,0.0,0.0,0.0,0.0,0.0,0.0,0.0,0.0,2.4011,0.0,0.0,0.0,0.0,0.0,0.0,0.0,0.0,0.0,0.0,0.0,0.0,0.0,0.0,0.0,0.0,0.0,0.0,0.0,0.0,0.0,0.0,0.0,0.0,0.0,0.0,0.0,0.0,0.0,0.0,0.0,0.0,0.0,0.0,0.0,0.0,0.0,0.0,0.0,0.0,1.8479,1.9226,1.969,1.969,1.969,1.969,1.969,1.969,1.9256,1.822,1.7436,0.0,0.0,0.0,0.0,0.0,0.0,0.0,0.0,0.0,0.0,0.0,0.0,0.0,0.0,0.0,0.0,0.0,0.0,0.0,0.0,0.0,0.0,0.0,0.0,0.0,0.0,0.0,0.0,0.0,0.0,0.0,0.0,0.0,0.0,0.0,0.0,0.0,0.0,0.0,0.0,0.0,0.0,0.0,0.0,0.0,0.0,0.0,0.0,0.0,0.0,0.0,0.0,0.0,2.7854,2.8957,3.0335,2.955,2.96,3.0189,2.8801,2.7922,2.7363,2.6465,0.0,0.0,0.0,0.0,0.0,0.0,0.0,0.0,0.0,0.0,0.0,0.0,0.0,0.0,0.0,0.0,0.0,0.0,0.0,0.0,0.0,0.0,0.0,0.0,2.2756,2.2919,0.0,0.0,0.0,0.0,0.0,0.0,0.0,0.0,0.0,0.0,0.0,0.0,1.8698,1.9336,1.969,1.969,1.969,1.969,1.969,1.969,1.945,1.8912,1.8268,1.7543,0.0,0.0,0.0,0.0,0.0,0.0,0.0,0.0,0.0,0.0,0.0,0.0,0.0,0.0,0.0,0.0,0.0,0.0,0.0,0.0,0.0,0.0,0.0,0.0,0.0,0.0,0.0,0.0,0.0,0.0,0.0,0.0,1.9388,2.1068,0.0,0.0,0.0,0.0,0.0,0.0,0.0,0.0,0.0,0.0,0.0,0.0,0.0,2.684,2.8155,2.9879,3.0791,3.0881,3.152,3.1974,3.2219,3.1826,3.2089,3.2879,3.2422,0.0,2.8965,2.7475,0.0,0.0,0.0,0.0,0.0,0.0,0.0,0.0,0.0,0.0,0.0,0.0,0.0,0.0,0.0,0.0,0.0,0.0,0.0,0.0,0.0,0.0,2.4364,2.413,2.4218,2.4269,0.0,2.2243,2.0786,2.0468,1.9403,0.0,0.0,0.0,0.0,0.0,0.0,0.0,1.9452,1.9626,1.969,1.969,1.969,1.969,1.969,1.969,1.9645,1.9555,1.8942,1.8538,1.8414,1.7113,0.0,0.0,0.0,0.0,0.0,0.0,0.0,0.0,0.0,0.0,0.0,0.0,0.0,0.0,0.0,0.0,0.0,0.0,0.0,0.0,0.0,0.0,0.0,0.0,0.0,0.0,0.0,0.0,0.0,1.9864,2.1685,2.2924,2.2813,2.2407,0.0,0.0,0.0,0.0,0.0,0.0,0.0,0.0,0.0,2.748,2.881,2.982,3.0419,3.256,3.3513,3.3295,3.4472,3.4994,3.4905,3.4749,3.4885,3.5245,3.5144,3.4481,3.3315,3.0788,2.9263,2.8427,0.0,0.0,0.0,0.0,2.6539,2.6589,2.6856,2.6925,0.0,2.5697,0.0,0.0,0.0,0.0,0.0,0.0,0.0,0.0,0.0,0.0,2.6599,2.6486,2.6742,2.6894,2.6454,2.527,2.3887,0.0,2.1412,2.0495,1.9934,0.0,0.0,0.0,0.0,1.9909,2.0224,2.0589,2.0812,2.0812,2.0812,2.0812,2.0812,2.0483,2.0258,2.0258,1.963,1.9256,1.9256,1.8343,1.7406,0.0,0.0,0.0,0.0,0.0,0.0,0.0,0.0,0.0,0.0,0.0,0.0,0.0,0.0,0.0,0.0,0.0,0.0,0.0,0.0,0.0,0.0,0.0,0.0,0.0,0.0,0.0,0.0,2.1751,2.3539,2.4401,2.5228,2.5142,0.0,0.0,0.0,0.0,0.0,0.0,2.7865,2.8801,2.9757,3.0786,3.2239,3.3045,3.3097,3.4979,3.5753,3.5394,3.6583,3.7055,3.6851,3.6795,3.677,3.677,3.6712,3.6686,3.65,3.3892,3.2315,3.1458,3.0719,3.0292,3.0104,2.9964,2.9793,2.9624,2.9779,2.9692,2.936,2.8304,0.0,2.7035,2.5102,0.0,0.0,0.0,0.0,2.5945,2.6419,2.7434,2.8339,2.8268,2.8657,2.8822,2.8247,2.7672,2.6623,0.0,2.324,2.2492,2.184,0.0,0.0,0.0,0.0,2.1027,2.1201,2.1506,2.1695,2.1695,2.1695,2.1695,2.1695,2.1246,2.0902,2.0722,2.0228,1.9869,1.969,1.9211,1.8589,1.7747,0.0,0.0,0.0,0.0,0.0,0.0,0.0,0.0,0.0,0.0,0.0,0.0,0.0,0.0,0.0,0.0,0.0,0.0,0.0,0.0,0.0,0.0,0.0,0.0,0.0,0.0,0.0,0.0,0.0,2.5247,2.6053,0.0,0.0,0.0,0.0,2.7681,2.8453,2.9641,3.1349,3.227,3.3511,3.5122,3.6074,3.6916,3.7665,3.78,3.7751,3.7538,3.7543,3.7452,3.727,3.7073,3.6977,3.6977,3.677,3.6686,3.663,3.5683,3.4835,3.4027,3.3227,3.2449,3.1815,3.2269,3.1942,3.1297,3.1422,3.1003,3.0462,3.0773,3.0262,2.9381,2.8434,2.7659,0.0,0.0,2.7579,2.8048,2.7981,2.8526,2.9016,2.896,2.8994,2.9011,2.896,2.889,2.8197,0.0,2.4691,2.4076,2.3947,0.0,2.2973,2.3669,2.2568,2.1894,2.2591,2.211,2.1695,2.1695,2.1695,2.1695,2.1695,2.1665,2.138,2.0752,2.0677,2.0363,1.972,1.966,1.9331,1.8638,1.7684,0.0,0.0,0.0,0.0,0.0,0.0,0.0,0.0,0.0,0.0,0.0,0.0,0.0,0.0,0.0,0.0,0.0,0.0,0.0,0.0,0.0,0.0,0.0,0.0,0.0,0.0,0.0,0.0,2.774,2.9061,0.0,2.8762,2.9418,3.0286,3.1152,3.1962,3.3164,3.4892,3.5271,3.5965,3.7074,3.7401,3.7647,3.7737,3.8293,3.8384,3.8024,3.8572,3.87,3.8452,3.8394,3.8342,3.8342,3.8282,3.8228,3.8209,3.7931,3.7047,3.582,3.5522,3.525,3.4983,3.4934,3.4595,3.4146,3.3974,3.3592,3.3054,3.2213,3.1254,3.0333,2.9553,2.9037,2.8713,2.8713,2.9231,2.9782,2.9676,3.0133,3.064,3.0493,3.0472,3.0277,2.9803,2.9702,2.933,2.7992,2.6691,2.5715,2.5648,2.4547,2.375,2.3967,2.373,2.3467,2.3449,2.3405,2.3269,2.2963,2.2921,2.2921,2.2921,2.2562,2.2054,2.1395,2.0946,2.0408,1.972,1.969,1.957,1.9346,1.8361,1.719,0.0,0.0,0.0,0.0,0.0,0.0,0.0,0.0,0.0,0.0,0.0,0.0,0.0,0.0,0.0,0.0,0.0,0.0,0.0,0.0,0.0,0.0,0.0,0.0,0.0,2.6959,2.8762,2.991,3.1518,3.2328,3.1838,3.2771,3.3665,3.4238,3.5027,3.599,3.7132,3.7478,3.7882,3.8421,3.8635,3.8654,3.8477,3.8956,3.9003,3.8651,3.922,3.9376,3.9101,3.9101,3.9101,3.9101,3.9101,3.9268,3.951,3.9212,3.8804,3.8284,3.7726,3.7503,3.7477,3.7145,3.6698,3.6163,3.546,3.5013,3.4604,3.3458,3.258,3.1878,3.1393,3.0975,3.0662,3.0662,3.0815,3.0986,3.0876,3.1124,3.1406,3.1274,3.1213,3.1072,3.0581,3.048,3.0328,2.982,2.8446,2.7328,2.7293,2.6149,2.5263,2.5229,2.5032,2.4729,2.4284,2.4238,2.4135,2.3638,2.3595,2.3595,2.3595,2.3041,2.2398,2.1739,2.1081,2.0408,1.972,1.969,1.969,1.969,1.8592,1.7488,1.6452,0.0,0.0,0.0,0.0,0.0,0.0,0.0,0.0,0.0,0.0,0.0,0.0,0.0,0.0,0.0,0.0,0.0,0.0,0.0,0.0,0.0,0.0,0.0,2.6892,2.8319,2.9978,3.1664,3.3299,3.434,3.4422,3.592,3.6876,3.6876,3.7607,3.8075,3.8123,3.8892,3.9354,3.9373,3.9921,4.0214,4.0196,3.9943,3.9724,3.9539,3.9539,3.9406,3.9175,3.9175,3.9175,3.9175,3.9175,3.9658,4.0364,3.9528,4.0123,4.1441,3.977,3.9138,3.911,3.8785,3.8132,3.7216,3.5792,3.517,3.4942,3.4556,3.4306,3.415,3.4133,3.3542,3.2938,3.2938,3.2328,3.1648,3.1623,3.1457,3.1329,3.1263,3.1207,3.119,3.119,3.119,3.119,3.119,2.9947,2.8878,2.8861,2.8166,2.7626,2.7643,2.6557,0.0,2.513,2.4701,2.4223,2.3711,2.3668,2.3653,2.3638,2.3083,2.2454,2.1739,2.1096,2.0438,1.975,1.972,1.972,1.972,1.8368,1.734,1.6635,0.0,0.0,0.0,0.0,0.0,0.0,0.0,0.0,0.0,0.0,0.0,0.0,0.0,0.0,0.0,0.0,0.0,0.0,0.0,0.0,0.0,2.9028,3.1191,3.1264,3.2177,3.3455,3.513,3.6298,3.6953,3.6978,3.7973,3.8609,3.8599,3.935,4.01,4.0719,4.0373,4.045,4.1085,4.0652,4.0267,3.9922,3.984,3.9934,4.0169,4.0169,4.0412,4.0903,4.0903,4.0903,4.0903,4.0903,4.1051,4.1237,4.1014,4.1181,4.1497,4.0438,4.003,4.003,3.9944,3.9195,3.8181,3.7537,3.7264,3.7054,3.6043,3.5647,3.5392,3.4432,3.3999,3.3766,3.3766,3.3611,3.3416,3.3377,3.2809,3.2264,3.2224,3.1698,3.119,3.119,3.119,3.119,3.119,3.0852,3.0335,2.966,2.8824,2.8265,2.8189,2.7893,0.0,2.7033,2.6872,2.6379,2.542,2.5368,2.5056,2.4166,2.402,2.33,2.1794,2.153,2.1126,2.0453,2.0438,2.0438,2.0438,1.9582,1.8709,0.0,0.0,0.0,0.0,0.0,0.0,0.0,0.0,0.0,0.0,0.0,0.0,0.0,0.0,0.0,0.0,0.0,0.0,0.0,0.0,0.0,0.0,3.1614,3.3962,3.5438,3.5438,3.5905,3.7584,3.8229,3.8686,3.9008,3.9518,3.9961,4.0315,4.0777,4.1277,4.1777,4.1662,4.1643,4.1797,4.1558,4.1227,4.084,4.0768,4.0785,4.0903,4.0903,4.1144,4.159,4.159,4.159,4.159,4.159,4.1776,4.2073,4.1739,4.1999,0.0,0.0,0.0,0.0,0.0,3.9981,3.9257,3.8551,3.8281,3.8092,3.7182,3.6701,3.6317,3.5553,3.4966,3.4542,3.4542,3.4335,3.4076,3.394,3.3494,3.3031,3.2968,3.2507,3.2036,3.1715,3.1647,3.1562,3.1258,3.119,0.0,3.0398,2.9671,2.9147,2.9109,2.8803,2.8417,2.7977,2.7858,2.7397,2.6335,2.6257,2.5779,2.4524,2.4216,0.0,0.0,0.0,2.153,2.1141,2.1126,0.0,0.0,0.0,0.0,0.0,0.0,0.0,0.0,1.7527,1.7432,0.0,0.0,0.0,0.0,0.0,0.0,0.0,0.0,0.0,0.0,0.0,0.0,0.0,0.0,0.0,0.0,3.4026,3.5834,3.8873,3.8094,3.7767,3.9273,3.9441,3.9726,4.0427,4.0585,4.0969,4.1739,4.1893,4.1989,4.2085,0.0,0.0,0.0,0.0,4.2598,4.2318,4.2121,4.1938,4.1739,4.1739,4.1776,4.1869,4.1869,4.1869,4.1869,4.1869,4.2277,4.2872,4.2166,4.2705,4.3856,4.2333,4.1739,4.1627,4.0828,4.0531,4.0372,3.9312,0.0,0.0,3.8158,3.7577,3.7058,3.696,3.6168,3.5318,3.5318,3.4835,3.4295,3.4042,3.3891,3.3799,3.3609,3.3474,3.322,3.256,3.2341,3.2127,3.1444,3.1258,3.1151,3.1015,3.0572,3.0188,3.0188,2.9538,2.8896,2.8539,2.8405,2.7957,2.6997,0.0,0.0,2.5002,2.4339,2.3721,2.2978,2.2353,2.2024,2.2024,2.2099,2.2099,2.2024,2.1668,2.1724,2.2193,2.2249,2.2127,2.1739,2.008,1.917,0.0,0.0,0.0,0.0,0.0,0.0,0.0,0.0,0.0,0.0,0.0,0.0,0.0,0.0,0.0,3.3699,3.6392,3.8527,3.92,3.958,3.9908,4.0219,4.0273,4.0331,4.0469,4.1143,4.1623,4.1797,4.245,4.3124,4.3778,4.3355,4.3316,4.3797,4.3302,4.2795,4.2299,4.2271,4.2359,4.2575,0.0,0.0,4.354,4.354,4.354,4.354,4.354,4.3615,4.3763,4.3596,4.3726,4.3893,4.2946,4.2575,4.2463,4.1664,4.1367,4.133,4.1104,4.0574,3.993,3.9475,3.852,3.7488,3.7097,3.6556,0.0,3.6094,3.5973,3.587,3.5811,3.5256,3.466,3.4618,3.3973,3.3372,3.322,3.2713,3.2239,3.2087,3.1596,3.119,3.1151,3.0993,3.0813,3.0734,3.0616,3.0476,3.0396,3.0356,3.0042,2.9244,2.9224,2.8518,2.6783,2.6609,2.5924,2.4327,2.4133,2.4014,2.4014,2.4567,2.4597,2.4073,2.397,2.3792,2.3516,2.354,2.3574,2.3553,2.2614,2.1716,0.0,0.0,0.0,0.0,0.0,0.0,0.0,0.0,0.0,0.0,0.0,3.0198,3.1468,0.0,3.4757,3.6469,3.818,3.9431,3.9835,4.0239,4.0489,4.0489,4.0489,4.0489,4.0489,4.1296,4.1989,4.2431,4.3239,4.3874,4.4278,4.4335,4.4335,4.4297,4.4335,4.4097,4.3568,4.3568,4.3502,4.3392,4.3392,4.3615,4.4005,4.4005,4.4005,4.4005,4.4005,4.4005,4.4005,4.4005,4.4005,4.3968,4.3559,4.3392,4.3299,4.25,4.2203,4.2129,4.1739,4.133,4.0919,4.0382,3.9347,3.8259,3.7697,3.6951,3.6301,3.6301,3.6301,3.6301,3.6276,3.5831,3.5429,3.536,3.4924,3.4404,3.4032,3.366,3.3169,3.2466,3.1985,3.1613,3.1258,3.1151,3.1112,3.1072,3.1032,3.1032,3.1032,3.1032,3.0801,3.0135,3.0028,2.9354,2.7753,2.7162,2.637,2.5258,2.5152,2.5121,2.5121,2.5435,2.545,2.5136,2.5121,2.5131,2.5254,2.5579,2.5804,2.5916,2.5898,2.4914,0.0,0.0,0.0,0.0,0.0,0.0,0.0,2.8527,2.9806,3.1314,3.2314,3.3506,3.5391,3.6007,3.6911,3.8969,3.9431,3.9758,4.0412,4.0489,4.0489,4.0489,4.0489,4.0566,4.0739,4.1546,4.2412,4.3278,4.4085,4.4547,4.4547,4.522,4.5278,4.4566,4.522,4.5381,4.4872,4.4843,4.4565,4.4079,4.4017,4.4005,4.4005,4.4005,4.4005,4.4005,4.4005,4.4005,4.4005,4.4005,4.4005,4.4005,4.4005,4.4005,4.3912,4.3262,4.302,4.2946,4.2296,4.1962,4.1753,4.1291,4.0304,3.9229,3.8567,3.7637,3.6707,3.6485,3.6409,3.6409,3.636,3.6191,3.6019,3.5975,3.5827,3.5497,3.4888,3.4651,3.4193,3.2974,3.2594,3.2307,3.1732,3.163,3.1529,3.1241,3.119,3.119,3.119,3.119,3.1015,3.0518,3.0393,2.9835,2.8677,2.7538,2.6809,2.6474,2.6242,2.6116,2.6163,2.6036,2.6048,2.6231,2.6198,2.6512,2.7171,2.7709,2.8025,2.81,2.8502,2.7513,2.3975,2.4699,2.5882,2.8087,2.8772,3.0055,0.0,3.5033,3.4899,3.5815,3.6699,3.7142,3.6661,3.7834,3.8969,3.9238,3.9892,4.0392,4.0489,4.0489,4.0489,4.0489,4.0489,4.0796,4.1585,4.245,4.3297,4.4105,4.497,4.5451,4.5451,4.5547,4.5547,4.5451,4.5547,4.5476,4.5159,4.4919,4.465,4.4346,4.4121,4.4005,4.4005,4.4005,4.4005,4.4005,4.4005,4.4005,4.4005,4.4005,4.4005,4.4005,4.4005,4.4005,4.3986,4.3893,4.3875,4.3856,4.3763,4.3262,4.2649,4.2588,4.1682,4.0427,3.9595,3.8941,3.8229,3.7115,3.6821,3.6821,3.6821,3.6492,3.6233,3.6522,3.6266,3.5915,3.5715,3.5154,3.4584,3.4329,3.3728,3.3254,3.3169,3.3152,3.2713,3.1393,3.119,3.119,3.119,3.119,3.119,3.1112,3.1112,3.0747,2.9966,2.9246,2.8761,2.8745,2.8263,2.804,2.8199,2.7682,2.7735,2.8439,2.8314,2.8592,2.925,2.9325,2.94,2.9366,2.8887,2.7954,2.7547,2.8134,2.8782,3.0276,3.1769,3.3427,3.5515,3.6098,3.6579,3.793,3.8507,3.8796,3.8892,3.9508,3.9988,3.9988,4.0277,4.0489,4.0489,4.0489,4.0489,4.0489,4.0489,4.0835,4.172,4.2585,4.3431,4.4239,4.5105,4.5586,4.5586,4.5586,4.5586,4.5586,4.5586,4.5476,4.5201,4.4919,4.4676,4.4402,4.4121,4.4005,4.4005,4.4005,4.4005,4.4005,4.4005,4.4005,4.4005,4.4005,4.4005,4.4005,4.4005,4.4005,4.4005,4.4005,4.4005,4.4005,4.4005,4.3782,4.3454,4.3078,4.2292,4.1355,4.0655,3.9946,3.922,3.8229,3.794,3.7833,3.7352,3.7038,3.6882,3.7002,3.6865,3.6701,3.662,3.6319,3.5913,3.5422,3.5013,3.4644,3.4233,3.4164,3.3861,3.2951,3.227,3.1681,3.1258,3.119,3.119,3.1095,3.1095,3.0838,3.0251,2.9908,2.9467,2.8997,2.9281,2.9214,2.8686,2.9053,2.9249,2.9267,2.9214,2.931,2.9579,2.9939,3.0118,3.0133,3.0283,2.9857,2.9806,3.0511,3.1177,3.2458,3.4692,3.6633,3.687,3.7522,3.8469,3.9719,3.9796,3.9796,4.0392,4.0489,4.0489,4.0489,4.0489,4.0489,4.0489,4.0489,4.0489,4.0489,4.0489,4.0835,4.172,4.2585,4.3528,4.4586,4.524,4.5586,4.5586,4.5586,4.5586,4.5586,4.5586,4.5513,4.5322,4.5052,4.4776,4.4493,4.425,4.4079,4.4005,4.4005,4.4005,4.4005,4.4005,4.4005,4.4005,4.4005,4.4005,4.4005,4.4005,4.4005,4.4005,4.4005,4.4005,4.4005,4.4005,4.4005,4.3923,4.3508,4.2968,4.2404,4.1723,4.1087,4.0401,3.9462,3.9049,3.8707,3.8151,3.7684,3.7396,3.7506,3.7396,3.7266,3.7228,3.7135,3.69,3.6297,3.6133,3.5937,3.5412,3.5324,3.5124,3.4592,3.3795,3.2895,3.1941,3.1799,3.1759,3.1662,3.1638,3.1515,3.1148,3.0988,3.0686,3.0106,3.0416,3.0306,2.9627,3.0038,3.0182,3.0012,2.9958,2.9993,3.0118,3.0567,3.0791,3.0806,3.1243,3.1249,2.9321,3.052,3.2367,3.4859,3.7411,3.9494,4.026,4.1078,4.1662,4.172,4.1046,4.0469,4.0489,4.0489,4.0489,4.0489,4.0489,4.0489,4.0489,4.0489,4.0489,4.0489,4.0489,4.0835,4.172,4.2585,4.3778,4.5432,4.5586,4.5586,4.5586,4.5586,4.5586,4.5586,4.5586,4.5605,4.5586,4.5322,4.5052,4.4776,4.4519,4.425,4.4005,4.4005,4.4005,4.4005,4.4005,4.4005,4.4005,4.4005,4.4005,4.4005,4.4005,4.4005,4.4005,4.4005,4.4005,4.4005,4.4005,4.4005,4.4005,4.3974,4.3923,4.368,4.2807,4.2433,4.2081,4.0815,3.9876,3.9278,3.9242,3.8366,3.7578,3.7982,3.7774,3.7432,3.7228,3.719,3.7135,3.6904,3.6865,3.6865,3.6829,3.6829,3.6584,3.5846,3.5723,3.5118,3.3549,3.3339,3.3339,3.3339,3.3288,3.322,3.322,3.31,3.2998,3.2981,3.202,3.1502,3.163,3.0576,3.032,3.0964,3.084,3.099,3.1422,3.1437,3.1437,3.1437,3.1467,3.1486,3.2009,3.3873,3.5659,3.7565,3.9576,4.1262,4.2079,4.2008,4.1797,4.1797,4.0681,3.97,3.97,3.9219,3.9027,3.9604,3.97,3.9892,4.0412,4.0489,4.0489,4.0489,4.0489,4.0835,4.172,4.2066,4.2931,4.4605,4.4739,4.4989,4.5566,4.5586,4.5586,4.5586,4.5586,4.5586,4.5586,4.5342,4.514,4.5052,4.4624,4.4279,4.4005,4.4005,4.4005,4.4005,4.4005,4.4005,4.4005,4.4005,4.4005,4.4005,4.4005,4.4005,4.4005,4.4005,4.4005,4.4005,4.4005,4.4005,4.4005,4.3961,4.3929,4.3809,4.3369,4.321,4.3011,4.2001,4.1494,4.1037,3.9977,3.9385,3.8973,3.8593,3.8401,3.8285,3.8219,3.8117,3.8032,3.7929,3.7844,3.7792,3.7774,3.7774,3.756,3.7003,3.5878,3.4749,3.3905,3.3791,3.3686,3.3448,3.3381,3.3381,3.3381,3.3322,3.3177,3.284,3.3184,3.291,3.1958,3.2199,3.2157,3.1647,3.1607,3.1641,3.1826,3.2133,3.2285,3.2285,3.2676,3.2825,3.4773,3.6513,3.7912,4.0177,4.1769,4.2857,4.3076,4.2678,4.2085,4.147,4.0008,3.8738,3.843,3.768,3.7488,3.8642,3.8834,3.9219,4.0335,4.0489,4.0623,4.0931,4.095,4.1316,4.2181,4.2258,4.2835,4.4201,4.4586,4.5009,4.5566,4.5586,4.5586,4.5586,4.5586,4.5586,4.5586,4.5419,4.5243,4.5052,4.4519,4.4181,4.4005,4.4005,4.4005,4.4005,4.4005,4.4005,4.4005,4.4005,4.4005,4.4005,4.4005,4.4005,4.4005,4.4005,4.4005,4.4005,4.4005,4.4005,4.4005,4.3961,4.3929,4.3897,4.3734,4.3667,4.3523,4.2907,4.2525,4.2066,4.102,4.0543,4.0139,3.9313,3.9129,3.9056,3.8713,3.8559,3.8478,3.8368,3.8322,3.8274,3.8225,3.8192,3.8106,3.781,3.672,3.5721,3.5101,3.5022,3.4943,3.4696,3.4506,3.444,3.444,3.4287,3.4054,3.3757,3.4191,3.4011,3.3026,3.3307,3.3093,3.2398,3.2379,3.2403,3.2346,3.2838,3.3095,3.311,3.3351,3.3619,3.7367,3.8392,3.9321,4.255,4.3892,4.4214,4.3443,4.3111,4.2489,4.0777,3.9065,3.7603,3.6738,3.5949,3.5988,3.7661,3.7969,3.8604,4.0315,4.0566,4.0893,4.1758,4.1873,4.22,4.3028,4.3143,4.347,4.4239,0.0,4.5547,4.5586,4.5586,4.5586,4.5586,4.5586,4.5586,4.5586,4.5586,4.5342,4.48,4.4308,4.4048,4.4048,4.4048,4.4017,4.4036,4.4017,4.4017,4.4036,4.4036,4.4036,4.4036,4.4005,4.4005,4.4005,4.4005,4.4005,4.4005,4.4005,4.4005,4.4005,4.4005,4.4005,4.3974,4.3818,4.3804,4.3771,4.3566,4.2947,4.2359,4.2304,4.1735,4.0965,4.0139,3.9955,3.9703,3.8834,3.8601,3.8551,3.8394,3.8343,3.8274,3.8225,3.8192,3.8192,3.8192,3.8192,3.7898,3.7055,3.6939,3.6939,3.69,3.6557,3.6343,3.6301,3.5871,3.5622,3.5622,3.5131,3.4833,3.4769,3.3834,3.3245,3.3049,3.3218,3.3245,3.3102,3.3607,3.388,3.388,3.3712,3.3995,3.8586,4.1023,4.3175,4.3979,4.4351,4.4418,4.4145,4.2611,4.0924,3.9831,3.7757,3.5872,3.5007,3.4661,3.5084,3.6757,3.7584,3.8815,4.1143,4.147,4.1797,4.2662,4.2777,4.2854,4.3085,4.3643,4.4085,4.4278,4.4509,4.4913,4.5566,4.5586,4.5586,4.5586,4.5586,4.5586,4.5586,4.5586,4.5438,4.5096,4.4943,4.4776,4.4617,4.4617,4.4484,4.4318,4.4511,4.4465,4.4289,4.4289,4.4289,4.4279,4.4079,4.4005,4.4005,4.4005,4.4005,4.4005,4.4005,4.4005,4.4005,4.4005,4.4005,4.3974,4.3818,4.3804,4.3771,4.3566,4.3332,4.3057,4.2451,4.2158,4.1791,4.1001,4.0799,4.0744,4.0492,3.9978,3.9525,3.9414,3.8824,3.8274,3.8225,3.8192,3.8192,3.8192,3.8192,3.7985,3.7432,3.7358,3.7228,3.6939,3.6821,3.6638,3.6343,3.6174,3.5958,3.5622,3.547,3.5224,3.4833,3.5103,3.4864,3.3903,3.4533,3.4587,3.4097,3.4636,3.4836,3.4851,3.5167,3.5422,4.1061,4.315,4.4587,4.4554,4.4506,4.4105,4.256,4.1084,3.9456,3.7464,3.5622,3.3987,3.2756,3.2833,3.3641,3.5334,3.6622,3.845,4.1393,4.1797,4.2258,4.3489,4.3624,4.3778,4.4162,4.4605,4.4874,4.4874,4.4874,4.5066,4.5566,4.5586,4.5586,4.5586,4.5586,4.5586,4.5586,4.5495,4.5342,4.5201,4.5074,4.4962,4.48,4.48,4.4726,4.4572,0.0,4.4546,4.4402,4.426,4.4221,4.4221,4.4048,4.4005,4.4005,4.4005,4.4005,4.4005,4.4005,4.4005,4.4005,4.4005,4.4005,4.3974,4.3883,4.3851,4.3786,4.36,4.3548,4.3422,4.2928,4.2818,4.2616,4.1827,4.1644,4.1534,4.1185,4.0763,4.04,4.0354,3.9805,3.9234,3.8821,3.8751,3.8608,3.8246,3.8192,3.8233,3.833,3.8025,3.7721,3.7504,3.7301,3.7217,3.7351,3.6977,3.6836,3.6915,3.6741,3.6464,3.6164,3.6372,3.6156,3.5505,3.5689,3.5691,3.5361,3.5553,3.5645,3.5645,3.5854,3.5973,4.3595,4.4601,4.4736,4.4639,4.438,4.3332,4.0139,3.8998,3.7737,3.4539,3.3083,3.1948,3.0506,3.0948,3.216,3.4064,3.568,3.7892,4.1316,4.1912,4.2547,4.4105,4.4393,4.4759,4.5545,4.5603,4.5603,4.5603,4.5603,4.5603,4.5586,4.5586,4.5603,4.5603,4.5603,4.5603,4.5603,4.5362,4.5243,4.5243,4.503,4.4915,4.4849,4.4849,4.4825,4.4726,4.4546,0.0,4.4383,4.4151,4.4048,4.4048,4.4017,4.4005,4.4005,4.4005,4.4005,4.4005,4.4005,4.4005,4.4005,4.4005,4.4005,4.3974,4.3929,4.3897,4.3865,4.3667,4.3615,4.3582,4.3513,4.3532,4.3314,4.2635,4.2451,4.2268,4.1589,4.135,4.1207,4.1049,4.0878,4.0504,3.9795,3.9618,3.9331,3.8642,3.8534,3.8787,3.9494,3.8878,3.8391,3.8482,3.8151,3.8168,3.879,3.8117,3.7923,3.8553,3.8155,3.7905,3.7905,3.7519,3.7302,3.7252,3.6867,3.6616,3.6516,3.6337,3.6274,3.6274,3.61,3.6037,4.3169,4.4543,4.5432,4.4775,4.3504,4.1905,3.9863,3.7193,3.4583,3.2557,3.0871,2.966,2.9371,3.0044,3.166,3.4776,3.6084,3.7892,4.1316,4.2431,4.3239,4.4182,4.4932,4.5449,4.5673,4.5693,4.5693,4.5693,4.5687,4.5651,4.5603,4.5586,4.5622,4.5693,4.564,4.5622,4.5693,4.5586,4.5531,4.5531,4.555,4.54,4.5118,4.5201,4.4943,4.4465,4.465,0.0,4.4402,4.4346,4.4318,4.4318,4.4109,4.4005,4.4005,4.4005,4.4005,4.4005,4.4005,4.4005,4.4005,4.4005,4.4005,4.3974,4.3929,4.3897,4.3883,4.3786,4.3686,4.3582,4.3582,4.3548,4.3442,4.3314,4.3277,4.324,4.3112,4.2561,4.1867,4.1141,4.0946,4.0857,4.0607,4.0571,4.05,4.0354,4.0286,4.0324,4.0469,3.9728,3.9423,4.0039,4.0022,3.9914,3.9703,3.9211,3.8806,3.8632,3.8155,3.7905,3.7905,3.8383,3.8422,3.7914,3.7965,3.7719,3.7227,3.6707,3.6429,3.6429,3.6429,3.6429,4.3614,4.4562,4.4968,4.4136,4.2957,4.1087,3.7546,3.5121,3.2891,3.0248,2.9063,2.8343,2.7892,2.8874,3.0452,3.2512,3.3923,3.6117,3.995,4.1219,4.2374,4.4105,4.5101,4.5657,4.5693,4.5706,4.5687,4.5687,4.57,4.5703,4.5657,4.5654,4.5671,4.5687,4.5671,4.5671,4.5687,4.5671,4.5651,4.5635,4.5586,4.5438,4.5243,4.5199,4.4981,4.4599,4.4624,0.0,4.4402,4.425,4.4192,4.4162,4.4048,4.4005,4.4005,4.4005,4.4005,4.4005,4.4005,4.4005,4.4005,4.4005,4.4005,4.4005,4.3942,4.3942,4.3929,4.3837,4.3753,4.3667,4.36,4.3513,4.3497,4.3497,4.3497,4.3497,4.3497,4.3185,4.28,4.2399,4.2258,4.2095,4.1604,4.1462,4.1263,4.0878,4.0755,4.0919,4.1303,4.0995,4.0689,4.0528,4.051,4.0601,4.0831,4.0428,4.0123,4.0114,3.9686,3.9296,3.9022,3.9377,3.9446,3.9159,3.8614,3.8181,3.7854,3.6952,3.6492,3.6492,3.6492,3.6492,4.3614,4.4175,4.4117,4.3247,4.2073,3.994,3.5357,3.3191,3.1287,2.8258,2.7477,2.7199,2.6689,2.772,2.9117,3.0466,3.1977,3.4398,3.8445,4.0042,4.1585,4.3778,4.5021,4.5709,4.569,4.5719,4.5715,4.5715,4.5715,4.5719,4.569,4.5703,4.5715,4.5715,4.5715,4.5715,4.5715,4.5648,4.5668,4.57,4.5456,4.5302,4.5222,4.5068,4.4881,4.4669,4.453,0.0,0.0,4.417,4.4067,4.4109,4.4091,4.4079,4.4079,4.4079,4.4121,4.4151,4.4048,4.4048,4.4079,4.4036,4.4005,4.4005,4.4079,4.4048,4.4005,4.3961,4.3883,4.3771,4.3634,4.3548,4.3497,4.3497,4.3497,4.3497,4.3497,4.3497,4.3497,4.3497,4.3481,4.321,4.2569,4.2406,4.2118,4.146,4.1369,4.1572,4.221,4.2283,4.194,4.1161,4.1071,4.1289,4.194,4.1525,4.1316,4.149,4.1065,4.058,4.0121,4.007,4.007,4.007,3.9065,3.8446,3.8278,3.7222,3.6616,3.6492,3.6492,3.6492,4.199,4.2821,4.3208,4.2338,4.0243,3.7648,3.4913,3.1738,2.8868,2.7083,2.6131,2.5841,2.6487,2.6776,2.7952,3.1067,3.2393,3.4199,3.7646,4.0177,4.2066,4.3085,4.4694,4.569,4.57,4.575,4.5781,4.5781,4.5781,4.5765,4.57,4.57,4.5731,4.5781,4.5731,4.5731,4.5781,4.5547,4.553,4.57,4.5304,4.5096,4.503,4.4843,4.4584,4.4354,4.4344,4.443,0.0,4.4277,4.4306,4.4438,4.4402,4.4374,4.4374,4.4374,4.4519,4.465,4.4181,4.4151,4.4318,4.4079,4.4005,4.4048,4.4289,4.4192,4.4048,4.426,4.4079,4.3804,4.3832,4.3701,4.3497,4.3497,4.3497,4.3497,4.3497,4.3497,4.3497,4.3497,4.3497,4.3479,4.3387,4.3369,4.3351,4.3277,4.3208,4.3193,4.3266,4.3177,4.3069,4.296,4.2905,4.2868,4.2958,4.2408,4.1902,4.1525,4.1065,4.058,4.0121,4.007,4.007,4.007,3.947,3.8865,3.8278,3.7621,3.7013,3.6492,3.6492,3.6492,4.0906,4.1874,4.2408,4.1938,3.989,3.7184,3.4097,3.1116,2.8372,2.6154,2.5475,2.537,2.5705,2.5803,2.6651,2.9081,2.9757,3.1163,3.4526,3.6768,3.8936,4.1309,4.3131,4.4585,4.5603,4.5765,4.5795,4.5805,4.5805,4.5791,4.5757,4.5757,4.5771,4.5805,4.5771,4.5771,4.5805,4.5677,4.5629,4.558,4.5284,4.5052,4.48,4.4655,4.4522,4.4495,4.4522,4.4624,0.0,4.4682,4.4657,4.4751,4.4713,4.4688,4.4701,4.4701,4.4776,4.4825,4.4572,4.4457,4.4383,4.4279,4.4121,4.4036,4.4121,4.406,4.4017,4.4079,4.3974,4.3851,4.3851,4.3701,4.3548,4.3548,4.3513,4.3497,4.3497,4.3497,4.3497,4.3497,4.3497,4.3497,4.3497,4.3497,4.3497,4.3497,4.3463,4.3463,4.3463,4.3428,4.3375,4.3375,4.3251,4.316,4.316,4.2709,4.2192,4.1648,4.1157,4.0659,4.0121,4.007,4.007,4.007,3.9523,3.892,3.8278,3.7679,3.7074,3.6492,3.6492,3.6492,3.9129,4.0179,4.0737,4.055,3.862,3.5978,3.3039,3.0387,2.7873,2.5554,2.5298,2.5532,2.5501,2.5742,2.6461,2.8068,2.8521,2.9775,3.2949,3.509,3.7398,4.026,4.2136,4.3766,4.5214,4.5626,4.5761,4.5626,4.5692,4.5692,4.5626,4.5626,4.5692,4.58,4.5737,4.5737,4.58,4.5737,4.5658,4.5574,4.5225,4.5033,4.4924,4.4707,4.4655,4.4776,4.4825,4.4947,0.0,4.4998,4.4995,4.5055,4.502,4.5017,4.5033,4.503,4.5074,4.5096,4.4891,4.4726,4.4624,4.4438,4.426,4.4091,4.4017,4.4005,4.4005,4.4048,4.4005,4.3897,4.3837,4.3719,4.3667,4.3615,4.3548,4.3497,4.3497,4.3497,4.3497,4.3497,4.3497,4.3497,4.3497,4.3497,4.3497,4.3497,4.3497,4.3497,4.3497,4.3497,4.3497,4.3497,4.3375,4.3286,4.3251,4.2824,4.2374,4.1796,4.1311,4.0772,4.0171,4.0188,4.0138,4.007,3.9696,3.9082,3.8278,3.7838,3.7282,3.6492,3.6492,3.6492,3.6331,3.7329,3.7916,3.7778,3.5736,3.3329,3.1775,2.9326,2.6963,2.5323,2.5685,2.6269,2.6205,2.689,2.7828,2.8914,2.9759,3.1205,3.3917,3.6472,3.8703,4.04,4.214,4.3559,4.4414,4.5288,4.5626,4.5243,4.5381,0.0,4.5222,4.5201,4.5381,4.58,4.561,4.561,4.58,4.561,4.561,4.58,4.5104,4.5055,4.5472,4.4992,4.4943,4.5201,4.5201,4.5304,0.0,4.5203,4.5223,4.5399,4.5323,4.5304,4.5304,4.5303,4.5457,4.5622,4.5007,4.4985,4.5096,4.4572,4.4402,4.4346,4.4079,4.4005,4.4048,4.4318,4.4192,4.3974,4.3818,4.3804,4.3753,4.3634,4.3548,4.3497,4.3497,4.3497,4.3497,4.3497,4.3497,4.3497,4.3497,4.3497,4.3497,4.3497,4.3497,4.3497,4.3497,4.3497,4.3497,4.3497,4.3497,4.3463,4.3376,4.2918,4.2391,4.1924,4.1463,4.0931,4.0337,4.0305,4.0255,4.007,4.007,3.9506,3.8278,3.8278,3.7663,3.6492,3.6492,3.6492,3.3948,3.4855,3.529,3.4442,3.3169,3.1657,2.9889,2.8385,2.707,2.592,2.5944,2.6318,2.6794,2.718,2.8137,3.0261,3.0919,3.2083,3.4687,3.6685,3.8501,4.014,4.2756,4.4536,4.4804,4.517,4.5323,4.5222,4.5263,4.5283,4.5201,4.503,4.5142,4.5594,4.5399,4.5454,4.58,4.561,4.5524,4.5594,4.538,4.5285,4.5284,4.514,4.5203,4.5399,4.5399,4.5507,0.0,4.5607,4.5629,4.5665,4.5642,4.5642,4.5648,4.5632,4.5703,4.5719,4.5494,4.5342,4.5201,4.48,4.4546,4.4346,4.4079,4.4005,4.4036,4.4091,4.4079,4.4005,4.3961,4.3897,4.3851,4.3753,4.3634,4.3548,4.3532,4.3497,4.3497,4.3497,4.3497,4.3497,4.3497,4.3497,4.3497,4.3497,4.3497,4.3497,4.3497,4.3497,4.3497,4.3497,4.3497,4.3497,4.3463,4.275,4.2198,4.1973,4.1157,4.0614,4.0305,4.0188,4.0121,4.007,4.007,3.9523,3.8278,3.8278,3.7663,3.6492,3.6492,3.6492,3.1157,3.2124,3.2564,3.1718,3.0877,2.9877,2.8423,2.7447,2.6695,2.607,2.6199,2.6685,2.7483,2.793,2.8766,3.0494,3.1126,3.2206,3.4476,3.6476,3.8565,4.0844,4.3174,4.4554,4.4482,4.4925,4.5137,4.4934,4.5026,4.5007,4.4934,4.4764,4.4868,4.5206,4.5203,4.5362,4.5673,4.5558,4.5543,4.561,4.5361,4.5304,4.5418,4.5283,4.5343,4.561,4.561,0.0,0.0,4.58,4.5786,4.5791,4.58,4.5786,4.581,4.5795,4.58,4.58,4.5706,4.5513,4.5263,4.503,4.4701,4.4346,4.4079,4.4005,4.4005,4.4005,4.4005,4.4005,4.4005,4.3961,4.3883,4.3804,4.3719,4.3582,4.3513,4.3497,4.3497,4.3497,4.3497,4.3497,4.3497,4.3497,4.3497,4.3497,4.3497,4.3497,4.3497,4.3497,4.3497,4.3497,4.3497,4.3444,4.3304,4.2616,4.2157,4.2098,4.1174,4.0583,4.0453,4.0387,4.0288,4.0271,3.9952,3.9332,3.839,3.7895,3.7222,3.6492,3.6492,3.6492,0.0,2.9159,2.9751,2.9433,2.8799,2.8012,2.7204,2.6491,0.0,2.5905,2.6504,2.7307,2.8297,2.9045,2.9664,3.016,3.0835,3.1948,3.3872,3.6326,3.9109,4.2351,4.3437,4.3869,4.3672,4.4547,4.4957,4.4524,4.4681,4.4688,4.4515,4.4515,4.4587,4.477,4.503,4.5264,4.5472,4.5472,4.5594,4.5766,4.5145,4.5206,4.58,4.5418,4.5436,0.0,4.58,0.0,0.0,4.58,4.58,4.58,4.58,4.58,4.58,4.581,4.5795,4.58,4.5742,4.5531,4.5303,4.5201,4.4825,4.4318,4.4079,4.4005,4.4005,4.4005,4.4005,4.4005,4.4005,4.3942,4.3883,4.3837,4.3719,4.3582,4.3513,4.3479,4.3497,4.3497,4.3497,4.3497,4.3497,4.3497,4.3497,4.3497,4.3497,4.3497,4.3497,4.3497,4.3497,4.3497,4.3497,4.3339,4.2957,4.2498,4.2216,4.2157,4.1328,4.084,4.0697,4.0697,4.0648,4.0485,3.9697,3.9049,3.8446,3.7103,3.6492,3.6492,3.6492,3.6492,2.5641,0.0,2.702,2.6214,2.6344,2.6393,0.0,2.5649,2.6155,2.669,2.6933,2.7717,2.9813,2.985,3.0451,3.3086,3.3261,3.4092,3.6992,3.9485,4.1755,4.3668,4.4127,4.424,4.4223,4.4501,4.4613,4.4515,4.4551,4.4532,4.4515,4.4515,4.4524,4.456,4.4789,4.503,4.5283,4.5264,4.5362,4.5577,4.5574,4.5658,4.58,4.5708,4.5723,4.58,0.0,0.0,4.58,4.58,4.58,4.58,4.58,4.58,4.58,4.58,4.5786,4.5805,4.5781,4.57,4.5528,4.5055,4.4519,4.4079,4.4036,4.4005,4.4005,4.4005,4.4005,4.4005,4.4005,4.3974,4.3942,4.3897,4.3818,4.3719,4.36,4.3532,4.3497,4.3497,4.3497,4.3497,4.3497,4.3497,4.3497,4.3497,4.3497,4.3497,4.3497,4.3497,4.3497,4.3497,4.3497,4.3444,4.3375,4.2655,4.2032,4.1692,4.1071,4.0745,4.0697,4.0583,4.0534,4.0485,3.9315,3.839,3.7822,3.6937,3.6492,3.6492,3.6492,3.6492,2.467,2.5404,2.6062,2.5469,2.5649,2.5973,2.5787,2.5826,2.6219,2.7382,2.7606,2.8129,2.9868,3.0029,3.0549,3.257,3.3398,3.5127,3.8983,4.0948,4.26,4.4195,4.4411,4.4458,4.4458,4.4487,4.4515,4.4515,4.4515,4.4515,4.4515,4.4515,4.4515,4.4515,4.4595,4.4789,4.5007,4.5159,4.5244,4.5362,4.5361,4.5417,4.5507,4.5399,4.5417,4.5524,0.0,0.0,4.5658,4.5752,4.58,4.58,4.58,4.58,4.58,4.58,4.58,4.58,4.5795,4.5684,4.5419,4.4853,4.4457,4.4151,4.4048,4.4005,4.4005,4.4005,4.4005,4.4005,4.4005,4.4005,4.3974,4.3929,4.3883,4.3818,4.3634,4.3548,4.3532,4.3532,4.3497,4.3497,4.3497,4.3497,4.3497,4.3497,4.3497,4.3497,4.3497,4.3497,4.341,4.3232,4.3214,4.305,4.2637,4.2139,4.1864,4.1821,4.1163,4.0793,4.0793,4.0728,4.0402,3.98,3.8978,3.8149,3.7207,3.6708,3.6492,3.6492,3.6492,3.6492,2.4515,2.5412,2.6261,2.5884,2.5942,2.6221,2.6859,2.6467,2.6393,2.7885,2.8202,2.8556,2.96,3.0176,3.0724,3.1458,3.3352,3.6159,4.0285,4.1574,4.266,4.4299,4.4487,4.4515,4.4515,4.4515,4.4515,4.4515,4.4515,4.4515,4.4515,4.4515,4.4515,4.4515,4.4515,4.4587,4.4745,4.5007,4.514,4.5137,4.4962,4.4985,4.5201,4.4943,4.4988,4.5263,0.0,0.0,4.556,4.5737,4.58,4.58,4.58,4.58,4.58,4.5786,4.5766,4.58,4.5746,4.551,4.5118,4.465,4.443,4.4289,4.4079,4.4005,4.4005,4.4005,4.4005,4.4005,4.4005,4.4005,4.3974,4.3929,4.3897,4.3865,4.3682,4.3615,4.3582,4.3532,4.3532,4.3497,4.3497,4.3497,4.3497,4.3497,4.3497,4.3497,4.3497,4.3444,4.3268,4.2938,4.2844,4.2458,4.1692,4.1516,4.1648,4.2074,4.1328,4.0888,4.0888,4.0888,4.0269,3.8978,3.8799,3.8092,3.6785,3.66,3.6554,3.6554,3.6492,3.6492,2.4504,2.5947,2.7187,2.6077,2.6317,2.6859,2.6972,2.6897,2.7083,2.7997,2.824,2.8891,3.0835,3.1485,3.2374,3.4309,3.6801,3.9208,4.1334,4.2333,4.3222,4.4299,4.4487,4.4515,4.4515,4.4515,4.4515,4.4515,4.4515,4.4515,4.4515,4.4515,4.4515,4.4515,4.4515,4.4496,4.4551,4.4764,4.4849,4.4849,4.5052,4.5159,4.5201,4.5159,4.5244,4.5454,0.0,4.5594,4.5752,4.58,4.58,4.58,4.58,4.58,4.5786,4.561,4.5642,4.5786,4.5618,4.5182,4.4676,4.4538,4.4308,4.4048,4.3986,4.4005,4.4005,4.4005,4.4005,4.4005,4.4005,4.4005,4.4005,4.3974,4.3961,4.3897,4.3865,4.3734,4.3582,4.3582,4.3548,4.3497,4.3497,4.3497,4.3497,4.3497,4.3497,4.3497,4.3497,4.3178,4.2957,4.292,4.2537,4.2239,4.2115,4.1735,4.1516,4.1604,4.1163,4.0888,4.0888,4.0888,4.0353,3.9189,3.8978,3.8318,3.7134,3.6846,3.6662,3.6662,3.6554,3.6492,2.4373,2.5634,2.6831,2.6814,2.7656,2.847,2.8462,2.8443,2.8686,2.9669,2.9898,3.0231,3.1249,3.2095,3.3568,3.6355,3.8628,4.056,4.2174,4.2791,4.3437,4.4289,4.4458,4.4515,4.4515,4.4515,4.4515,4.4515,4.4515,4.4515,4.4515,4.4515,4.4515,4.4515,4.4515,4.4515,4.4515,4.4595,4.4648,4.4629,4.4868,4.4934,4.4833,4.4833,4.4862,4.4962,0.0,4.5165,4.5285,4.5418,4.5472,4.5472,4.5472,4.5472,4.5454,4.5362,4.5399,4.5454,4.5381,4.503,4.4624,4.4591,4.4355,4.4085,4.4005,4.4005,4.4005,4.4005,4.4005,4.4005,4.4005,4.4005,4.4005,4.4005,4.3974,4.3942,4.3897,4.3818,4.3719,4.3719,4.36,4.3532,4.3566,4.3513,4.341,4.3232,4.3196,4.3069,4.2846,4.2655,4.2418,4.2157,4.1948,4.1735,4.1507,4.1283,4.1163,4.1163,4.0995,4.0888,4.0888,4.0888,4.0353,3.9206,3.8995,3.8318,3.7194,3.6968,3.6862,3.6862,3.6677,3.66,2.4241,2.5282,2.6252,2.6922,2.8046,2.9225,3.0052,2.9909,3.0034,3.1454,3.1743,3.177,3.1803,3.293,3.4909,3.8249,3.9884,4.1277,4.2816,4.3274,4.368,4.4279,4.4458,4.4515,4.4515,4.4515,4.4515,4.4515,4.4515,4.4515,4.4515,4.4515,4.4515,4.4515,4.4515,4.4515,4.4515,4.4515,4.4515,4.4515,4.4655,4.4655,4.4515,4.4515,4.4524,4.4587,4.472,4.4843,4.4896,4.5137,4.5201,4.5201,4.5201,4.5159,4.5118,4.518,4.5137,4.5049,4.5074,4.4891,4.4636,4.4584,4.4402,4.4214,4.4085,4.4055,4.4036,4.4005,4.4005,4.4005,4.4005,4.4005,4.4005,4.4005,4.4005,4.3974,4.3929,4.3883,4.3837,4.3837,4.3667,4.3513,4.3461,4.3391,4.3214,4.2788,4.2729,4.2595,4.2257,4.2115,4.1906,4.1516,4.1401,4.1237,4.0918,4.0888,4.0888,4.0888,4.0888,4.0888,4.0888,4.0758,4.0237,3.9206,3.8887,3.8278,3.7254,3.7105,3.706,3.7044,3.6862,3.6723,2.4242,2.5273,2.5963,2.542,2.6109,2.7789,3.1084,3.0731,3.0333,3.26,3.3128,3.314,3.3074,3.4467,3.6734,4.0225,4.1006,4.1678,4.3162,4.3862,4.424,4.4314,4.443,4.4515,4.4515,4.4515,4.4515,4.4515,4.4515,4.4515,4.4515,4.4515,4.4515,4.4515,4.4515,4.4515,4.4515,4.4515,4.4515,4.4515,4.4496,4.4496,4.4515,4.4515,4.4595,4.4795,4.4776,4.4938,4.518,4.5201,4.5201,4.5201,4.5201,4.5052,4.4849,4.5096,4.491,4.4578,4.4745,4.4636,4.4411,4.4411,4.4354,4.4285,4.4214,4.4184,4.4153,4.4055,4.4005,4.4005,4.4005,4.4005,4.4005,4.4005,4.4005,4.4005,4.4005,4.3961,4.3897,4.3897,4.3734,4.3461,4.3105,4.2976,4.2806,4.2338,4.2239,4.2257,4.2198,4.1821,4.1516,4.1516,4.1163,4.0918,4.0871,4.0888,4.0888,4.0888,4.0888,4.0888,4.0888,4.0385,3.98,3.9206,3.8629,3.8026,3.748,3.727,3.7194,3.7194,3.7044,3.6862,2.3088,2.4993,2.6634,2.6294,2.6788,2.7674,2.9029,3.1351,3.3705,3.5229,3.5354,3.5385,3.6067,3.6579,3.7731,4.0231,4.1101,4.1935,4.3206,4.3693,4.3986,4.4195,4.4401,4.4487,4.444,4.4487,4.4515,4.4515,4.4515,4.4515,4.4515,4.4515,4.4515,4.4515,4.4515,4.4515,4.4515,4.4515,4.4515,4.4515,4.4515,4.4515,4.4515,4.4515,4.4551,4.4621,4.4621,4.4674,4.4758,4.4758,4.4758,4.4758,4.4758,4.47,4.4621,4.4726,4.4667,4.4496,4.4587,4.456,4.4458,4.4411,4.4383,4.4344,4.4244,4.4184,4.4184,4.4036,4.4005,4.4005,4.4005,4.4005,4.4005,4.4005,4.4005,4.4005,4.4005,4.3961,4.3897,4.3942,4.3649,4.3286,4.3087,4.279,4.2418,4.1864,4.1778,4.1648,4.1418,4.1255,4.1117,4.1117,4.1012,4.0888,4.0888,4.0888,4.071,4.0385,4.071,4.071,4.0336,4.0103,3.9577,3.8684,3.8407,3.8042,3.748,3.7405,3.7405,3.7405,3.7121,3.6938,2.2437,2.4599,2.6709,2.6853,2.7553,2.8122,2.7799,3.0817,3.4358,3.6556,3.7129,3.7417,3.8061,3.799,3.8402,4.0219,4.1068,4.1812,4.2705,4.321,4.3609,4.3974,4.4188,4.4335,4.4411,4.4468,4.4515,4.4515,4.4515,4.4515,4.4515,4.4515,4.4515,4.4515,4.4515,4.4515,4.4515,4.4515,4.4515,4.4515,4.4515,4.4515,4.4515,4.4515,4.4515,4.4515,4.4515,4.4515,4.4515,4.4515,4.4515,4.4515,4.4515,4.4515,4.4515,4.4515,4.4515,4.4515,4.4515,4.4515,4.4487,4.4458,4.4411,4.4383,4.4274,4.4214,4.4184,4.4036,4.3923,4.3809,4.3809,4.3809,4.3809,4.3809,4.3809,4.3777,4.366,4.3679,4.373,4.3627,4.3284,4.2921,4.2754,4.2382,4.1906,4.1401,4.1328,4.1192,4.0918,4.0888,4.0888,4.0888,4.0888,4.0888,4.0888,4.071,4.0434,4.0003,4.0237,4.0187,3.9749,3.9577,3.9102,3.8351,3.8141,3.7886,3.748,3.748,3.748,3.748,3.7165,3.706,2.2538,2.4172,2.5982,2.6712,2.8127,2.9064,2.7998,2.899,3.1461,3.6085,3.8238,3.9153,3.8617,3.8411,3.8881,4.0531,4.0945,4.1217,4.1563,4.2327,4.3086,4.3642,4.3772,4.3992,4.444,4.4515,4.4515,4.4515,4.4515,4.4515,4.4515,4.4515,4.4515,4.4515,4.4515,4.4515,4.4515,4.4515,4.4515,4.4515,4.4515,4.4515,4.4515,4.4515,4.4515,4.4515,4.4515,4.4515,4.4515,4.4515,4.4515,4.4515,4.4515,4.4515,4.4515,4.4515,4.4515,4.4515,4.4515,4.4515,4.4515,4.4515,4.444,4.4383,4.4314,4.4226,4.4153,4.4036,4.3693,4.3387,4.3387,4.3406,4.3406,4.3406,4.3387,4.3301,4.2885,4.3105,4.3283,4.2885,4.2639,4.2382,4.1966,4.1666,4.1356,4.0965,4.0888,4.0888,4.0888,4.0871,4.0871,4.0888,4.0888,4.0888,4.0871,4.0336,4.0003,4.0003,3.9506,3.9206,3.9206,3.8629,3.8278,3.8278,3.7786,3.748,3.748,3.748,3.748,3.748,3.727,3.715,2.2286,2.4219,2.6425,2.6637,2.9629,3.2262,3.1255,3.3036,3.5663,3.8105,3.9864,4.0565,3.9279,3.935,3.9797,4.0415,4.0465,4.0665,4.1505,4.1809,4.2339,4.3231,4.3925,4.4246,4.4177,4.4354,4.4515,4.4515,4.4515,4.4515,4.4515,4.4515,4.4515,4.4515,4.4515,4.4515,4.4515,4.4515,4.4515,4.4515,4.4515,4.4515,4.4515,4.4515,4.4515,4.4515,4.4515,4.4515,4.4515,4.4515,4.4515,4.4515,4.4515,4.4515,4.4515,4.4515,4.4515,4.4515,4.4515,4.4515,4.4487,4.444,4.4229,4.3931,4.3804,4.3523,4.3265,4.3177,4.3069,4.2996,4.2996,4.2772,4.2619,4.2922,4.2996,4.2959,4.2847,4.2867,4.2941,4.2829,4.2462,4.2098,4.1924,4.1525,4.1169,4.0918,4.0888,4.0888,4.0888,4.0549,4.0434,4.0871,4.0187,3.9885,4.022,3.9765,3.9279,3.8816,3.8668,3.8574,3.8574,3.8407,3.8141,3.7727,3.7583,3.748,3.748,3.748,3.748,3.748,3.7181,3.6785,2.3085,2.5147,2.747,2.7955,3.0835,3.365,3.4132,3.5682,3.7633,3.9788,4.0976,4.1311,4.0369,4.0475,4.0747,4.0866,4.0785,4.0893,4.1503,4.1624,4.1944,4.2865,4.3483,4.3841,4.4036,4.4218,4.4383,4.4487,4.4515,4.4515,4.4515,4.4515,4.4515,4.4515,4.4515,4.4515,4.4515,4.4515,4.4515,4.4515,4.4515,4.4515,4.4515,4.4515,4.4515,4.4515,4.4515,4.4515,4.4515,4.4515,4.4515,4.4515,4.4515,4.4515,4.4515,4.4515,4.444,4.4335,4.4335,4.4277,4.417,4.403,4.3823,4.3557,4.3316,4.305,4.2848,4.2792,4.2696,4.258,4.258,4.2279,4.205,4.248,4.258,4.2501,4.236,4.2462,4.2501,4.2302,4.1948,4.1666,4.1613,4.129,4.0982,4.0935,4.071,4.0451,4.0237,3.9919,3.9817,4.0204,3.961,3.9348,3.9645,3.9172,3.8684,3.8334,3.8084,3.7985,3.7985,3.7985,3.7828,3.7539,3.748,3.748,3.748,3.748,3.748,3.748,3.6846,3.6321,2.4466,2.6447,2.866,2.9982,3.1703,3.3775,3.6377,3.696,3.7875,4.0954,4.1591,4.1586,4.1613,4.1613,4.1603,4.1587,4.1604,4.1604,4.1604,4.1587,4.1856,4.2519,4.2693,4.3051,4.3918,4.406,4.4199,4.444,4.4487,4.4515,4.4515,4.4515,4.4515,4.4515,4.4515,4.4515,4.4515,4.4515,4.4515,4.4515,4.4515,4.4515,4.4515,4.4515,4.4515,4.4515,4.4515,4.4515,4.4515,4.4515,4.4515,4.4515,4.4515,4.4487,4.4468,4.4468,4.4306,4.406,4.406,4.3905,4.3679,4.3458,4.3301,4.3178,4.2923,4.2774,4.2696,4.2696,4.2422,4.2133,4.2133,4.1856,4.1675,4.205,4.2133,4.2068,4.1675,4.1899,4.2008,4.1498,4.1318,4.118,4.1093,4.0935,4.0823,4.0776,4.0286,3.9749,3.9242,3.9152,3.9152,3.9206,3.9098,3.9028,3.9082,3.8574,3.8238,3.8238,3.7786,3.748,3.748,3.748,3.748,3.748,3.748,3.748,3.748,3.748,3.7421,3.7405,3.6305,3.5785,2.4756,2.5994,2.7708,2.9719,3.2071,3.4326,3.6074,3.6738,3.786,4.0972,4.1591,4.1586,4.1613,4.1613,4.1613,4.1604,4.1604,4.1604,4.1604,4.1613,4.1637,4.1806,4.2487,4.3014,4.3231,4.3758,4.4121,4.417,4.4383,4.4515,4.4515,4.4515,4.4515,4.4515,4.4515,4.4515,4.4515,4.4515,4.4515,0.0,4.4515,4.4515,4.4515,4.4515,4.4515,4.4515,4.4515,4.4515,4.4515,4.4515,4.4515,4.4515,4.4515,4.4364,4.4199,4.4199,4.4017,4.3777,4.3777,4.3744,4.3646,4.3389,4.3105,4.277,4.244,4.2115,4.1874,4.1874,4.1788,4.1719,4.1719,4.1675,4.1604,4.1719,4.1719,4.1719,4.1604,4.1675,4.1675,4.1426,4.1318,4.118,4.1093,4.0614,4.007,3.9627,3.947,3.9348,3.9189,3.881,3.8684,3.9152,3.8399,3.8059,3.8463,3.8001,3.7685,3.7685,3.7583,3.748,3.748,3.748,3.748,3.748,3.748,3.748,3.748,3.7105,3.6846,3.6846,3.577,3.4963,2.4622,2.6,2.7908,3.0886,3.2807,3.428,3.5598,3.6112,3.6903,3.8978,4.0556,4.1609,4.1594,4.1578,4.1587,4.1587,4.1596,4.1604,4.1604,4.1604,4.1639,4.1707,4.2302,4.2732,4.2995,4.344,4.3758,4.3905,4.4048,4.4109,4.4109,4.4248,4.4306,4.4306,4.444,4.4515,4.4515,4.4515,4.4515,4.4515,4.4515,4.4515,4.4515,4.4515,4.4515,4.4515,4.4515,4.4515,4.4487,4.4364,4.4306,4.4306,4.4188,4.4048,4.3905,4.3905,4.3744,4.3511,4.3511,4.3373,4.3124,4.2902,4.2595,4.2274,4.1984,4.1744,4.1604,4.1604,4.1604,4.1604,4.1604,4.1604,4.156,4.1363,4.1453,4.1604,4.1604,4.1453,4.1272,4.1163,4.0931,4.071,4.0402,4.007,3.9645,3.9028,3.9098,3.899,3.8455,3.8116,3.8059,3.8343,3.786,3.7626,3.7886,3.7685,3.748,3.748,3.748,3.748,3.748,3.748,3.748,3.748,3.748,3.7345,3.7105,3.6846,3.6585,3.6321,3.532,3.4647,2.4261,2.6203,2.8603,3.1859,3.324,3.4031,3.4997,3.5391,3.5791,3.6586,3.8926,4.0806,4.0789,4.0793,4.082,4.082,4.1253,4.1578,4.1613,4.1613,4.1657,4.1849,4.2121,4.2472,4.2846,4.3142,4.3408,4.3612,4.3679,4.3712,4.3777,4.3968,4.4121,4.417,4.4364,4.4515,4.4515,4.4515,4.4515,4.4515,4.4515,4.4515,4.4515,4.4515,4.4468,4.444,4.4383,4.4354,4.4335,4.4109,4.403,4.3999,4.3777,4.3679,4.3612,4.3612,4.3477,4.3232,4.3196,4.292,4.257,4.2328,4.2061,4.1831,4.1648,4.1604,4.1604,4.1604,4.156,4.1515,4.1515,4.1453,4.1318,4.0977,4.1163,4.1408,4.1408,4.1117,4.0866,4.0724,4.0402,4.002,3.9437,3.9437,3.9279,3.8535,3.8717,3.8567,3.7642,3.748,3.748,3.748,3.748,3.748,3.748,3.748,3.748,3.748,3.748,3.748,3.748,3.7405,3.7345,3.7345,3.7345,3.7165,3.6723,3.6523,3.6196,3.5785,3.4861,3.4461,2.3786,2.6568,2.9383,3.0384,3.221,3.3898,3.4343,3.497,3.5498,3.5735,3.6758,3.7627,3.76,3.76,3.7617,3.7617,3.9856,4.1616,4.1611,4.1611,4.1621,4.1631,4.2019,4.2328,4.2391,4.2939,4.3303,4.3338,4.3579,4.3809,4.403,4.406,4.4199,4.444,4.4487,4.4515,4.4515,4.4515,4.4515,4.4515,4.4515,4.4515,4.4515,4.4515,4.4364,4.414,4.3905,4.3809,4.3809,4.3777,4.3744,4.3744,4.3712,4.3545,4.3338,4.3338,4.3196,4.292,4.2747,4.2631,4.253,4.2086,4.1917,4.1831,4.1648,4.1604,4.1604,4.1604,4.1363,4.1071,4.1071,4.0802,4.0546,4.0497,4.0497,4.0546,4.0546,4.0514,4.0466,4.037,4.0003,3.9437,3.8613,3.8629,3.8479,3.7743,3.77,3.77,3.7539,3.748,3.748,3.748,3.748,3.748,3.748,3.748,3.748,3.748,3.748,3.748,3.748,3.7029,3.6785,3.6785,3.6785,3.6785,3.6723,3.5816,3.5365,3.5299,3.437,3.3908,2.3699,2.6151,2.8415,2.9988,3.1467,3.2724,3.3284,3.3951,3.4655,3.5125,3.5727,3.6405,3.6884,3.7009,3.6998,3.6998,3.8607,3.9951,4.0267,4.0303,4.032,4.0305,4.0683,4.0967,4.0967,4.1431,4.1723,4.1723,4.2404,4.2846,4.2977,4.3677,4.417,4.4277,4.4411,4.4515,4.4515,4.4515,4.4515,4.4515,4.4515,4.4411,4.4277,4.4109,4.414,4.4306,4.403,4.3905,4.3905,4.3612,4.3477,4.3477,4.3303,4.316,4.3069,4.3069,4.292,4.2709,4.2649,4.2432,4.2169,4.1977,4.1805,4.1719,4.1648,4.1453,4.1272,4.1272,4.096,4.0659,4.0659,4.0514,4.0351,4.0203,4.0137,4.0054,3.985,3.9952,4.0003,3.9556,3.9044,3.8535,3.8214,3.8059,3.7844,3.7539,3.748,3.748,3.748,3.748,3.748,3.748,3.748,3.7285,3.6631,3.6769,3.6815,3.6631,3.6907,3.6907,3.6631,3.6646,3.6585,3.6258,3.6243,3.6117,3.5879,3.5429,3.5037,3.4721,3.4332,3.4128,2.3162,2.5147,2.6939,2.9024,3.0426,3.152,3.2249,3.2978,3.3715,3.446,3.503,3.5702,3.655,3.6876,3.7003,3.7003,3.7638,3.8415,3.9175,3.941,3.9627,3.9933,4.0281,4.0521,4.0599,4.0887,4.1035,4.0836,4.1558,4.1935,4.1784,4.2936,4.3621,4.3683,4.4106,4.4306,4.4306,4.4306,4.4306,4.4306,4.4306,4.417,4.3999,4.3777,4.3923,4.4277,4.3936,4.3791,4.3758,4.3373,4.3196,4.316,4.2995,4.2882,4.2882,4.2844,4.2709,4.257,4.2472,4.2127,4.1744,4.1701,4.148,4.13,4.13,4.1071,4.0866,4.0866,4.058,4.0269,4.0269,4.017,4.007,3.9868,3.9747,3.9625,3.9255,3.9415,3.9398,3.8678,3.823,3.796,3.7918,3.77,3.748,3.748,3.748,3.748,3.748,3.748,3.748,3.748,3.748,3.7089,3.5976,3.5913,3.5864,3.5913,3.6258,3.6321,3.5913,3.6196,3.6133,3.5721,3.5608,3.5415,3.5169,3.5037,3.4787,3.4414,3.4414,3.4346,2.1652,2.3458,2.5226,2.6558,2.8722,3.0775,3.1477,3.2232,3.2989,3.3719,3.4432,3.5169,3.5839,3.655,3.6987,3.6987,3.704,3.7602,3.9094,3.9757,4.0475,4.1644,4.1997,4.2244,4.2444,4.2659,4.2466,4.1705,4.1687,4.1505,4.0979,4.1745,4.232,4.2599,4.3338,4.3744,4.3744,4.3744,4.3744,4.3744,4.3744,4.3744,4.3712,4.3712,4.373,4.3712,4.3196,4.2957,4.2957,4.292,4.292,4.292,4.29,4.2882,4.29,4.267,4.2609,4.253,4.2086,4.1701,4.1373,4.1117,4.0754,4.0449,4.0449,4.0449,4.0449,4.0449,4.0204,3.9952,3.9952,3.9625,3.9379,3.9325,3.9325,3.9218,3.8914,3.886,3.8678,3.8059,3.8017,3.7976,3.7599,3.7539,3.748,3.748,3.748,3.748,3.748,3.748,3.748,3.748,3.748,3.7089,3.5976,3.5037,3.4905,3.5849,3.5913,3.5913,3.5913,3.5479,3.5234,3.5234,3.4735,3.4735,3.5169,3.4668,3.4414,3.4414,3.4414,3.4196,2.1101,2.2633,2.4319,2.5807,2.769,2.9334,3.0046,3.1139,3.2083,3.2348,3.3443,3.4363,3.4295,3.5759,3.698,3.7005,3.6987,3.7356,3.8392,3.8714,3.9218,4.0306,4.0633,4.0849,4.1099,4.1269,4.1035,4.0274,4.1304,4.1645,4.0939,4.1838,4.2396,4.2493,4.277,4.3176,4.3679,4.3712,4.3712,4.3712,4.3712,4.3612,4.3442,4.3442,4.3338,4.316,4.2995,4.2995,4.3124,4.2957,4.2882,4.2882,4.2882,4.2824,4.267,4.2338,4.205,4.177,4.1356,4.099,4.0754,4.0659,4.0514,4.04,4.04,4.0237,4.007,4.007,3.9833,3.9537,3.9537,3.9432,3.9272,3.904,3.9148,3.9164,3.8655,3.8544,3.8432,3.8001,3.7786,3.7642,3.7539,3.748,3.748,3.748,3.748,3.7029,3.5688,3.6054,3.6492,3.6492,3.5879,3.5365,3.4971,3.4601,3.4534,3.4905,3.5234,3.5299,3.4971,3.5103,3.5037,3.4654,3.4481,3.4467,3.4668,3.4467,3.4414,3.4414,3.4128,3.3908,2.0432,2.1875,2.3582,2.5366,2.657,2.7661,2.9085,2.9996,3.0675,3.1113,3.2117,3.2899,3.2942,3.3956,3.5108,3.6103,3.6549,3.7079,3.7947,3.8111,3.8473,3.9492,4.0028,4.0402,4.0632,4.0817,4.06,3.9822,4.0631,0.0,4.0039,4.0936,4.1552,4.1809,4.1827,4.2213,4.3039,4.3039,4.3167,4.3442,4.3442,4.3338,4.3178,4.3178,4.3069,4.2882,4.2882,4.2995,4.316,4.2957,4.2882,4.2882,4.2673,4.2498,4.2338,4.1803,4.141,4.1146,4.0802,4.0466,4.0237,4.0237,4.0137,4.002,4.002,3.9867,3.9694,3.9694,3.9484,3.9272,3.9272,3.9272,3.9218,3.904,3.8914,3.8733,3.823,3.8262,3.8278,3.7754,3.7358,3.721,3.748,3.748,3.748,3.748,3.6907,3.607,3.5037,3.5415,3.5721,3.5721,3.5154,3.4654,3.4414,3.4414,3.4414,3.4414,3.4721,3.4787,3.4414,3.4721,3.4787,3.4414,3.4414,3.4414,3.4414,3.4414,3.4414,3.4414,3.4128,3.3839,0.0,0.0,0.0,2.5041,2.5327,2.5806,2.8599,2.8771,2.8721,3.0162,3.0474,3.0793,3.1807,3.1189,3.1441,3.4289,3.5572,3.6672,3.7872,3.8053,3.8433,3.9474,4.0473,4.1117,4.1351,4.1558,4.1306,4.051,3.9822,3.9079,3.8264,3.8971,3.9731,4.042,4.0438,4.0836,4.1669,4.1668,4.2103,4.2846,4.2882,4.2882,4.2882,4.2882,4.2882,4.2844,4.2844,4.2844,4.2844,4.2882,4.2882,4.2788,4.2203,4.1979,4.1853,4.1047,4.0802,4.0754,4.0449,4.0137,3.9901,3.9901,3.9642,3.9272,3.9272,3.9272,3.9272,3.9272,3.9272,3.9272,3.9272,3.9272,3.9218,3.9202,3.8606,3.7994,3.7648,3.7985,3.8091,3.7251,3.6723,3.6631,3.7345,3.748,3.7464,3.748,3.5752,3.4721,3.5721,3.5593,3.54,3.54,3.54,3.5088,3.4481,3.4414,3.4414,3.4414,3.4414,3.4414,3.4414,3.4414,3.4414,3.4414,3.4414,3.4414,3.4414,3.4414,3.4414,3.4414,3.4414,3.3991,1.8961,0.0,0.0,0.0,0.0,0.0,2.576,2.6462,2.7214,2.8671,2.9799,3.0597,3.0858,3.1298,3.1857,3.2754,3.3936,3.5162,3.6396,3.7016,3.7828,3.9105,3.9469,3.9858,4.0331,4.0578,4.0273,0.0,3.9769,3.9625,3.8671,3.885,3.9139,3.9482,3.9482,3.9914,4.0836,4.1433,4.1832,4.2049,4.2611,4.2655,4.2262,4.2262,4.2021,4.1578,4.1578,4.1578,4.1621,4.208,4.2038,4.1743,4.1446,4.1241,4.1047,4.0577,4.0269,4.0121,3.9713,3.9573,3.9484,3.9484,3.9379,3.9272,3.9272,3.9272,3.9272,3.9272,3.9272,3.9202,3.8717,3.8238,3.7838,3.7456,3.7338,3.7235,3.6814,3.6874,3.6829,3.6337,3.6102,3.6102,3.6305,3.6368,3.6631,3.7405,3.5752,3.4467,3.4787,3.5154,3.5204,3.4721,3.4654,3.4601,3.4414,3.4414,3.4414,3.4414,3.4414,3.4414,3.4414,3.4414,3.4414,3.4414,3.4414,3.4414,3.4414,3.4414,3.4414,3.4414,3.3839,3.3339,1.9215,2.0305,2.1696,2.2435,0.0,0.0,2.495,2.5431,2.6066,2.7611,2.8832,2.961,2.9622,3.0352,3.095,3.0998,3.2185,3.3516,3.4882,3.5437,3.6011,3.678,3.7495,3.8128,3.8681,3.9142,3.9274,3.8845,3.9047,3.8921,3.8345,3.831,3.8346,3.8474,3.8474,3.8833,3.9512,4.0356,4.0835,4.098,4.1846,4.2038,4.1621,4.1621,4.1446,4.1087,4.1087,4.0995,4.0827,4.1133,4.1223,4.1196,4.0856,4.0655,4.0497,4.0003,3.9747,3.9642,3.9379,3.9272,3.9272,3.9272,3.9272,3.9272,3.8969,3.8898,3.8843,3.8551,3.8495,3.8383,3.7937,3.7531,3.7175,3.6783,3.6661,3.6554,3.6291,3.5882,3.5578,3.577,3.5657,3.5544,3.5285,3.5285,3.5479,3.6133,3.5184,3.4414,3.4414,3.4721,3.4839,3.4414,3.4414,3.4414,3.4414,3.4414,3.4414,3.4414,3.4414,3.4414,3.4414,3.4414,3.4414,3.4414,3.4414,3.4414,3.4414,3.4414,3.4346,3.4128,3.3701,3.3199,2.0049,2.1034,2.2332,2.293,2.2824,0.0,2.4944,2.498,2.5083,2.6598,2.7429,2.7942,2.8108,2.8704,2.9168,2.9168,3.041,3.1867,3.3376,3.3646,3.3697,3.3738,3.5143,3.6236,3.6654,3.7479,3.8117,3.846,3.782,3.7411,3.7411,3.7411,3.7411,3.7449,3.7449,3.7638,3.802,3.8964,3.9557,3.9896,4.0839,4.1196,4.0995,4.0995,4.0949,4.0903,4.0903,4.0638,4.0269,4.0153,4.0397,4.0874,4.0317,4.0086,4.0053,3.9504,3.9272,3.9272,3.9272,3.9272,3.9272,3.9202,3.9202,3.9094,3.8407,3.8222,3.8108,3.7531,3.737,3.7251,3.7071,3.6951,3.6814,3.66,3.6229,3.5852,3.5837,3.5059,3.4587,3.532,3.527,3.4986,3.4481,3.4414,3.4414,3.4414,3.4414,3.4414,3.4414,3.4414,3.4414,3.4414,3.4414,3.4414,3.4414,3.4414,3.4414,3.4414,3.4414,3.4346,3.4264,3.4332,3.4346,3.4264,3.4264,3.4264,3.4264,3.4264,3.4128,3.3839,3.377,3.3339,2.1027,2.1851,2.2651,2.2239,2.3016,0.0,2.2309,2.2894,2.3791,2.431,2.4525,2.502,2.6366,2.7214,2.7732,2.7732,2.8903,3.0352,3.1807,3.2534,3.3031,3.3271,3.4134,3.4848,3.5246,3.6067,3.6582,3.6456,3.6318,3.6232,3.6232,3.6232,3.6316,3.6481,3.6481,3.6574,3.6818,3.8238,3.8981,3.9051,4.0471,4.0856,4.0366,4.0366,4.0086,3.9644,3.9644,3.9592,3.9504,3.9504,3.9609,3.9816,3.9556,3.9468,3.9451,3.9309,3.9272,3.9272,3.9272,3.9272,3.9202,3.8662,3.8479,3.8351,3.7764,3.7605,3.7531,3.7413,3.6951,3.6445,3.6383,3.5864,3.5299,3.5118,3.5052,3.5001,3.4773,3.4534,3.4481,3.4587,3.4601,3.4534,3.4414,3.4414,3.4414,3.4414,3.4414,3.4414,3.4414,3.4414,3.4414,3.4414,3.4414,3.4414,3.4414,3.4414,3.4414,3.4414,3.4414,3.4113,3.3451,3.4045,3.4113,3.3451,3.3437,3.3437,3.3437,3.3437,3.3742,3.4264,3.3339,3.2988,2.1947,2.2481,2.3042,2.2512,2.2968,0.0,0.0,2.2742,2.3151,2.4468,2.4194,2.3915,2.462,2.5865,2.675,2.675,2.8241,2.9549,2.9947,3.0924,3.1689,3.1842,3.2811,3.3671,3.3999,3.5129,3.582,3.5907,3.5907,3.5907,3.5907,3.5907,3.595,3.6062,3.6062,3.602,3.5959,3.7134,3.7815,3.7976,3.9194,3.973,3.9731,3.9731,3.9609,3.9272,3.9272,3.9094,3.8843,3.9148,3.8969,3.8495,3.9094,3.9272,3.9272,3.9272,3.9094,3.8772,3.8772,3.8606,3.8311,3.7953,3.7822,3.7706,3.7071,3.6662,3.643,3.6352,3.6006,3.5638,3.5524,3.5133,3.475,3.4616,3.4563,3.4563,3.4414,3.4414,3.4414,3.4414,3.4414,3.4414,3.4414,3.4414,3.4414,3.4414,3.4414,3.4414,3.4414,3.4414,3.4414,3.4414,3.4414,3.4414,3.4414,3.4414,3.4264,3.3825,3.3811,3.3589,3.3213,3.3241,3.3087,3.2648,3.2648,3.2648,3.2648,3.2277,3.2349,3.296,3.2761,3.2489,2.2757,2.3108,2.3504,2.2895,2.3069,2.3427,0.0,0.0,0.0,2.4801,2.4321,2.3438,2.3074,2.4307,2.5485,2.5853,2.7507,2.8638,2.8224,2.9284,0.0,3.0112,3.1504,3.2596,3.2856,3.4108,3.5105,3.5671,3.546,3.5426,3.5671,3.5688,3.5688,3.5688,3.5688,3.5571,3.5287,3.6148,3.6647,3.6903,3.7867,3.8598,3.9073,3.9259,3.9272,3.9272,3.9148,3.8772,3.8351,3.8788,3.8327,3.7546,3.8678,3.9023,3.8914,3.8914,3.8606,3.8108,3.8108,3.7822,3.737,3.7251,3.7131,3.6951,3.6368,3.5846,3.5439,3.5228,3.5148,3.5016,3.4765,3.4698,3.4631,3.4414,3.4414,3.4414,3.4414,3.4414,3.4414,3.4414,3.4414,3.4414,3.4414,3.4414,3.4414,3.4414,3.4414,3.4414,3.4414,3.4414,3.4414,3.4414,3.4414,3.4346,3.4182,3.4182,3.3825,3.3017,3.3003,3.2932,3.2777,3.2218,3.1928,3.2074,3.1928,3.1856,3.1856,3.1193,3.1119,3.1649,3.2101,3.1896,2.3478,2.3995,2.4301,2.2528,2.3625,2.4539,2.2232,0.0,2.3763,2.3026,0.0,2.2766,2.2101,0.0,0.0,2.4576,2.5801,2.6766,2.735,2.8146,2.8622,2.8622,3.0477,3.1735,3.1779,3.2508,3.3566,3.4925,3.3794,3.3627,3.4958,3.5024,3.5024,3.5024,3.5024,3.4977,3.4947,3.5725,3.6091,3.6141,3.7549,3.8245,3.8361,3.899,3.9272,3.9272,3.8662,3.8351,3.8278,3.7764,3.7546,3.7488,3.8181,3.8067,3.7605,3.7605,3.7546,3.7472,3.7472,3.7488,3.731,3.6723,3.6133,3.5668,3.5619,3.5424,3.5213,3.5213,3.4964,3.4765,3.4698,3.4563,3.4414,3.4414,3.4414,3.4414,3.4414,3.4414,3.4414,3.4414,3.4414,3.4414,3.4414,3.4414,3.4414,3.4414,3.4414,3.4414,3.4414,3.4414,3.4414,3.4414,3.4414,3.4113,3.3367,3.3367,3.3017,3.229,3.2218,3.1928,3.118,3.1106,3.1341,3.2074,3.1415,3.1044,3.1044,3.097,3.1267,3.2015,3.1415,3.1206,2.3555,2.4,2.4267,2.2909,2.3285,2.358,2.2102,0.0,2.233,0.0,0.0,0.0,0.0,0.0,0.0,0.0,2.5549,2.6634,2.6087,2.7015,2.7931,2.8362,0.0,0.0,3.1494,3.1901,3.2497,3.3524,3.3027,3.3143,3.4203,3.4667,3.4899,3.4899,3.4899,3.4899,3.4899,3.5214,3.5578,3.6009,3.6286,3.68,3.7616,3.7621,3.781,3.8197,3.7895,3.7531,3.7175,3.7354,3.6951,3.6383,3.6951,3.731,3.7429,3.7429,3.7131,3.6845,3.6845,3.66,3.6258,3.5973,3.5748,3.5504,3.5359,3.5294,3.5148,3.4949,3.4831,3.4698,3.4563,3.4481,3.4414,3.4414,3.4045,3.3673,3.3673,3.3673,3.3589,3.3171,3.3381,3.3673,3.3548,3.3991,3.4414,3.4414,3.4414,3.3756,3.1955,3.175,3.1955,3.2533,3.2889,3.2946,3.2577,3.2577,3.2218,3.1476,3.1415,3.1057,3.0266,3.0683,3.0833,3.0797,3.0419,3.0279,3.0279,3.0279,3.0432,3.0797,3.0833,3.0758,2.3414,2.3754,2.3994,0.0,0.0,0.0,0.0,0.0,0.0,0.0,0.0,0.0,0.0,0.0,2.4873,2.4121,0.0,2.6623,2.5541,2.6137,2.6882,0.0,0.0,0.0,0.0,3.0841,3.1106,3.2017,0.0,3.2083,3.3425,3.4005,3.4468,3.4883,3.4899,3.4899,3.4899,3.4739,3.4971,3.5498,3.5075,3.554,3.6676,3.6476,3.6764,3.737,3.7191,3.6845,3.643,3.6723,3.6321,3.5569,3.5958,3.643,3.6906,3.6906,3.6554,3.6133,3.6133,3.5846,3.5504,3.5439,3.5439,3.5359,3.5148,3.5082,3.4949,3.4534,3.4332,3.4182,3.3825,3.3756,3.3825,3.4045,3.3451,3.2932,3.3143,3.3003,3.2791,3.2376,3.2506,3.2519,3.2114,3.3339,3.4414,3.4414,3.3687,3.2318,3.0088,2.9792,3.0228,3.122,3.1649,3.1856,3.1783,3.1783,3.1415,3.062,3.062,3.0343,2.9792,3.0343,3.0343,2.9792,2.9792,2.9792,2.9792,2.9792,2.9792,2.9792,3.0343,3.0343,0.0,0.0,0.0,2.1556,0.0,0.0,0.0,0.0,2.1967,0.0,0.0,0.0,0.0,2.5639,2.6073,2.5786,2.6023,0.0,0.0,2.5607,2.5193,2.5209,2.7114,0.0,0.0,2.887,2.9069,0.0,2.9301,0.0,3.2564,3.2746,3.3408,3.4849,3.4899,3.4899,3.4899,3.4399,3.4167,3.4133,3.4261,3.4675,3.5387,3.6068,3.6764,3.737,3.6723,3.643,3.6368,3.5797,3.5569,3.5504,3.5504,3.5569,3.5554,3.5554,3.5569,3.5504,3.5504,3.5504,3.5439,3.5294,3.5213,3.5148,3.5001,3.4817,3.4549,3.3728,3.3437,3.3073,3.2362,3.2146,3.2362,3.3073,3.2648,3.2362,3.3073,3.2648,3.2304,3.2761,3.2028,3.1084,3.0075,3.239,3.4414,3.4414,3.1896,2.9934,2.9792,2.9792,3.0228,3.122,3.1294,3.1206,3.097,3.097,3.062,2.9856,2.9869,2.9792,2.9792,2.9792,2.9792,2.9792,2.9792,2.9792,2.9792,2.9792,2.9792,2.9792,2.9792,2.9792,0.0,0.0,2.4037,2.2128,0.0,0.0,0.0,0.0,0.0,0.0,0.0,0.0,0.0,2.4551,2.4952,2.4946,2.5163,2.5003,0.0,2.4002,2.4079,2.4147,2.6231,2.7781,2.7976,0.0,0.0,2.8568,2.8385,0.0,0.0,3.1661,3.2789,3.3695,3.3743,3.3951,3.4349,3.3799,3.3527,3.3475,3.3199,3.3395,3.4038,3.437,3.4881,3.5477,3.5713,3.5797,3.5797,3.5554,3.5504,3.5504,3.5504,3.5504,3.5504,3.5504,3.5504,3.5504,3.5359,3.4868,3.4356,3.4288,3.3919,3.3463,3.3255,3.3129,3.3073,3.2648,3.2506,3.2434,3.2146,3.2074,3.2146,3.2434,3.1842,3.1402,3.1623,3.1476,3.1206,3.0872,3.0934,3.0771,2.9934,3.0659,3.1381,3.1381,3.0444,2.9792,2.9792,2.9792,2.9934,3.0292,3.0292,3.0292,3.0216,3.0203,3.0075,2.9792,2.9792,2.9792,2.9792,2.9792,2.9792,2.9792,2.9792,2.9792,2.9792,2.9792,2.9792,2.9792,2.9792,2.9792,2.4195,2.4465,0.0,2.2961,2.2922,0.0,2.1125,0.0,1.9839,0.0,0.0,0.0,0.0,0.0,2.406,2.439,2.4645,2.4375,0.0,2.3528,2.3827,2.3661,2.5553,2.6809,2.6606,2.6157,2.6096,2.6647,2.6866,2.749,0.0,0.0,3.1849,3.2756,3.3042,3.3407,3.3764,3.3214,3.2895,3.2895,3.2327,3.2414,3.3084,3.3367,3.3858,3.4517,3.5205,3.5504,3.5504,3.5504,3.5504,3.5439,3.5198,3.5052,3.4986,3.5279,3.5148,3.4854,3.4423,3.3851,3.3339,3.3269,3.2904,3.2464,3.2263,3.2263,3.2119,3.1769,3.1709,3.1636,3.1368,3.1294,3.1368,3.1636,3.1057,3.0545,3.082,3.0683,3.0343,2.9856,3.0203,3.0343,2.9856,2.9792,2.9792,2.9792,2.9792,2.9792,2.9792,2.9792,2.9792,2.9792,2.9792,2.9792,2.9792,2.9792,2.9792,2.9792,2.9792,2.9792,2.9792,2.9792,2.9792,2.9792,2.9792,2.9792,2.9792,2.9792,2.9792,2.9792,2.9702,2.9689]},{"header":{"parameterUnit":"m.s-1","parameterCategory":1,"la1":30.6,"la2":29.2853,"lo1":-89.7004,"lo2":-87.6739,"dy":0.0162,"dx":0.0183,"nx":112,"ny":82,"refTime":"2025-09-08T12:00:00:Z","depth":0,"parameterNumber":3,"parameterNumberName":"V-component_of_WINDS"},"data":[0.0,0.0,0.0,0.0,0.0,0.0,0.0,0.0,0.0,0.0,0.0,0.0,0.0,0.0,0.0,0.0,0.0,0.0,0.0,0.0,0.0,0.0,0.0,0.0,0.0,0.0,0.0,0.0,0.0,0.0,0.0,0.0,0.0,0.0,0.0,0.0,0.0,0.0,0.0,0.0,0.0,0.0,0.0,0.0,0.0,0.0,0.0,0.0,0.0,0.0,0.0,0.0,0.0,0.0,0.0,0.0,0.0,0.0,0.0,0.0,0.0,0.0,0.0,0.0,0.0,0.0,0.0,0.0,0.0,0.0,0.0,0.0,0.0,0.0,0.0,0.0,0.0,0.0,0.0,0.0,0.0,0.0,0.0,0.0,0.0,0.0,0.0,0.0,0.0,0.0,1.4274,1.504,1.5957,1.6522,1.6522,1.6522,1.6021,1.4836,0.0,0.0,0.0,0.0,0.0,0.0,0.0,0.0,0.0,0.0,0.0,0.0,0.0,0.0,0.0,0.0,0.0,0.0,0.0,0.0,0.0,0.0,0.0,0.0,0.0,0.0,0.0,0.0,0.0,0.0,0.0,0.0,0.0,0.0,0.0,0.0,0.0,0.0,0.0,0.0,0.0,0.0,0.0,0.0,0.0,0.0,0.0,0.0,0.0,0.0,0.0,0.0,0.0,0.0,0.0,0.0,0.0,0.0,0.0,0.0,0.0,0.0,0.0,0.0,0.0,0.0,0.0,0.0,0.0,0.0,0.0,0.0,0.0,0.0,0.0,0.0,0.0,0.0,0.0,0.0,0.0,0.0,0.0,0.0,0.0,0.0,0.0,0.0,0.0,0.0,0.0,0.0,0.0,0.0,0.0,0.0,0.0,0.0,0.0,0.0,0.0,0.0,0.0,0.0,1.4074,1.6057,1.6421,1.6522,1.6522,1.6522,1.6103,1.5184,0.0,0.0,0.0,0.0,0.0,0.0,0.0,0.0,0.0,0.0,0.0,0.0,0.0,0.0,0.0,0.0,0.0,0.0,0.0,0.0,0.0,0.0,0.0,0.0,0.0,0.0,0.0,0.0,0.0,0.0,0.0,0.0,0.0,0.0,0.0,0.0,0.0,0.0,0.0,0.0,0.0,0.0,0.0,0.0,0.0,0.0,0.0,0.0,0.0,0.0,0.0,0.0,0.0,0.0,0.0,0.0,0.0,0.0,0.0,0.0,0.0,0.0,0.0,0.0,0.0,0.0,0.0,0.0,0.0,0.0,0.0,0.0,0.0,0.0,0.0,0.0,0.0,0.0,0.0,0.0,0.0,0.0,0.0,0.0,0.0,0.0,0.0,0.0,0.0,0.0,0.0,0.0,0.0,0.0,0.0,0.0,0.0,0.0,0.0,0.0,0.0,0.0,0.0,1.4149,1.4739,1.6346,1.6522,1.6522,1.6522,1.6522,1.614,1.5274,1.4549,0.0,0.0,0.0,0.0,0.0,0.0,0.0,0.0,0.0,0.0,0.0,0.0,0.0,0.0,0.0,0.0,0.0,0.0,0.0,0.0,0.0,0.0,0.0,0.0,0.0,0.0,0.0,0.0,0.0,0.0,0.0,0.0,0.0,0.0,0.0,0.0,0.0,0.0,0.0,0.0,0.0,0.0,0.0,0.0,0.0,0.0,0.0,0.0,0.0,0.0,0.0,0.0,0.0,0.0,0.0,0.0,0.0,0.0,0.0,0.0,0.0,0.0,0.0,0.0,0.0,0.0,0.0,0.0,0.0,0.0,0.0,0.0,0.0,0.0,0.0,0.0,0.0,0.0,0.0,0.0,0.0,0.0,0.0,0.0,0.0,0.0,0.0,0.0,0.0,0.0,0.0,0.0,0.0,0.0,0.0,0.0,0.0,0.0,0.0,0.0,0.0,0.0,1.5279,1.558,1.6421,1.6522,1.6522,1.6522,1.6396,1.6002,1.5274,1.4396,0.0,0.0,0.0,0.0,0.0,0.0,0.0,0.0,0.0,0.0,0.0,0.0,0.0,0.0,0.0,0.0,0.0,0.0,0.0,0.0,0.0,0.0,0.0,0.0,0.0,0.0,0.0,0.0,0.0,0.0,0.0,0.0,0.0,0.0,0.0,0.0,0.0,0.0,0.0,0.0,0.0,0.0,0.0,0.0,0.0,0.0,0.0,0.0,0.0,0.0,0.0,0.0,0.0,0.0,0.0,0.0,0.0,0.0,0.0,0.0,0.0,0.0,0.0,0.0,0.0,0.0,0.0,0.0,0.0,0.0,0.0,0.0,0.0,0.0,0.0,0.0,0.0,0.0,0.0,0.0,0.0,0.0,0.0,0.0,0.0,0.0,0.0,0.0,0.0,0.0,0.0,0.0,0.0,0.0,0.0,0.0,0.0,0.0,0.0,0.0,0.0,0.0,1.548,1.6434,1.6509,1.6522,1.6522,1.6522,1.6045,1.5585,1.5197,1.3859,0.0,0.0,0.0,0.0,0.0,0.0,0.0,0.0,0.0,0.0,0.0,0.0,0.0,0.0,0.0,0.0,0.0,0.0,0.0,0.0,0.0,0.0,0.0,0.0,0.0,0.0,0.0,0.0,0.0,0.0,0.0,0.0,0.0,0.0,0.0,0.0,0.0,0.0,0.0,0.0,0.0,0.0,0.0,0.0,0.0,0.0,0.0,0.0,0.0,0.0,0.0,0.0,0.0,0.0,0.0,0.0,0.0,0.0,0.0,0.0,0.0,0.0,0.0,0.0,0.0,0.0,0.0,0.0,0.0,0.0,0.0,0.0,0.0,0.0,0.0,0.0,0.0,0.0,0.0,0.0,0.0,0.0,0.0,0.0,0.0,0.0,0.0,0.0,0.0,0.0,0.0,0.0,0.0,0.0,0.0,0.0,0.0,0.0,0.0,0.0,0.0,0.0,1.5404,1.6132,1.6441,1.6522,1.6522,1.6522,1.6321,1.5762,1.4699,0.0,0.0,0.0,0.0,0.0,0.0,0.0,0.0,0.0,0.0,0.0,0.0,0.0,0.0,0.0,0.0,0.0,0.0,0.0,0.0,0.0,0.0,0.0,0.0,0.0,0.0,0.0,0.0,0.0,0.0,0.0,0.0,0.0,0.0,0.0,0.0,0.0,0.0,0.0,0.0,0.0,0.0,0.0,0.0,0.0,0.0,0.0,0.0,0.0,0.0,0.0,0.0,0.0,0.0,0.0,0.0,0.0,0.0,0.0,0.0,0.0,0.0,0.0,0.0,0.0,0.0,0.0,0.0,0.0,0.0,0.0,0.0,0.0,0.0,0.0,0.0,0.0,0.0,0.0,0.0,0.0,0.0,0.0,0.0,0.0,0.0,0.0,0.0,0.0,0.0,0.0,0.0,0.0,0.0,0.0,0.0,0.0,0.0,0.0,0.0,0.0,0.0,1.4727,1.5505,1.6095,1.6471,1.6522,1.6522,1.6522,1.6358,1.5658,1.4343,0.0,0.0,0.0,0.0,0.0,0.0,0.0,0.0,0.0,0.0,0.0,0.0,0.0,0.0,0.0,0.0,0.0,0.0,0.0,0.0,0.0,0.0,0.0,0.0,0.0,0.0,0.0,0.0,0.0,0.0,0.0,0.0,0.0,0.0,0.0,0.0,0.0,0.0,0.0,0.0,0.0,0.0,0.0,0.0,0.0,0.0,0.0,0.0,0.0,0.0,0.0,0.0,0.0,0.0,0.0,0.0,0.0,0.0,0.0,0.0,0.0,0.0,0.0,0.0,0.0,0.0,0.0,0.0,0.0,0.0,0.0,0.0,0.0,0.0,0.0,0.0,0.0,0.0,0.0,0.0,0.0,0.0,0.0,0.0,0.0,0.0,0.0,0.0,0.0,0.0,0.0,0.0,0.0,0.0,0.0,0.0,0.0,0.0,0.0,0.0,0.0,0.0,1.4726,1.5831,1.6522,1.6522,1.6522,1.6522,1.6522,1.6019,1.5255,0.0,0.0,0.0,0.0,0.0,0.0,0.0,0.0,0.0,0.0,0.0,0.0,0.0,0.0,0.0,0.0,0.0,0.0,0.0,0.0,0.0,0.0,0.0,0.0,0.0,0.0,0.0,0.0,0.0,0.0,0.0,0.0,0.0,0.0,0.0,0.0,0.0,0.0,0.0,0.0,0.0,0.0,0.0,0.0,0.0,0.0,0.0,0.0,0.0,0.0,0.0,0.0,0.0,0.0,0.0,0.0,0.0,0.0,0.0,0.0,0.0,0.0,0.0,0.0,0.0,0.0,0.0,0.0,0.0,0.0,0.0,0.0,0.0,0.0,0.0,0.0,0.0,0.0,0.0,0.0,0.0,0.0,0.0,0.0,0.0,0.0,0.0,0.0,0.0,0.0,0.0,0.0,0.0,0.0,0.0,0.0,0.0,0.0,0.0,0.0,0.0,0.0,0.0,1.4391,1.5666,1.6522,1.6522,1.6522,1.6522,1.6522,1.6371,1.5467,1.369,0.0,0.0,0.0,0.0,0.0,0.0,0.0,0.0,0.0,0.0,0.0,0.0,0.0,0.0,0.0,0.0,0.0,0.0,0.0,0.0,0.0,0.0,0.0,0.0,0.0,0.0,0.0,0.0,0.0,0.0,0.0,0.0,0.0,0.0,0.0,0.0,0.0,0.0,0.0,0.0,0.0,0.0,0.0,0.0,0.0,0.0,0.0,0.0,0.0,0.0,0.0,0.0,0.0,0.0,0.0,0.0,0.0,0.0,0.0,0.0,0.0,0.0,0.0,0.0,0.0,0.0,0.0,0.0,0.0,0.0,0.0,0.0,0.0,0.0,0.0,0.0,0.0,0.0,0.0,0.0,0.0,0.0,0.0,0.0,0.0,0.0,0.0,0.0,0.0,0.0,0.0,0.0,0.0,0.0,0.0,0.0,0.0,0.0,0.0,0.0,0.0,0.0,1.4196,1.5595,1.6522,1.6522,1.6522,1.6522,1.6522,1.6522,1.5668,1.3755,0.0,0.0,0.0,0.0,0.0,0.0,0.0,0.0,0.0,0.0,0.0,0.0,0.0,0.0,0.0,0.0,0.0,0.0,0.0,0.0,0.0,0.0,0.0,0.0,0.0,0.0,0.0,0.0,0.0,0.0,0.0,0.0,0.0,0.0,0.0,0.0,0.0,0.0,0.0,0.0,0.0,0.0,0.0,0.0,0.0,0.0,0.0,0.0,0.0,0.0,0.0,0.0,0.0,0.0,0.0,0.0,0.0,0.0,0.0,0.0,0.0,0.0,0.0,0.0,0.0,0.0,0.0,0.0,0.0,0.0,0.0,0.0,0.0,0.0,0.0,0.0,0.0,0.0,0.0,0.0,0.0,0.0,0.0,0.0,0.0,0.0,0.0,0.0,0.0,0.0,0.0,0.0,0.0,0.0,0.0,0.0,0.0,0.0,0.0,0.0,0.0,0.0,1.4117,1.5541,1.6522,1.6522,1.6522,1.6522,1.6522,1.6522,1.5831,1.4261,0.0,0.0,0.0,0.0,0.0,0.0,0.0,0.0,0.0,0.0,0.0,0.0,0.0,0.0,0.0,0.0,0.0,0.0,0.0,0.0,0.0,0.0,0.0,0.0,0.0,0.0,0.0,0.0,0.0,0.0,0.0,0.0,0.0,0.0,0.0,0.0,0.0,0.0,0.0,0.0,0.0,0.0,0.0,0.0,0.0,0.0,0.0,0.0,0.0,0.0,0.0,0.0,0.0,0.0,0.0,0.0,0.0,0.0,0.0,0.0,0.5353,0.0,0.0,0.0,0.0,0.0,0.0,0.0,0.0,0.0,0.0,0.0,0.0,0.0,0.0,0.0,0.0,0.0,0.0,0.0,0.0,0.0,0.0,0.0,0.0,0.0,0.0,0.0,0.0,0.0,0.0,0.0,0.0,0.0,0.0,0.0,0.0,0.0,0.0,0.0,0.0,0.0,1.3783,1.5404,1.6522,1.6522,1.6522,1.6522,1.6522,1.6522,1.5994,1.4815,1.4417,0.0,0.0,0.0,0.0,0.0,0.0,0.0,0.0,0.0,0.0,0.0,0.0,0.0,0.0,0.0,0.0,0.0,0.0,0.0,0.0,0.0,0.0,0.0,0.0,0.0,0.0,0.0,0.0,0.0,0.0,0.0,0.0,0.0,0.0,0.0,0.0,0.0,0.0,0.0,0.0,0.0,0.0,0.0,0.0,0.0,0.0,0.0,0.0,0.0,0.0,0.0,0.0,0.0,0.0,0.0,0.0,0.0,0.0,0.0,0.0,0.6602,0.0,0.0,0.0,0.0,0.0,0.0,0.0,0.0,0.0,0.0,0.0,0.0,0.0,0.0,0.0,0.0,0.0,0.0,0.0,0.0,0.0,0.0,0.0,0.0,0.0,0.0,0.0,0.0,0.0,0.0,0.0,0.0,0.0,0.0,0.0,0.0,0.0,0.0,0.0,0.0,1.3674,1.5362,1.6522,1.6522,1.6522,1.6522,1.6522,1.6522,1.6158,1.5356,1.4892,0.0,0.0,0.0,0.0,0.0,0.0,0.0,0.0,0.0,0.0,0.0,0.0,0.0,0.0,0.0,0.0,0.0,0.0,0.0,0.0,0.0,0.0,0.0,0.0,0.0,0.0,0.0,0.0,0.0,0.0,0.0,0.0,0.0,0.0,0.0,0.0,0.0,0.0,0.0,0.0,0.0,0.0,0.0,0.0,0.0,0.0,0.0,0.0,0.0,0.0,0.0,0.0,0.0,0.688,0.722,0.7423,0.7505,0.7931,0.8514,0.8327,0.8337,0.8497,0.8028,0.0,0.0,0.0,0.0,0.0,0.0,0.0,0.0,0.0,0.0,0.0,0.0,0.0,0.0,0.0,0.0,0.0,0.0,0.0,0.0,0.0,0.0,0.0,0.0,1.3006,1.3232,0.0,0.0,0.0,0.0,0.0,0.0,0.0,0.0,0.0,0.0,0.0,0.0,1.3773,1.538,1.6522,1.6522,1.6522,1.6522,1.6522,1.6522,1.6321,1.5869,1.5329,1.4917,0.0,0.0,0.0,0.0,0.0,0.0,0.0,0.0,0.0,0.0,0.0,0.0,0.0,0.0,0.0,0.0,0.0,0.0,0.0,0.0,0.0,0.0,0.0,0.0,0.0,0.0,0.0,0.0,0.0,0.0,0.0,0.0,0.2941,0.3196,0.0,0.0,0.0,0.0,0.0,0.0,0.0,0.0,0.0,0.0,0.0,0.0,0.0,0.3951,0.4396,0.5336,0.5776,0.5933,0.6988,0.7455,0.7438,0.8379,0.8974,0.9195,0.999,0.0,0.9133,0.8663,0.0,0.0,0.0,0.0,0.0,0.0,0.0,0.0,0.0,0.0,0.0,0.0,0.0,0.0,0.0,0.0,0.0,0.0,0.0,0.0,0.0,0.0,1.3575,1.3791,1.3912,1.3941,0.0,1.2842,1.2122,1.2238,1.1659,0.0,0.0,0.0,0.0,0.0,0.0,0.0,1.4263,1.5611,1.6522,1.6522,1.6522,1.6522,1.6522,1.6522,1.6484,1.6409,1.5894,1.5555,1.552,1.4487,0.0,0.0,0.0,0.0,0.0,0.0,0.0,0.0,0.0,0.0,0.0,0.0,0.0,0.0,0.0,0.0,0.0,0.0,0.0,0.0,0.0,0.0,0.0,0.0,0.0,0.0,0.0,0.0,0.0,0.2924,0.3289,0.3324,0.3409,0.3349,0.0,0.0,0.0,0.0,0.0,0.0,0.0,0.0,0.0,0.4414,0.4628,0.499,0.5638,0.6403,0.72,0.8147,0.8835,0.9459,0.9926,1.0458,1.0749,1.0775,1.1165,1.1121,1.0664,0.9781,0.9227,0.8759,0.0,0.0,0.0,0.0,0.9073,0.9285,1.085,1.1498,0.0,1.1576,0.0,0.0,0.0,0.0,0.0,0.0,0.0,0.0,0.0,0.0,1.482,1.5061,1.5362,1.5527,1.5273,1.459,1.3861,0.0,1.2676,1.2193,1.2215,0.0,0.0,0.0,0.0,1.4598,1.4829,1.6377,1.7463,1.7463,1.7463,1.7463,1.7463,1.7187,1.6999,1.6999,1.6471,1.6158,1.6158,1.5392,1.4866,0.0,0.0,0.0,0.0,0.0,0.0,0.0,0.0,0.0,0.0,0.0,0.0,0.0,0.0,0.0,0.0,0.0,0.0,0.0,0.0,0.0,0.0,0.0,0.0,0.0,0.0,0.0,0.0,0.3251,0.357,0.3484,0.377,0.3814,0.0,0.0,0.0,0.0,0.0,0.0,0.4351,0.4433,0.4646,0.5014,0.5323,0.5827,0.6508,0.6958,0.7926,0.9401,0.9717,1.0363,1.1267,1.1513,1.1594,1.1594,1.184,1.192,1.186,1.0849,1.0266,0.9994,0.9612,0.9406,0.9419,1.0464,1.077,1.1002,1.2871,1.3453,1.338,1.3199,0.0,1.3405,1.2379,0.0,0.0,0.0,0.0,1.3941,1.4419,1.5207,1.5871,1.6075,1.6379,1.6641,1.6309,1.5977,1.5371,0.0,1.369,1.3381,1.3253,0.0,0.0,0.0,0.0,1.5418,1.5545,1.7107,1.8204,1.8204,1.8204,1.8204,1.8204,1.7827,1.7539,1.7388,1.6974,1.6672,1.6522,1.612,1.5737,1.5428,0.0,0.0,0.0,0.0,0.0,0.0,0.0,0.0,0.0,0.0,0.0,0.0,0.0,0.0,0.0,0.0,0.0,0.0,0.0,0.0,0.0,0.0,0.0,0.0,0.0,0.0,0.0,0.0,0.0,0.3773,0.4185,0.0,0.0,0.0,0.0,0.4137,0.4252,0.4628,0.5316,0.5256,0.5533,0.6193,0.5956,0.6012,0.6388,0.641,0.6912,0.7893,0.8151,0.8733,0.9639,1.0369,1.0778,1.0778,1.1594,1.192,1.1902,1.1594,1.1235,1.081,1.0556,1.0231,1.0031,1.1269,1.1547,1.1546,1.35,1.3966,1.3882,1.5009,1.5336,1.5213,1.496,1.4629,0.0,0.0,1.4819,1.5308,1.551,1.5976,1.65,1.6636,1.6655,1.6665,1.6636,1.668,1.6279,0.0,1.469,1.4538,1.4675,0.0,1.4355,1.479,1.5438,1.6053,1.6489,1.7509,1.8204,1.8204,1.8204,1.8204,1.8204,1.8179,1.794,1.7413,1.735,1.7087,1.6547,1.6497,1.622,1.5709,1.5441,0.0,0.0,0.0,0.0,0.0,0.0,0.0,0.0,0.0,0.0,0.0,0.0,0.0,0.0,0.0,0.0,0.0,0.0,0.0,0.0,0.0,0.0,0.0,0.0,0.0,0.0,0.0,0.0,0.4394,0.4668,0.0,0.4556,0.4659,0.4797,0.5073,0.5205,0.5475,0.5917,0.5902,0.6018,0.637,0.6427,0.6723,0.7506,0.7617,0.8422,0.9922,1.0065,1.0642,1.1573,1.183,1.1997,1.1997,1.2254,1.2421,1.2415,1.2324,1.1948,1.1552,1.1456,1.1284,1.1282,1.2285,1.2934,1.345,1.4684,1.5397,1.5766,1.5711,1.5668,1.5539,1.5221,1.5196,1.5267,1.5267,1.5624,1.6002,1.6197,1.6703,1.7159,1.734,1.7416,1.748,1.7207,1.7148,1.6934,1.6243,1.5644,1.5375,1.5487,1.5042,1.4697,1.4976,1.5706,1.6508,1.7037,1.804,1.8843,1.9183,1.9233,1.9233,1.9233,1.8932,1.8505,1.7953,1.7576,1.7124,1.6547,1.6522,1.6421,1.6233,1.6031,1.541,0.0,0.0,0.0,0.0,0.0,0.0,0.0,0.0,0.0,0.0,0.0,0.0,0.0,0.0,0.0,0.0,0.0,0.0,0.0,0.0,0.0,0.0,0.0,0.0,0.0,0.433,0.4684,0.4804,0.5133,0.5265,0.5114,0.5337,0.5558,0.5806,0.594,0.6103,0.638,0.644,0.6509,0.6602,0.7073,0.7601,0.8266,0.8636,0.9634,1.1174,1.1246,1.1757,1.2705,1.2705,1.2705,1.2705,1.2705,1.2759,1.2837,1.2741,1.2608,1.2439,1.2258,1.2186,1.2267,1.3063,1.3721,1.4245,1.5235,1.6049,1.6598,1.6409,1.6422,1.6507,1.6255,1.6211,1.6303,1.6303,1.6471,1.6649,1.6852,1.7252,1.7588,1.7784,1.793,1.7939,1.7656,1.7598,1.751,1.7217,1.6589,1.6178,1.6238,1.579,1.5406,1.5461,1.6178,1.6916,1.7482,1.8431,1.9198,1.9747,1.9798,1.9798,1.9798,1.9334,1.8794,1.8242,1.7689,1.7124,1.6547,1.6522,1.6522,1.6522,1.6449,1.5954,1.4944,0.0,0.0,0.0,0.0,0.0,0.0,0.0,0.0,0.0,0.0,0.0,0.0,0.0,0.0,0.0,0.0,0.0,0.0,0.0,0.0,0.0,0.0,0.0,0.438,0.4485,0.4748,0.5086,0.5498,0.567,0.5529,0.593,0.6254,0.6254,0.6378,0.6542,0.6722,0.6858,0.6939,0.6943,0.7941,0.8456,0.8544,0.9405,1.0366,1.1338,1.1338,1.186,1.2729,1.2729,1.2729,1.2729,1.2729,1.2886,1.3115,1.2843,1.3037,1.3465,1.2922,1.2717,1.2802,1.3639,1.3785,1.373,1.5101,1.5843,1.6294,1.7229,1.7764,1.8063,1.8053,1.7834,1.7513,1.7513,1.737,1.7273,1.7439,1.7617,1.7725,1.7959,1.8018,1.8008,1.8008,1.8008,1.8008,1.8008,1.7465,1.701,1.7001,1.6757,1.6518,1.6528,1.6838,0.0,1.7843,1.853,1.9182,1.972,1.9772,1.9759,1.9747,1.9283,1.8758,1.8242,1.7702,1.7149,1.6572,1.6547,1.6547,1.6547,1.6757,1.6599,1.6064,0.0,0.0,0.0,0.0,0.0,0.0,0.0,0.0,0.0,0.0,0.0,0.0,0.0,0.0,0.0,0.0,0.0,0.0,0.0,0.0,0.0,0.4988,0.543,0.5232,0.5457,0.5749,0.6036,0.6156,0.6267,0.6354,0.644,0.6548,0.6719,0.685,0.6981,0.718,0.7119,0.7132,0.7244,0.7443,0.8101,0.9492,0.9749,1.0794,1.2569,1.2569,1.2839,1.329,1.329,1.329,1.329,1.329,1.3338,1.3399,1.3326,1.3381,1.3483,1.3139,1.3006,1.3006,1.3268,1.3592,1.3991,1.5071,1.5531,1.5728,1.6521,1.6907,1.7167,1.7734,1.7888,1.7954,1.7954,1.7871,1.7861,1.7934,1.7999,1.7976,1.8046,1.8025,1.8008,1.8008,1.8008,1.8008,1.8008,1.7812,1.7691,1.7646,1.7405,1.7236,1.7359,1.7429,0.0,1.832,1.8555,1.8816,1.9069,1.8943,1.8967,1.9223,1.8936,1.8617,1.8207,1.8066,1.7727,1.7162,1.7149,1.7149,1.7149,1.6799,1.6846,0.0,0.0,0.0,0.0,0.0,0.0,0.0,0.0,0.0,0.0,0.0,0.0,0.0,0.0,0.0,0.0,0.0,0.0,0.0,0.0,0.0,0.0,0.5503,0.5912,0.6089,0.6089,0.625,0.6627,0.6569,0.6561,0.6878,0.6791,0.6867,0.7109,0.719,0.7278,0.7366,0.7346,0.7343,0.737,0.7702,0.8669,1.0182,1.0543,1.1599,1.329,1.329,1.3369,1.3513,1.3513,1.3513,1.3513,1.3513,1.3574,1.367,1.3562,1.3646,0.0,0.0,0.0,0.0,0.0,1.328,1.3709,1.451,1.4887,1.5101,1.5975,1.6629,1.7225,1.7726,1.8105,1.8366,1.8366,1.8256,1.8119,1.8332,1.8375,1.8404,1.8557,1.8579,1.8496,1.8311,1.8271,1.8223,1.8047,1.8008,0.0,1.8085,1.774,1.7513,1.7577,1.7478,1.7585,1.8169,1.8351,1.8654,1.931,1.9252,1.9338,1.9682,1.9348,0.0,0.0,0.0,1.8066,1.7739,1.7727,0.0,0.0,0.0,0.0,0.0,0.0,0.0,0.0,1.9724,1.9965,0.0,0.0,0.0,0.0,0.0,0.0,0.0,0.0,0.0,0.0,0.0,0.0,0.0,0.0,0.0,0.0,0.6,0.6318,0.6854,0.6546,0.649,0.6837,0.6777,0.6737,0.7037,0.7156,0.7224,0.736,0.7387,0.7404,0.7421,0.0,0.0,0.0,0.0,0.9444,1.0551,1.1385,1.2323,1.3562,1.3562,1.3574,1.3604,1.3604,1.3604,1.3604,1.3604,1.3737,1.393,1.3701,1.3876,1.425,1.3755,1.3562,1.3525,1.3266,1.3169,1.3215,1.3728,0.0,0.0,1.5514,1.6632,1.7577,1.7827,1.8329,1.8779,1.8779,1.8522,1.8331,1.8676,1.8786,1.8832,1.9209,1.9326,1.918,1.8799,1.8672,1.8455,1.8154,1.8047,1.8076,1.8269,1.7829,1.7517,1.7517,1.7313,1.7362,1.7833,1.8009,1.8592,1.9795,0.0,0.0,2.0519,2.0064,1.9554,1.9196,1.8756,1.848,1.848,1.8543,1.8543,1.848,1.8836,1.9305,1.9895,2.093,2.165,2.2122,2.1627,2.1478,0.0,0.0,0.0,0.0,0.0,0.0,0.0,0.0,0.0,0.0,0.0,0.0,0.0,0.0,0.0,0.5942,0.6417,0.6793,0.6912,0.689,0.6947,0.7092,0.7011,0.7021,0.7136,0.7255,0.7339,0.737,0.7485,0.7604,0.7719,0.7645,0.7638,0.7723,0.783,0.8707,1.0546,1.0736,1.1847,1.3833,0.0,0.0,1.4147,1.4147,1.4147,1.4147,1.4147,1.4171,1.422,1.4165,1.4208,1.4262,1.3954,1.3833,1.3797,1.3538,1.3441,1.3429,1.3554,1.3477,1.3554,1.4661,1.5661,1.6495,1.7496,1.8426,0.0,1.9191,1.9127,1.9072,1.9141,1.9142,1.9212,1.9288,1.9319,1.9268,1.918,1.8887,1.8613,1.8525,1.8242,1.8008,1.8076,1.8075,1.815,1.8285,1.8215,1.8221,1.8354,1.842,1.841,1.8363,1.8173,1.852,1.9459,1.9333,1.9535,2.0323,2.025,2.024,2.024,2.0614,2.0639,2.02,2.0292,2.0591,2.1081,2.1288,2.1887,2.2845,2.3315,2.3493,0.0,0.0,0.0,0.0,0.0,0.0,0.0,0.0,0.0,0.0,0.0,0.5325,0.5549,0.0,0.6129,0.643,0.6732,0.6953,0.7024,0.7095,0.7139,0.7139,0.7139,0.7139,0.7139,0.7282,0.7404,0.7482,0.7624,0.7736,0.7807,0.7818,0.7818,0.7811,0.7818,0.8771,1.0863,1.0863,1.1962,1.4099,1.4099,1.4171,1.4298,1.4298,1.4298,1.4298,1.4298,1.4298,1.4298,1.4298,1.4298,1.4286,1.4153,1.4099,1.4069,1.3809,1.3713,1.3688,1.3562,1.3429,1.3493,1.4798,1.5698,1.6437,1.7779,1.8726,1.9301,1.9301,1.9301,1.9301,1.939,1.9556,1.9639,1.9802,1.986,1.9863,1.9648,1.9434,1.915,1.865,1.8467,1.8252,1.8047,1.8076,1.8144,1.8212,1.8279,1.8279,1.8279,1.8279,1.8325,1.8557,1.8582,1.8881,1.9614,1.9734,2.0143,2.0914,2.1011,2.1079,2.1079,2.1343,2.1355,2.1091,2.1079,2.1369,2.1856,2.2137,2.2829,2.3957,2.4576,2.4914,0.0,0.0,0.0,0.0,0.0,0.0,0.0,0.4902,0.5189,0.5521,0.5698,0.5908,0.624,0.6349,0.6508,0.6871,0.6953,0.701,0.7126,0.7139,0.7139,0.7139,0.7139,0.7153,0.7183,0.7326,0.7478,0.7631,0.7773,0.7855,0.7855,0.7974,0.7984,0.7858,0.7974,0.8924,1.0877,1.1077,1.215,1.4004,1.4196,1.4298,1.4298,1.4298,1.4298,1.4298,1.4298,1.4298,1.4298,1.4298,1.4298,1.4298,1.4298,1.4298,1.4268,1.4057,1.3978,1.3954,1.3743,1.3634,1.3768,1.4927,1.5775,1.645,1.7576,1.8357,1.8905,1.8993,1.9054,1.9054,1.9231,1.9548,1.9863,1.9942,2.0167,2.0391,2.0041,1.9905,1.9642,1.8942,1.8818,1.8652,1.832,1.8262,1.8203,1.8037,1.8008,1.8008,1.8008,1.8008,1.8269,1.8977,1.9177,1.9468,1.9894,2.0377,2.0758,2.1153,2.144,2.1624,2.1567,2.175,2.1857,2.1913,2.1983,2.2246,2.2799,2.3251,2.3936,2.4861,2.5439,2.5882,0.369,0.3471,0.3753,0.4574,0.4621,0.476,0.0,0.602,0.5997,0.6315,0.6471,0.6549,0.6464,0.6671,0.6871,0.6919,0.7034,0.7122,0.7139,0.7139,0.7139,0.7139,0.7139,0.7193,0.7333,0.7485,0.7634,0.7777,0.7929,0.8014,0.8014,0.8031,0.8031,0.8014,0.8031,0.8531,0.9805,1.0681,1.1755,1.2926,1.3806,1.4298,1.4298,1.4298,1.4298,1.4298,1.4298,1.4298,1.4298,1.4298,1.4298,1.4298,1.4298,1.4298,1.4292,1.4262,1.4256,1.425,1.422,1.4057,1.3857,1.4043,1.476,1.562,1.5497,1.6329,1.7422,1.8002,1.8158,1.8158,1.8158,1.8895,1.9469,1.8709,1.9283,2.001,2.0207,1.9889,1.9667,1.972,1.9473,1.9199,1.915,1.9141,1.8887,1.8125,1.8008,1.8008,1.8008,1.8008,1.8008,1.8144,1.8144,1.8566,1.9553,2.0478,2.1088,2.1077,2.1687,2.2006,2.1834,2.2517,2.3067,2.3443,2.3654,2.3991,2.4544,2.4607,2.4669,2.4861,2.5445,2.6297,0.424,0.4142,0.4301,0.4863,0.5174,0.5444,0.6103,0.6284,0.6368,0.6688,0.679,0.6841,0.6858,0.6966,0.7051,0.7051,0.7102,0.7139,0.7139,0.7139,0.7139,0.7139,0.7139,0.72,0.7356,0.7509,0.7658,0.7801,0.7953,0.8038,0.8038,0.8038,0.8038,0.8038,0.8038,0.8531,0.9608,1.0681,1.1658,1.2732,1.3806,1.4298,1.4298,1.4298,1.4298,1.4298,1.4298,1.4298,1.4298,1.4298,1.4298,1.4298,1.4298,1.4298,1.4298,1.4298,1.4298,1.4298,1.4298,1.4226,1.4224,1.5149,1.5602,1.5875,1.6632,1.7162,1.736,1.7422,1.749,1.7441,1.7318,1.7666,1.7989,1.7649,1.798,1.8399,1.8559,1.8505,1.8398,1.8243,1.8226,1.8131,1.7821,1.7784,1.7815,1.7984,1.8165,1.8291,1.8047,1.8008,1.8008,1.8134,1.8134,1.8529,1.9365,1.989,2.0537,2.1262,2.1568,2.2115,2.2921,2.3213,2.3686,2.4341,2.4405,2.4594,2.482,2.5121,2.5272,2.5285,2.5864,2.6648,0.4454,0.4492,0.4659,0.5068,0.5572,0.6048,0.617,0.6532,0.6783,0.7004,0.7017,0.7017,0.7122,0.7139,0.7139,0.7139,0.7139,0.7139,0.7139,0.7139,0.7139,0.7139,0.7139,0.72,0.7356,0.7509,0.7675,0.7862,0.7977,0.8038,0.8038,0.8038,0.8038,0.8038,0.8038,0.8333,0.9118,1.0194,1.1268,1.2339,1.3318,1.4004,1.4298,1.4298,1.4298,1.4298,1.4298,1.4298,1.4298,1.4298,1.4298,1.4298,1.4298,1.4298,1.4298,1.4298,1.4298,1.4298,1.4298,1.4298,1.4484,1.5514,1.5745,1.5749,1.6857,1.7019,1.6838,1.6852,1.6777,1.673,1.649,1.668,1.6846,1.6601,1.6846,1.718,1.7261,1.7415,1.7502,1.7313,1.7429,1.7431,1.7081,1.7038,1.7226,1.7721,1.8064,1.8328,1.8348,1.8359,1.8429,1.8557,1.8636,1.8843,1.9369,1.9552,2.0023,2.0885,2.1396,2.212,2.3147,2.3574,2.4115,2.485,2.4916,2.5056,2.5272,2.5649,2.5837,2.585,2.6332,2.6926,0.4121,0.4289,0.4621,0.5132,0.5758,0.6344,0.6737,0.7058,0.7346,0.7356,0.7238,0.7136,0.7139,0.7139,0.7139,0.7139,0.7139,0.7139,0.7139,0.7139,0.7139,0.7139,0.7139,0.72,0.7356,0.7509,0.7719,0.8011,0.8038,0.8038,0.8038,0.8038,0.8038,0.8038,0.8038,0.8041,0.8038,0.9118,1.0194,1.1268,1.2242,1.3318,1.4298,1.4298,1.4298,1.4298,1.4298,1.4298,1.4298,1.4298,1.4298,1.4298,1.4298,1.4298,1.4298,1.4298,1.4298,1.4298,1.4298,1.4298,1.4298,1.4394,1.4484,1.4721,1.474,1.4922,1.5212,1.6077,1.6111,1.587,1.5855,1.6286,1.6535,1.5636,1.6131,1.6862,1.7261,1.7342,1.7415,1.79,1.798,1.798,1.7963,1.7963,1.7843,1.7483,1.7424,1.7894,1.9078,1.9248,1.9248,1.9248,1.9413,1.9568,1.9568,1.9693,1.9827,1.9817,2.1193,2.1956,2.184,2.3356,2.4443,2.5074,2.5197,2.566,2.6483,2.6496,2.6496,2.6496,2.6521,2.713,0.4641,0.4987,0.5329,0.6034,0.6445,0.6905,0.723,0.7407,0.737,0.737,0.7173,0.7,0.7,0.6915,0.6881,0.6983,0.7,0.7034,0.7126,0.7139,0.7139,0.7139,0.7139,0.72,0.7356,0.7417,0.757,0.7865,0.7889,0.7933,0.8035,0.8038,0.8038,0.8038,0.8038,0.8038,0.8038,0.9019,0.9801,1.0194,1.1853,1.3221,1.4298,1.4298,1.4298,1.4298,1.4298,1.4298,1.4298,1.4298,1.4298,1.4298,1.4298,1.4298,1.4298,1.4298,1.4298,1.4298,1.4298,1.4298,1.4298,1.4496,1.4592,1.4765,1.5145,1.5302,1.5337,1.5599,1.5617,1.5445,1.5046,1.5119,1.5156,1.4621,1.4741,1.4985,1.5151,1.5304,1.5462,1.5711,1.5966,1.6139,1.6229,1.6229,1.6429,1.6863,1.6921,1.7325,1.8313,1.8442,1.8673,1.9214,1.937,1.937,1.937,1.9433,1.964,2.0124,2.0535,2.1474,2.2901,2.3501,2.4343,2.5628,2.5709,2.5852,2.6119,2.6606,2.6851,2.6851,2.7297,2.7788,0.5042,0.5294,0.5581,0.6274,0.6709,0.7076,0.7305,0.7429,0.7421,0.7312,0.7054,0.6831,0.6776,0.6644,0.661,0.6814,0.6848,0.6915,0.7112,0.7139,0.7163,0.7217,0.7221,0.7285,0.7438,0.7451,0.7553,0.7794,0.7862,0.7936,0.8035,0.8038,0.8038,0.8038,0.8038,0.8038,0.8038,0.8726,0.941,1.0194,1.2242,1.3613,1.4298,1.4298,1.4298,1.4298,1.4298,1.4298,1.4298,1.4298,1.4298,1.4298,1.4298,1.4298,1.4298,1.4298,1.4298,1.4298,1.4298,1.4298,1.4298,1.4496,1.4592,1.4688,1.5166,1.5356,1.5412,1.5511,1.5478,1.5311,1.493,1.4756,1.4609,1.4309,1.4242,1.4215,1.4186,1.4321,1.4482,1.4824,1.4999,1.5173,1.5347,1.5431,1.559,1.6147,1.6253,1.6657,1.7885,1.8038,1.819,1.874,1.9127,1.9287,1.9287,1.9597,1.996,2.0383,2.0646,2.1459,2.2911,2.343,2.4264,2.5312,2.5871,2.6122,2.6193,2.6949,2.7282,2.7294,2.7861,2.821,0.5252,0.5396,0.5526,0.598,0.6658,0.7003,0.6881,0.7214,0.7492,0.719,0.6888,0.663,0.6478,0.6339,0.6346,0.6641,0.6695,0.6807,0.7109,0.7153,0.721,0.7363,0.7383,0.7441,0.7587,0.7607,0.7665,0.7801,0.0,0.8031,0.8038,0.8038,0.8038,0.8038,0.8038,0.8038,0.8038,0.8038,0.9019,1.117,1.3125,1.41,1.41,1.41,1.4196,1.4202,1.4196,1.4196,1.4202,1.4202,1.4202,1.4202,1.4298,1.4298,1.4298,1.4298,1.4298,1.4298,1.4298,1.4298,1.4298,1.4298,1.4298,1.4394,1.4981,1.5083,1.5178,1.5642,1.5631,1.5418,1.5398,1.519,1.491,1.4609,1.4543,1.4549,1.4423,1.4432,1.451,1.5027,1.5104,1.5173,1.5347,1.5431,1.5431,1.5431,1.5431,1.5989,1.7674,1.7917,1.7917,1.7997,1.8727,1.9222,1.9301,2.0089,2.0566,2.0566,2.1318,2.1766,2.1832,2.3254,2.4154,2.4455,2.572,2.6445,2.6686,2.7458,2.7804,2.7804,2.8038,2.8399,0.5423,0.5765,0.6164,0.6475,0.6628,0.6837,0.7189,0.7131,0.7032,0.6934,0.6658,0.6325,0.6173,0.6112,0.6186,0.6481,0.6627,0.6844,0.7255,0.7312,0.737,0.7522,0.7543,0.7556,0.7597,0.7695,0.7773,0.7807,0.7848,0.7919,0.8035,0.8038,0.8038,0.8038,0.8038,0.8038,0.8038,0.8038,0.8627,0.9998,1.0583,1.1268,1.1955,1.1955,1.2441,1.3022,1.2344,1.2436,1.3119,1.3119,1.3119,1.3221,1.4004,1.4298,1.4298,1.4298,1.4298,1.4298,1.4298,1.4298,1.4298,1.4298,1.4298,1.4394,1.4981,1.5083,1.5178,1.5642,1.5772,1.5671,1.5451,1.5344,1.5211,1.4923,1.485,1.483,1.4838,1.465,1.4581,1.4933,1.5,1.5173,1.5347,1.5431,1.5431,1.5431,1.5431,1.5831,1.6862,1.7025,1.7261,1.7917,1.8158,1.8567,1.9222,1.9539,1.9932,2.0566,2.0789,2.1165,2.1766,2.2471,2.3406,2.4745,2.5437,2.6182,2.688,2.7551,2.7959,2.7971,2.8605,2.8941,0.5771,0.6064,0.6365,0.646,0.6651,0.669,0.6836,0.6783,0.6691,0.6522,0.6281,0.5993,0.5776,0.5789,0.5932,0.623,0.6458,0.678,0.7299,0.737,0.7451,0.7668,0.7692,0.7719,0.7787,0.7865,0.7913,0.7913,0.7913,0.7946,0.8035,0.8038,0.8038,0.8038,0.8038,0.8038,0.8038,0.8432,0.9019,0.9608,1.0096,1.0587,1.117,1.117,1.1463,1.2047,0.0,1.2145,1.2732,1.3216,1.3414,1.3414,1.41,1.4298,1.4298,1.4298,1.4298,1.4298,1.4298,1.4298,1.4298,1.4298,1.4298,1.4394,1.479,1.4885,1.5077,1.5547,1.5635,1.5697,1.5625,1.5585,1.5511,1.5224,1.5157,1.5117,1.499,1.4836,1.4804,1.4987,1.528,1.5455,1.5488,1.5558,1.5599,1.5452,1.5431,1.5641,1.627,1.6239,1.6304,1.6796,1.7196,1.7652,1.8318,1.9147,1.9792,2.0462,2.0893,2.1372,2.1837,2.2398,2.3145,2.4062,2.5339,2.617,2.6647,2.7777,2.8354,2.8354,2.8905,2.9131,0.6127,0.6268,0.6287,0.6274,0.6435,0.6573,0.6268,0.6351,0.6315,0.6013,0.5833,0.5633,0.5379,0.5457,0.5671,0.6006,0.6291,0.6681,0.7285,0.739,0.7502,0.7777,0.7828,0.7892,0.7928,0.7939,0.7939,0.7939,0.7939,0.7939,0.8038,0.8038,0.7939,0.7939,0.7939,0.7939,0.7939,0.892,0.941,0.941,1.0293,1.0783,1.0974,1.0974,1.1072,1.1463,1.2145,0.0,1.2727,1.3709,1.41,1.41,1.4196,1.4298,1.4298,1.4298,1.4298,1.4298,1.4298,1.4298,1.4298,1.4298,1.4298,1.4394,1.4592,1.4688,1.4783,1.5356,1.5445,1.554,1.573,1.5737,1.5765,1.5518,1.5451,1.5384,1.5137,1.505,1.51,1.5246,1.5589,1.5853,1.5575,1.5706,1.5791,1.5515,1.5471,1.5573,1.5857,1.5609,1.5511,1.5548,1.6194,1.6794,1.727,1.8797,1.9952,2.0391,2.1368,2.1885,2.1885,2.2655,2.3083,2.3165,2.522,2.636,2.6531,2.8009,2.8724,2.8724,2.8973,2.9052,0.6067,0.626,0.6385,0.6293,0.6211,0.6076,0.6135,0.5891,0.5632,0.5668,0.5443,0.523,0.5179,0.5298,0.5583,0.6132,0.6363,0.6681,0.7285,0.7482,0.7624,0.779,0.7923,0.7912,0.7643,0.7646,0.7646,0.7646,0.7441,0.7537,0.7939,0.8038,0.7942,0.7646,0.7842,0.7942,0.7646,0.8038,0.8233,0.8233,0.8237,0.8825,0.9899,0.9608,1.0583,1.2436,1.1755,0.0,1.2732,1.2926,1.3022,1.3022,1.3908,1.4298,1.4298,1.4298,1.4298,1.4298,1.4298,1.4298,1.4298,1.4298,1.4298,1.4394,1.4592,1.4688,1.479,1.5077,1.5363,1.554,1.554,1.5635,1.5812,1.5765,1.5752,1.5738,1.5691,1.5491,1.5342,1.528,1.5411,1.5479,1.5588,1.5574,1.5648,1.5592,1.5768,1.5884,1.5941,1.585,1.5928,1.6177,1.6374,1.6737,1.7573,1.8598,1.956,2.0325,2.1368,2.1885,2.1885,2.2384,2.2972,2.3691,2.5128,2.6289,2.7047,2.8039,2.859,2.859,2.859,2.859,0.613,0.6263,0.632,0.6203,0.6037,0.5866,0.5779,0.5484,0.5209,0.5266,0.5125,0.4934,0.4793,0.4961,0.5233,0.5587,0.5905,0.6287,0.7044,0.7268,0.7472,0.7777,0.775,0.7743,0.7646,0.7444,0.7441,0.7441,0.7238,0.7341,0.7743,0.764,0.754,0.7441,0.754,0.754,0.7441,0.754,0.7537,0.7637,0.8038,0.8627,0.941,0.971,1.0592,1.195,1.1853,0.0,1.2732,1.3318,1.3511,1.3607,1.41,1.4298,1.4298,1.4298,1.4298,1.4298,1.4298,1.4298,1.4298,1.4298,1.4298,1.4298,1.449,1.449,1.4592,1.4987,1.5172,1.5356,1.5547,1.573,1.5832,1.5832,1.5832,1.5832,1.5832,1.5718,1.5578,1.5537,1.5695,1.5739,1.5659,1.5812,1.584,1.5589,1.5747,1.581,1.6062,1.6045,1.613,1.6374,1.6367,1.661,1.7227,1.8105,1.9138,2.0219,2.1213,2.2007,2.2529,2.2734,2.3004,2.3413,2.4956,2.5997,2.6505,2.7846,2.851,2.851,2.851,2.851,0.613,0.6208,0.62,0.6078,0.6007,0.588,0.5363,0.5183,0.5095,0.4856,0.4783,0.4674,0.4526,0.4639,0.4807,0.503,0.5351,0.5911,0.6692,0.697,0.7333,0.7719,0.7635,0.7547,0.7543,0.7241,0.7138,0.7138,0.7138,0.7241,0.7543,0.7341,0.7138,0.7138,0.7138,0.7138,0.7138,0.7434,0.7437,0.7238,0.8425,0.9217,0.9509,1.0301,1.1086,1.176,1.2349,0.0,0.0,1.3715,1.4106,1.3908,1.3902,1.4004,1.4004,1.4004,1.3806,1.3709,1.41,1.41,1.4004,1.4202,1.4298,1.4298,1.4004,1.41,1.4298,1.4496,1.479,1.5178,1.5452,1.5635,1.5832,1.5832,1.5832,1.5832,1.5832,1.5832,1.5832,1.5832,1.5933,1.6048,1.581,1.5855,1.5957,1.5708,1.5673,1.5854,1.6097,1.6125,1.631,1.6422,1.649,1.6682,1.6945,1.7841,1.8938,2.0124,2.115,2.2148,2.3047,2.3135,2.3135,2.3135,2.4648,2.5568,2.5819,2.7418,2.8351,2.851,2.851,2.851,0.5901,0.6018,0.6072,0.595,0.6104,0.6131,0.5296,0.524,0.522,0.4654,0.4314,0.4151,0.4432,0.4361,0.4427,0.499,0.5348,0.58,0.6384,0.6994,0.7417,0.7597,0.7579,0.7543,0.7238,0.7042,0.6842,0.6842,0.6842,0.6942,0.7238,0.7238,0.7039,0.6842,0.7039,0.7039,0.6842,0.8031,0.8131,0.7238,0.9011,0.9998,1.0293,1.1077,1.2155,1.3244,1.3346,1.2845,0.0,1.3431,1.3335,1.2533,1.2732,1.2829,1.2829,1.2829,1.2242,1.1755,1.3613,1.3709,1.3022,1.4004,1.4298,1.41,1.3119,1.3511,1.41,1.3216,1.4004,1.5083,1.4879,1.5261,1.5832,1.5832,1.5832,1.5832,1.5832,1.5832,1.5832,1.5832,1.5832,1.5825,1.5792,1.5785,1.5778,1.5752,1.594,1.6149,1.6177,1.6358,1.6532,1.6598,1.6793,1.6994,1.703,1.811,1.9206,2.0141,2.115,2.2148,2.3047,2.3135,2.3135,2.3135,2.4069,2.4999,2.5819,2.6835,2.7765,2.851,2.851,2.851,0.5749,0.5885,0.6149,0.6642,0.6586,0.6306,0.5935,0.5627,0.5323,0.4965,0.4664,0.4588,0.4706,0.4608,0.452,0.4541,0.4646,0.5005,0.5623,0.607,0.6603,0.7098,0.7218,0.7161,0.7223,0.6942,0.6742,0.6539,0.6539,0.6639,0.6736,0.6736,0.6637,0.6539,0.6637,0.6637,0.6539,0.7132,0.7431,0.773,0.911,1.0194,1.117,1.1965,1.2452,1.2549,1.2452,1.1853,0.0,1.1556,1.1653,1.1365,1.1356,1.1453,1.156,1.156,1.1268,1.1072,1.2047,1.2538,1.2727,1.3221,1.3806,1.4202,1.3806,1.3998,1.4196,1.4004,1.4394,1.4885,1.4885,1.5261,1.5635,1.5635,1.573,1.5832,1.5832,1.5832,1.5832,1.5832,1.5832,1.5832,1.5832,1.5832,1.5832,1.5832,1.5927,1.5927,1.5927,1.6021,1.6109,1.6109,1.6494,1.6784,1.6784,1.78,1.8896,1.9977,2.097,2.1961,2.3047,2.3135,2.3135,2.3135,2.3983,2.4914,2.5819,2.6753,2.7684,2.851,2.851,2.851,0.5761,0.6005,0.6361,0.7241,0.7158,0.6831,0.6497,0.6113,0.5734,0.5374,0.5262,0.5194,0.5246,0.5237,0.5024,0.4571,0.4581,0.4782,0.5219,0.5558,0.6091,0.6737,0.6768,0.6834,0.706,0.6819,0.6839,0.7329,0.7033,0.7033,0.7329,0.7329,0.7033,0.6437,0.6734,0.6734,0.6437,0.6734,0.7129,0.7524,0.9304,1.019,1.0578,1.177,1.1965,1.1268,1.1072,1.048,0.0,1.0079,1.0181,1.0092,0.9981,1.0083,1.019,1.0293,1.0096,0.9998,1.0881,1.1463,1.1853,1.2533,1.3216,1.3902,1.4196,1.4298,1.4298,1.41,1.4298,1.4688,1.4987,1.5267,1.5356,1.5445,1.5635,1.5832,1.5832,1.5832,1.5832,1.5832,1.5832,1.5832,1.5832,1.5832,1.5832,1.5832,1.5832,1.5832,1.5832,1.5832,1.5832,1.5832,1.6109,1.64,1.6494,1.752,1.8535,1.9712,2.0709,2.1793,2.296,2.2969,2.3057,2.3135,2.3734,2.4659,2.5819,2.6494,2.7336,2.851,2.851,2.851,0.608,0.6498,0.6771,0.76,0.8004,0.7925,0.6826,0.677,0.666,0.5963,0.5871,0.5944,0.605,0.6208,0.6042,0.5294,0.5448,0.5573,0.522,0.5695,0.6217,0.6489,0.6486,0.651,0.6737,0.6566,0.7329,0.941,0.8616,0.0,0.9509,0.9608,0.8616,0.6437,0.7428,0.7428,0.6437,0.7428,0.7428,0.6437,0.969,1.0092,0.812,1.0284,1.0583,0.9608,0.9608,0.9011,0.0,0.9505,0.9406,0.8414,0.8707,0.8806,0.8806,0.9114,0.8528,0.7942,1.0391,1.0489,0.9998,1.2047,1.2732,1.2926,1.4004,1.4298,1.41,1.3022,1.3511,1.4394,1.4981,1.5083,1.5172,1.5452,1.5635,1.5832,1.5832,1.5832,1.5832,1.5832,1.5832,1.5832,1.5832,1.5832,1.5832,1.5832,1.5832,1.5832,1.5832,1.5832,1.5832,1.5832,1.5832,1.5927,1.6218,1.734,1.8542,1.9438,2.0447,2.1535,2.2706,2.2803,2.2891,2.3135,2.3135,2.3973,2.5819,2.5819,2.6741,2.851,2.851,2.851,0.5149,0.5287,0.5668,0.6851,0.7126,0.7091,0.7107,0.7011,0.6875,0.6643,0.6469,0.6501,0.6929,0.684,0.6625,0.6432,0.594,0.5657,0.596,0.6551,0.7049,0.753,0.8505,0.9162,0.9217,0.8882,0.8913,0.9509,0.9312,0.9213,0.9608,1.0293,0.9698,0.7528,0.8517,0.8219,0.6437,0.7428,0.7822,0.7528,0.8513,0.9008,0.911,0.9801,0.9505,0.8517,0.8517,0.7922,0.0,0.7325,0.7431,0.7335,0.7229,0.7229,0.7434,0.7534,0.7341,0.7241,0.8329,0.9019,0.9608,1.117,1.2145,1.2926,1.4004,1.4298,1.4202,1.3902,1.4004,1.4298,1.4496,1.4688,1.4885,1.5172,1.5452,1.5635,1.5737,1.5832,1.5832,1.5832,1.5832,1.5832,1.5832,1.5832,1.5832,1.5832,1.5832,1.5832,1.5832,1.5832,1.5832,1.5832,1.5832,1.5832,1.5927,1.7598,1.8788,1.9239,2.097,2.2167,2.2803,2.2969,2.3047,2.3135,2.3135,2.3983,2.5819,2.5819,2.6741,2.851,2.851,2.851,0.5284,0.5304,0.5742,0.7177,0.7342,0.7242,0.7417,0.729,0.7153,0.7291,0.7266,0.7338,0.7751,0.7746,0.7573,0.718,0.6687,0.6479,0.678,0.7338,0.7846,0.8403,0.9374,1.0184,1.0577,0.996,0.9903,1.0788,1.0395,1.0391,1.0788,1.1473,1.0979,0.93,0.9505,0.8715,0.703,0.7624,0.7826,0.7428,0.8612,0.8909,0.8418,0.9213,0.8814,0.7428,0.7428,0.0,0.0,0.6437,0.6537,0.6639,0.6437,0.6537,0.6642,0.6742,0.6845,0.6845,0.7444,0.8333,0.9312,1.0293,1.156,1.2926,1.4004,1.4298,1.4298,1.4298,1.4298,1.4298,1.4298,1.4496,1.479,1.5083,1.5267,1.554,1.573,1.5832,1.5832,1.5832,1.5832,1.5832,1.5832,1.5832,1.5832,1.5832,1.5832,1.5832,1.5832,1.5832,1.5832,1.5832,1.5832,1.592,1.6298,1.787,1.888,1.8964,2.0979,2.2264,2.2539,2.2618,2.2794,2.2784,2.3299,2.4221,2.5652,2.6412,2.7418,2.851,2.851,2.851,0.0,0.6264,0.6664,0.8024,0.819,0.8032,0.7801,0.7596,0.0,0.7858,0.8103,0.8349,0.8584,0.8811,0.8716,0.78,0.776,0.7818,0.7742,0.8137,0.867,0.9389,0.963,1.0027,1.1091,1.0387,1.069,1.2662,1.1868,1.1765,1.2764,1.2764,1.2365,1.137,1.0293,0.9209,0.812,0.812,0.7528,0.6534,0.9493,0.93,0.6437,0.8418,0.8319,0.0,0.6437,0.0,0.0,0.6437,0.6437,0.6437,0.6437,0.6437,0.6437,0.6642,0.6742,0.6845,0.7347,0.8233,0.9114,0.9608,1.1072,1.3022,1.4004,1.4298,1.4298,1.4298,1.4298,1.4298,1.4298,1.449,1.479,1.4987,1.5267,1.554,1.573,1.5825,1.5832,1.5832,1.5832,1.5832,1.5832,1.5832,1.5832,1.5832,1.5832,1.5832,1.5832,1.5832,1.5832,1.5832,1.5832,1.6204,1.7138,1.8149,1.8796,1.888,2.0718,2.183,2.2097,2.2097,2.2185,2.2441,2.3617,2.4638,2.5568,2.758,2.851,2.851,2.851,2.851,0.6393,0.0,0.599,0.6597,0.6874,0.7072,0.0,0.7415,0.7562,0.8096,0.817,0.8342,0.8902,0.8913,0.8948,0.9253,0.8679,0.8421,0.9223,1.012,1.1091,1.2316,1.2341,1.2373,1.2576,1.2237,1.2268,1.2764,1.2565,1.2559,1.2764,1.2764,1.2662,1.2462,1.1375,1.0293,0.9213,0.9209,0.8715,0.7627,0.7524,0.7129,0.6437,0.6933,0.6833,0.6437,0.0,0.0,0.6437,0.6437,0.6437,0.6437,0.6437,0.6437,0.6437,0.6437,0.6537,0.6539,0.6842,0.7238,0.8028,1.0092,1.2242,1.4004,1.4202,1.4298,1.4298,1.4298,1.4298,1.4298,1.4298,1.4394,1.449,1.4688,1.4981,1.5267,1.5547,1.5737,1.5832,1.5832,1.5832,1.5832,1.5832,1.5832,1.5832,1.5832,1.5832,1.5832,1.5832,1.5832,1.5832,1.5832,1.5832,1.592,1.6109,1.7777,1.9155,1.9886,2.1266,2.2008,2.2097,2.2264,2.2353,2.2441,2.4211,2.5652,2.6483,2.7834,2.851,2.851,2.851,2.851,0.7074,0.6688,0.6317,0.6824,0.7053,0.7203,0.7638,0.7711,0.7829,0.8437,0.8506,0.86,0.8989,0.9396,0.9632,0.9493,0.9656,1.0073,1.0719,1.1452,1.2215,1.3091,1.305,1.2958,1.2958,1.2861,1.2764,1.2764,1.2764,1.2764,1.2764,1.2764,1.2764,1.2764,1.2262,1.1375,1.0391,0.9805,0.9308,0.8715,0.8612,0.8315,0.7922,0.8414,0.8315,0.7822,0.0,0.0,0.7129,0.6634,0.6437,0.6437,0.6437,0.6437,0.6437,0.6437,0.6437,0.6437,0.6742,0.7338,0.852,1.0872,1.2538,1.3709,1.41,1.4298,1.4298,1.4298,1.4298,1.4298,1.4298,1.4298,1.4394,1.4592,1.479,1.4981,1.5452,1.5635,1.5737,1.5737,1.5832,1.5832,1.5832,1.5832,1.5832,1.5832,1.5832,1.5832,1.5832,1.5832,1.6015,1.6487,1.648,1.685,1.777,1.8872,1.9521,1.9613,2.1087,2.1919,2.1919,2.1998,2.2511,2.3444,2.4713,2.5975,2.7406,2.8167,2.851,2.851,2.851,2.851,0.7788,0.7527,0.7406,0.779,0.7869,0.7892,0.8276,0.8155,0.8132,0.8792,0.8892,0.8935,0.9262,1.0023,1.0355,0.9468,1.0676,1.1836,1.2124,1.2315,1.2636,1.2807,1.2861,1.2764,1.2764,1.2764,1.2764,1.2764,1.2764,1.2764,1.2764,1.2764,1.2764,1.2764,1.2764,1.2365,1.1468,1.0391,0.9801,0.9903,1.0587,1.0489,0.9608,1.0583,1.0386,0.9312,0.0,0.0,0.7726,0.6734,0.6437,0.6437,0.6437,0.6437,0.6437,0.6537,0.6534,0.6437,0.6939,0.8127,0.9899,1.1755,1.2635,1.3119,1.4004,1.4298,1.4298,1.4298,1.4298,1.4298,1.4298,1.4298,1.4394,1.4592,1.4688,1.4783,1.5255,1.5445,1.554,1.5737,1.5737,1.5832,1.5832,1.5832,1.5832,1.5832,1.5832,1.5832,1.5832,1.592,1.6393,1.7239,1.7419,1.8241,1.9886,2.0249,1.9977,1.9063,2.0718,2.1741,2.1741,2.1741,2.2668,2.4713,2.4957,2.6058,2.8099,2.8339,2.8431,2.8431,2.851,2.851,0.8139,0.8871,0.9229,0.816,0.8046,0.8276,0.844,0.8352,0.8345,0.8827,0.8836,0.9109,1.0392,1.023,1.0208,1.1148,1.1692,1.2174,1.2637,1.2842,1.3008,1.3017,1.2861,1.2764,1.2764,1.2764,1.2764,1.2764,1.2764,1.2764,1.2764,1.2764,1.2764,1.2764,1.2764,1.2759,1.2565,1.1473,1.0974,1.0974,1.0194,0.9805,0.9608,0.9805,0.9308,0.8219,0.0,0.7528,0.6634,0.6437,0.6437,0.6437,0.6437,0.6437,0.6537,0.7428,0.7229,0.6537,0.7736,0.9604,1.1658,1.2247,1.3125,1.41,1.4292,1.4298,1.4298,1.4298,1.4298,1.4298,1.4298,1.4298,1.4298,1.4394,1.4496,1.4688,1.4783,1.5166,1.554,1.554,1.5635,1.5832,1.5832,1.5832,1.5832,1.5832,1.5832,1.5832,1.5832,1.6574,1.7138,1.7232,1.8056,1.8696,1.8972,1.9795,2.0249,2.0068,2.1087,2.1741,2.1741,2.1741,2.2599,2.4488,2.4713,2.5724,2.7603,2.8018,2.8259,2.8259,2.8431,2.851,0.8037,0.8701,0.9304,0.9233,0.9726,1.0292,1.043,1.0423,1.0441,1.0361,1.0295,1.0409,1.0989,1.1523,1.2218,1.3412,1.2831,1.2497,1.3095,1.3082,1.297,1.3119,1.2958,1.2764,1.2764,1.2764,1.2764,1.2764,1.2764,1.2764,1.2764,1.2764,1.2764,1.2764,1.2764,1.2764,1.2764,1.2262,1.2068,1.2063,1.0979,1.0788,1.1282,1.1282,1.1082,1.0587,0.0,0.9497,0.8905,0.8418,0.812,0.812,0.812,0.812,0.8219,0.8715,0.8517,0.8219,0.8821,1.0293,1.1853,1.2052,1.3033,1.4112,1.4298,1.4298,1.4298,1.4298,1.4298,1.4298,1.4298,1.4298,1.4298,1.4298,1.4394,1.449,1.4688,1.4981,1.5267,1.5267,1.5547,1.5737,1.5642,1.573,1.6015,1.6487,1.6581,1.6857,1.7311,1.7777,1.8334,1.888,1.9338,1.9795,2.0357,2.0808,2.1087,2.1087,2.1454,2.1741,2.1741,2.1741,2.2599,2.4498,2.4723,2.5724,2.7522,2.7857,2.803,2.803,2.8271,2.8339,0.7876,0.8521,0.9361,1.02,1.0977,1.166,1.2218,1.2312,1.2211,1.2074,1.2026,1.1957,1.1812,1.2806,1.4015,1.497,1.3928,1.3213,1.3912,1.3437,1.3042,1.3221,1.2958,1.2764,1.2764,1.2764,1.2764,1.2764,1.2764,1.2764,1.2764,1.2764,1.2764,1.2764,1.2764,1.2764,1.2764,1.2764,1.2764,1.2764,1.1965,1.1965,1.2764,1.2764,1.2662,1.2365,1.1565,1.1077,1.0779,0.9903,0.9608,0.9608,0.9608,0.9805,0.9899,0.9706,0.9903,1.0297,1.0096,1.0881,1.196,1.2155,1.2942,1.3835,1.4112,1.4208,1.4202,1.4298,1.4298,1.4298,1.4298,1.4298,1.4298,1.4298,1.4298,1.4394,1.4592,1.479,1.4987,1.4987,1.5356,1.573,1.5818,1.6008,1.648,1.7505,1.7699,1.7971,1.8703,1.8972,1.943,2.0249,2.0529,2.0898,2.1642,2.1741,2.1741,2.1741,2.1741,2.1741,2.1741,2.19,2.2765,2.4498,2.4893,2.5819,2.7441,2.7708,2.78,2.7788,2.803,2.8179,0.7935,0.9198,1.0556,1.0594,1.035,1.0667,1.2638,1.2572,1.241,1.342,1.3469,1.3389,1.3447,1.3751,1.4285,1.494,1.4622,1.4657,1.5497,1.4358,1.342,1.3443,1.3055,1.2764,1.2764,1.2764,1.2764,1.2764,1.2764,1.2764,1.2764,1.2764,1.2764,1.2764,1.2764,1.2764,1.2764,1.2764,1.2764,1.2764,1.2759,1.2759,1.2764,1.2764,1.2262,1.1272,1.1268,1.0685,0.9706,0.9608,0.9608,0.9608,0.9608,1.0194,1.0974,0.9998,1.0886,1.2467,1.1468,1.196,1.305,1.305,1.3244,1.3539,1.3835,1.3931,1.4027,1.4208,1.4298,1.4298,1.4298,1.4298,1.4298,1.4298,1.4298,1.4298,1.4298,1.4496,1.4688,1.4688,1.5166,1.5818,1.6655,1.7037,1.7512,1.8519,1.8696,1.8703,1.8788,1.9613,2.0249,2.0249,2.1087,2.1642,2.1731,2.1741,2.1741,2.1741,2.1741,2.1741,2.1741,2.2501,2.3444,2.4498,2.5326,2.6257,2.7231,2.7452,2.7522,2.7522,2.7788,2.803,0.8575,0.9719,1.1032,1.1433,1.1717,1.2321,1.3769,1.4287,1.4568,1.5227,1.5281,1.5111,1.4847,1.5245,1.5629,1.5746,1.588,1.5888,1.5833,1.5045,1.4292,1.3829,1.3152,1.2861,1.2953,1.2861,1.2764,1.2764,1.2764,1.2764,1.2764,1.2764,1.2764,1.2764,1.2764,1.2764,1.2764,1.2764,1.2764,1.2764,1.2764,1.2764,1.2764,1.2764,1.2565,1.2165,1.2165,1.197,1.1575,1.1575,1.1575,1.1575,1.1575,1.1873,1.2165,1.1775,1.2073,1.2759,1.2365,1.2462,1.2958,1.305,1.3147,1.3346,1.3738,1.3931,1.3931,1.4202,1.4298,1.4298,1.4298,1.4298,1.4298,1.4298,1.4298,1.4298,1.4298,1.4496,1.4688,1.449,1.535,1.6292,1.6648,1.7397,1.8334,1.9521,1.9704,1.9977,2.0538,2.0907,2.1177,2.1177,2.1463,2.1741,2.1741,2.1741,2.1989,2.2501,2.1989,2.1989,2.2589,2.2921,2.378,2.5242,2.5663,2.6268,2.7231,2.7301,2.7301,2.7301,2.7719,2.7962,0.9065,1.0126,1.1406,1.1956,1.2775,1.3716,1.4781,1.5449,1.6021,1.6853,1.6726,1.6464,1.6254,1.642,1.6698,1.6969,1.7116,1.7106,1.6822,1.6048,1.5229,1.4394,1.3721,1.3238,1.305,1.2856,1.2764,1.2764,1.2764,1.2764,1.2764,1.2764,1.2764,1.2764,1.2764,1.2764,1.2764,1.2764,1.2764,1.2764,1.2764,1.2764,1.2764,1.2764,1.2764,1.2764,1.2764,1.2764,1.2764,1.2764,1.2764,1.2764,1.2764,1.2764,1.2764,1.2764,1.2764,1.2764,1.2764,1.2764,1.2861,1.2958,1.305,1.3147,1.3642,1.3835,1.3931,1.4202,1.4484,1.4765,1.4765,1.4765,1.4765,1.4765,1.4765,1.486,1.514,1.5146,1.5057,1.5235,1.6183,1.7124,1.7382,1.8319,1.943,2.0529,2.0718,2.0988,2.1642,2.1741,2.1741,2.1741,2.1741,2.1741,2.1741,2.1989,2.2413,2.3096,2.2765,2.2853,2.3531,2.378,2.4553,2.5746,2.6091,2.6528,2.7231,2.7231,2.7231,2.7231,2.7626,2.78,0.9335,1.0385,1.1704,1.2033,1.3116,1.4412,1.552,1.5823,1.6378,1.8189,1.7729,1.7126,1.7701,1.7303,1.7209,1.8258,1.8337,1.8351,1.8723,1.7749,1.6432,1.5134,1.4752,1.4082,1.2953,1.2764,1.2764,1.2764,1.2764,1.2764,1.2764,1.2764,1.2764,1.2764,1.2764,1.2764,1.2764,1.2764,1.2764,1.2764,1.2764,1.2764,1.2764,1.2764,1.2764,1.2764,1.2764,1.2764,1.2764,1.2764,1.2764,1.2764,1.2764,1.2764,1.2764,1.2764,1.2764,1.2764,1.2764,1.2764,1.2764,1.2764,1.2953,1.3147,1.3443,1.3732,1.4027,1.4202,1.5045,1.5792,1.5792,1.5798,1.5798,1.5798,1.5792,1.6082,1.7109,1.6546,1.6075,1.7109,1.7662,1.8319,1.9347,1.9985,2.0619,2.1553,2.1741,2.1741,2.1741,2.1731,2.1731,2.1741,2.1741,2.1741,2.1731,2.2589,2.3096,2.3096,2.3973,2.4498,2.4498,2.5326,2.5819,2.5819,2.6704,2.7231,2.7231,2.7231,2.7231,2.7231,2.7452,2.7615,1.0392,1.1422,1.2604,1.2705,1.4053,1.5475,1.6011,1.6381,1.701,1.8688,1.8908,1.8701,1.8316,1.8349,1.8452,1.8418,1.8869,1.9179,1.8806,1.8071,1.7106,1.6271,1.491,1.4057,1.3823,1.3244,1.2764,1.2764,1.2764,1.2764,1.2764,1.2764,1.2764,1.2764,1.2764,1.2764,1.2764,1.2764,1.2764,1.2764,1.2764,1.2764,1.2764,1.2764,1.2764,1.2764,1.2764,1.2764,1.2764,1.2764,1.2764,1.2764,1.2764,1.2764,1.2764,1.2764,1.2764,1.2764,1.2764,1.2764,1.2861,1.2953,1.3522,1.4274,1.4657,1.5412,1.6069,1.6358,1.664,1.6828,1.6828,1.739,1.7762,1.7016,1.6828,1.6922,1.7203,1.7102,1.6915,1.7196,1.8133,1.8964,1.9438,2.0365,2.1203,2.1642,2.1741,2.1741,2.1741,2.2246,2.2413,2.1731,2.2853,2.3377,2.2755,2.3541,2.4307,2.4967,2.5231,2.5411,2.5411,2.5663,2.6091,2.6787,2.7056,2.7231,2.7231,2.7231,2.7231,2.7231,2.7638,2.8099,1.1953,1.2813,1.3846,1.4398,1.5458,1.6594,1.7204,1.7596,1.8051,1.8978,1.9435,1.9594,1.9255,1.9306,1.9326,1.9165,1.9563,1.9834,1.9463,1.8969,1.8347,1.721,1.6042,1.5096,1.4202,1.3624,1.3147,1.2861,1.2764,1.2764,1.2764,1.2764,1.2764,1.2764,1.2764,1.2764,1.2764,1.2764,1.2764,1.2764,1.2764,1.2764,1.2764,1.2764,1.2764,1.2764,1.2764,1.2764,1.2764,1.2764,1.2764,1.2764,1.2764,1.2764,1.2764,1.2764,1.2953,1.3238,1.3238,1.3431,1.3715,1.4094,1.4663,1.5317,1.5873,1.6525,1.7095,1.7289,1.7576,1.7855,1.7855,1.8603,1.9163,1.8141,1.7855,1.8041,1.8419,1.8133,1.8041,1.8503,1.9338,1.9985,2.0184,2.0925,2.1562,2.1651,2.1989,2.2422,2.2765,2.328,2.3454,2.2862,2.38,2.4231,2.3704,2.4478,2.5242,2.5735,2.6174,2.6351,2.6351,2.6351,2.661,2.7149,2.7231,2.7231,2.7231,2.7231,2.7231,2.7231,2.8018,2.8633,1.3632,1.4285,1.5159,1.6534,1.7213,1.777,1.8735,1.9138,1.9194,1.9206,1.9505,1.9835,2.0184,1.996,1.9844,2.0283,2.0292,2.0292,2.0292,2.0283,1.9629,1.8048,1.7684,1.6741,1.4376,1.3998,1.3619,1.2953,1.2861,1.2764,1.2764,1.2764,1.2764,1.2764,1.2764,1.2764,1.2764,1.2764,1.2764,1.2764,1.2764,1.2764,1.2764,1.2764,1.2764,1.2764,1.2764,1.2764,1.2764,1.2764,1.2764,1.2764,1.2764,1.2861,1.2856,1.2856,1.3335,1.3998,1.3998,1.4478,1.5146,1.571,1.6082,1.6466,1.6908,1.7282,1.7576,1.7576,1.8226,1.898,1.898,1.9629,2.0102,1.9163,1.898,1.9171,2.0102,1.9538,1.9255,2.0464,2.0826,2.1096,2.1392,2.1651,2.182,2.1909,2.2677,2.3531,2.4402,2.4584,2.4584,2.4498,2.4669,2.4744,2.4659,2.5411,2.5913,2.5913,2.6704,2.7231,2.7231,2.7231,2.7231,2.7231,2.7231,2.7231,2.7231,2.7231,2.7313,2.7301,2.8621,2.9238,1.3511,1.4261,1.5359,1.6644,1.7961,1.8929,1.8979,1.9226,1.9395,1.9215,1.9505,1.9835,2.0184,2.0184,2.0184,2.0292,2.0292,2.0292,2.0292,1.996,1.9637,1.9273,1.7925,1.6835,1.6271,1.4854,1.3806,1.3715,1.3147,1.2764,1.2764,1.2764,1.2764,1.2764,1.2764,1.2764,1.2764,1.2764,1.2764,0.0,1.2764,1.2764,1.2764,1.2764,1.2764,1.2764,1.2764,1.2764,1.2764,1.2764,1.2764,1.2764,1.2764,1.3141,1.3619,1.3619,1.4196,1.486,1.486,1.4956,1.5242,1.59,1.6655,1.7498,1.8234,1.8972,1.9637,1.9637,1.982,2.0011,2.0011,2.0102,2.0292,2.0011,2.0011,2.0011,2.0292,2.0102,2.0102,2.0654,2.0826,2.1096,2.1392,2.2167,2.3018,2.381,2.4069,2.4231,2.4488,2.5084,2.5242,2.4584,2.5779,2.6279,2.5579,2.6362,2.688,2.688,2.7056,2.7231,2.7231,2.7231,2.7231,2.7231,2.7231,2.7231,2.7231,2.7708,2.8018,2.8018,2.9225,3.0126,1.4576,1.5239,1.6194,1.7832,1.9229,2.0192,1.9936,2.0017,2.0037,1.9434,1.9453,1.9513,1.9728,1.9943,2.0059,2.0059,2.0175,2.0292,2.0292,2.0068,1.9861,1.967,1.8503,1.7591,1.6936,1.5704,1.4854,1.4478,1.41,1.3908,1.3908,1.3528,1.3335,1.3335,1.2953,1.2764,1.2764,1.2764,1.2764,1.2764,1.2764,1.2764,1.2764,1.2764,1.2764,1.2764,1.2764,1.2764,1.2861,1.3141,1.3335,1.3335,1.3721,1.41,1.4478,1.4478,1.4956,1.5622,1.5622,1.6001,1.6662,1.7225,1.7971,1.8711,1.9355,1.9911,2.0292,2.0292,2.0292,2.0292,2.0292,2.0292,2.0382,2.0736,2.0555,2.0292,2.0292,2.0555,2.0916,2.1087,2.1535,2.1989,2.2511,2.3018,2.3704,2.4744,2.4669,2.484,2.5695,2.6196,2.6279,2.5863,2.6633,2.6962,2.6528,2.688,2.7231,2.7231,2.7231,2.7231,2.7231,2.7231,2.7231,2.7231,2.7231,2.7383,2.7708,2.8018,2.8327,2.8633,2.9768,3.0519,1.568,1.6374,1.7357,1.9143,2.0369,2.1059,2.0821,2.0847,2.0664,1.9761,1.9408,1.9246,1.9237,1.9457,1.958,1.958,1.9898,2.0167,2.0184,2.0184,2.0093,1.9737,1.9196,1.8357,1.7311,1.656,1.5906,1.5337,1.5146,1.5051,1.486,1.4286,1.3806,1.3715,1.3141,1.2764,1.2764,1.2764,1.2764,1.2764,1.2764,1.2764,1.2764,1.2764,1.2856,1.2953,1.3147,1.3244,1.3238,1.3908,1.4094,1.419,1.486,1.5146,1.5337,1.5337,1.5717,1.6379,1.6473,1.7232,1.8179,1.8735,1.9279,1.9729,2.0201,2.0292,2.0292,2.0292,2.0382,2.0473,2.0473,2.0555,2.0826,2.1445,2.1087,2.0645,2.0645,2.1177,2.1615,2.1882,2.2511,2.3222,2.4049,2.4049,2.4307,2.5505,2.5263,2.5527,2.6974,2.7231,2.7231,2.7231,2.7231,2.7231,2.7231,2.7231,2.7231,2.7231,2.7231,2.7231,2.7231,2.7301,2.7383,2.7383,2.7383,2.7626,2.8179,2.8407,2.8791,2.9238,3.0304,3.0758,1.5153,1.6601,1.8361,1.9264,2.0323,2.0977,2.0432,2.0599,2.0702,2.0012,1.9648,1.9379,1.9261,1.9261,1.927,1.927,1.9332,1.9406,1.9736,1.9736,1.9852,2.0192,1.9371,1.8735,1.8542,1.7131,1.619,1.6096,1.5432,1.4765,1.4094,1.3998,1.3619,1.2953,1.2861,1.2764,1.2764,1.2764,1.2764,1.2764,1.2764,1.2764,1.2764,1.2764,1.3141,1.3811,1.4478,1.4765,1.4765,1.486,1.4956,1.4956,1.5051,1.5527,1.6096,1.6096,1.6473,1.7232,1.7707,1.7986,1.8272,1.918,1.9546,1.9729,2.0201,2.0292,2.0292,2.0292,2.0736,2.1266,2.1266,2.1695,2.2129,2.2217,2.2217,2.2129,2.2129,2.2227,2.2315,2.2608,2.3212,2.4049,2.5316,2.5326,2.5589,2.6798,2.6891,2.6891,2.7149,2.7231,2.7231,2.7231,2.7231,2.7231,2.7231,2.7231,2.7231,2.7231,2.7231,2.7231,2.7231,2.7777,2.8099,2.8099,2.8099,2.8099,2.8179,2.9263,2.9806,2.9883,3.0947,3.1482,1.5612,1.6821,1.8102,1.9013,1.9854,2.0349,2.0297,2.0703,2.0823,2.0177,1.9906,1.9561,1.92,1.8959,1.8851,1.8851,1.9039,1.927,1.9423,1.944,1.9448,1.9658,1.8863,1.824,1.824,1.7056,1.633,1.633,1.5749,1.5278,1.4903,1.4297,1.3715,1.3431,1.305,1.2764,1.2764,1.2764,1.2764,1.2764,1.2764,1.305,1.3431,1.3908,1.3811,1.3335,1.4094,1.4478,1.4478,1.5337,1.5717,1.5717,1.619,1.6567,1.6857,1.6857,1.7232,1.78,1.7994,1.845,1.8996,1.9463,1.9828,2.0011,2.0201,2.0555,2.0916,2.0916,2.1436,2.1961,2.1961,2.2227,2.2482,2.2746,2.294,2.3125,2.3474,2.3299,2.3212,2.4003,2.4754,2.5505,2.6019,2.6279,2.6622,2.7149,2.7231,2.7231,2.7231,2.7231,2.7231,2.7231,2.7231,2.7464,2.8235,2.8087,2.7995,2.8235,2.7938,2.7938,2.8235,2.8247,2.8327,2.8712,2.87,2.8858,2.9184,2.9729,3.019,3.0583,3.1048,3.1272,1.5919,1.6644,1.7328,1.8491,1.9198,1.9696,2.0151,2.0607,2.0864,2.0502,2.0225,1.979,1.9332,1.8789,1.8449,1.8449,1.8663,1.8944,1.9213,1.9222,1.9221,1.9261,1.857,1.8041,1.7864,1.7145,1.6579,1.6499,1.6161,1.5888,1.5622,1.4784,1.4279,1.4088,1.359,1.3335,1.3335,1.3335,1.3335,1.3335,1.3335,1.3715,1.419,1.486,1.4484,1.3431,1.4382,1.4758,1.4854,1.6001,1.6473,1.6567,1.7044,1.7326,1.7326,1.7419,1.78,1.8179,1.8357,1.9088,1.9911,2.0002,2.0456,2.0817,2.0817,2.1266,2.1615,2.1615,2.2148,2.2668,2.2668,2.2843,2.3018,2.3367,2.3647,2.3927,2.4529,2.4272,2.4262,2.5359,2.603,2.6456,2.655,2.6891,2.7231,2.7231,2.7231,2.7231,2.7231,2.7231,2.7231,2.7231,2.7231,2.7696,2.9003,2.9081,2.9172,2.9081,2.8712,2.8633,2.9081,2.8791,2.887,2.9316,2.9484,2.9716,3.0037,3.019,3.0508,3.0986,3.0986,3.1061,1.5588,1.5972,1.6382,1.7662,1.8564,1.923,1.9765,2.0141,2.0514,2.0968,2.0587,2.0101,1.9866,1.8825,1.804,1.804,1.8066,1.834,1.9067,1.9177,1.9306,1.953,1.9139,1.8588,1.8126,1.7561,1.7157,1.685,1.6843,1.6349,1.5322,1.5504,1.5299,1.4564,1.4817,1.4956,1.4956,1.4956,1.4956,1.4956,1.4956,1.4956,1.5051,1.5051,1.5057,1.5051,1.6473,1.7138,1.7138,1.7232,1.7232,1.7232,1.7333,1.7326,1.7333,1.7893,1.8087,1.8272,1.918,2.0002,2.0628,2.1177,2.1784,2.2306,2.2306,2.2306,2.2306,2.2306,2.2862,2.3416,2.3416,2.3927,2.4368,2.4454,2.4454,2.4625,2.5031,2.5115,2.5359,2.6279,2.6373,2.6467,2.7067,2.7149,2.7231,2.7231,2.7231,2.7231,2.7231,2.7231,2.7231,2.7231,2.7231,2.7696,2.9003,3.019,3.0343,2.916,2.9081,2.9081,2.9081,2.9639,2.996,2.996,3.0596,3.0596,3.0037,3.0672,3.0986,3.0986,3.0986,3.1198,1.4982,1.5483,1.602,1.692,1.7641,1.833,1.8775,1.9458,2.0048,2.0213,1.9995,1.9739,1.9701,1.9114,1.8539,1.8049,1.804,1.822,1.8725,1.8777,1.8811,1.8795,1.8411,1.7974,1.7445,1.6989,1.6579,1.6272,1.6166,1.5882,1.5205,1.5021,1.4909,1.4631,1.4727,1.4867,1.5146,1.5051,1.5051,1.5051,1.5051,1.5337,1.5812,1.5812,1.6096,1.6567,1.7044,1.7044,1.6662,1.7138,1.7326,1.7326,1.7326,1.752,1.7893,1.8519,1.9163,1.9812,2.0619,2.1338,2.1784,2.1961,2.2227,2.2394,2.2394,2.2765,2.3135,2.3135,2.358,2.411,2.411,2.4282,2.454,2.4871,2.47,2.4711,2.5464,2.5633,2.5801,2.6362,2.6704,2.6974,2.7149,2.7231,2.7231,2.7231,2.7231,2.7777,2.9419,2.8937,2.8383,2.8383,2.9184,2.9806,3.0266,3.0748,3.0823,3.0343,2.996,2.9883,3.0266,3.0114,3.019,3.0659,3.0911,3.0898,3.0672,3.0898,3.0986,3.0986,3.1272,3.1482,1.4507,1.5034,1.5682,1.6631,1.6927,1.7284,1.8175,1.8744,1.9168,1.9536,1.9585,1.9573,1.9501,1.9309,1.8963,1.8197,1.8223,1.8386,1.8611,1.8588,1.8557,1.8415,1.8136,1.7777,1.7247,1.6803,1.6404,1.6089,1.5903,0.0,1.5269,1.5102,1.5124,1.5217,1.5224,1.5364,1.5665,1.5665,1.5712,1.5812,1.5812,1.6096,1.6574,1.6574,1.6857,1.7326,1.7326,1.7044,1.6567,1.7138,1.7326,1.7326,1.7785,1.8149,1.8519,1.9604,2.0421,2.1078,2.1695,2.2315,2.2765,2.2765,2.294,2.3105,2.3105,2.3484,2.3851,2.3851,2.4196,2.454,2.454,2.454,2.4625,2.4871,2.5031,2.5274,2.603,2.6052,2.6063,2.6682,2.7267,2.7534,2.7231,2.7231,2.7231,2.7231,2.7938,2.8949,3.019,2.9716,2.9316,2.9316,3.0024,3.0659,3.0986,3.0986,3.0986,3.0986,3.0583,3.0508,3.0986,3.0583,3.0508,3.0986,3.0986,3.0986,3.0986,3.0986,3.0986,3.0986,3.1272,3.1556,0.0,0.0,0.0,1.6732,1.6369,1.6125,1.7958,1.7978,1.7947,1.8847,1.9414,1.9712,1.9492,1.9489,1.9267,1.8424,1.8715,1.8887,1.8676,1.8662,1.8641,1.8407,1.8338,1.8092,1.7552,1.7108,1.6794,1.647,1.6089,1.5789,1.546,1.5745,1.6052,1.6433,1.6441,1.6603,1.6835,1.6941,1.7011,1.7311,1.7326,1.7326,1.7326,1.7326,1.7326,1.7419,1.7419,1.7419,1.7419,1.7326,1.7326,1.7505,1.868,1.9131,1.9405,2.1141,2.1695,2.1784,2.2306,2.294,2.3503,2.3503,2.3937,2.454,2.454,2.454,2.454,2.454,2.454,2.454,2.454,2.454,2.4625,2.4615,2.5432,2.6235,2.673,2.6351,2.6302,2.7313,2.8051,2.8235,2.7383,2.7231,2.7219,2.7231,2.9341,3.0583,2.9316,2.9471,2.9704,2.9704,2.9704,3.0101,3.0911,3.0986,3.0986,3.0986,3.0986,3.0986,3.0986,3.0986,3.0986,3.0986,3.0986,3.0986,3.0986,3.0986,3.0986,3.0986,3.0986,3.1421,1.3776,0.0,0.0,0.0,0.0,0.0,1.649,1.6696,1.7005,1.7916,1.8171,1.8475,1.9096,1.9462,1.9522,1.8815,1.8908,1.9191,1.9454,1.9786,1.9797,1.9178,1.9144,1.8692,1.7746,1.7224,1.6991,0.0,1.6779,1.6718,1.6714,1.6792,1.6714,1.6556,1.6556,1.6533,1.6499,1.674,1.6901,1.6989,1.7216,1.7777,1.8596,1.8596,1.9039,1.9943,1.9943,1.9943,1.9852,1.8956,1.9047,1.9687,2.0215,2.0674,2.1141,2.2031,2.2668,2.3047,2.3744,2.4013,2.4196,2.4196,2.4368,2.454,2.454,2.454,2.454,2.454,2.454,2.4615,2.5263,2.5913,2.6494,2.6964,2.7128,2.7302,2.7867,2.7787,2.7879,2.8518,2.8846,2.8846,2.8621,2.8542,2.8235,2.7301,2.9341,3.0898,3.0508,3.0024,2.9935,3.0583,3.0659,3.0748,3.0986,3.0986,3.0986,3.0986,3.0986,3.0986,3.0986,3.0986,3.0986,3.0986,3.0986,3.0986,3.0986,3.0986,3.0986,3.0986,3.1556,3.2055,1.4025,1.4484,1.5121,1.5564,0.0,0.0,1.6125,1.6279,1.6446,1.7253,1.7582,1.788,1.842,1.8874,1.9059,1.8718,1.9053,1.9448,1.9336,1.9542,1.9552,1.9146,1.9208,1.8906,1.7935,1.7632,1.7383,1.7194,1.6978,1.6923,1.6972,1.6956,1.6873,1.6629,1.6629,1.6784,1.718,1.7443,1.7861,1.8353,1.8522,1.9047,1.9852,1.9852,2.0215,2.0935,2.0935,2.1114,2.148,2.0845,2.0666,2.0764,2.1382,2.1845,2.2217,2.3096,2.3647,2.3937,2.4368,2.454,2.454,2.454,2.454,2.454,2.4946,2.502,2.5105,2.5516,2.56,2.5768,2.6318,2.6894,2.7383,2.7844,2.8004,2.8176,2.8481,2.9057,2.9459,2.9225,2.9394,2.9561,2.9871,2.9871,2.9639,2.887,3.005,3.0986,3.0986,3.0583,3.0419,3.0986,3.0986,3.0986,3.0986,3.0986,3.0986,3.0986,3.0986,3.0986,3.0986,3.0986,3.0986,3.0986,3.0986,3.0986,3.0986,3.0986,3.1061,3.1272,3.1703,3.22,1.4836,1.5143,1.571,1.5981,1.5687,0.0,1.6277,1.6222,1.6134,1.6701,1.714,1.746,1.7564,1.7936,1.8226,1.8226,1.9003,1.9432,1.8787,1.8746,1.8775,1.8701,1.8982,1.8964,1.8275,1.828,1.8079,1.7527,1.7236,1.7049,1.7049,1.7049,1.7049,1.6968,1.6968,1.7351,1.8237,1.8481,1.9187,2.0218,2.0473,2.0764,2.1114,2.1114,2.1203,2.1293,2.1293,2.1836,2.2668,2.2833,2.2277,2.1391,2.2463,2.2911,2.3008,2.409,2.454,2.454,2.454,2.454,2.454,2.4615,2.4615,2.4786,2.5663,2.5902,2.6069,2.6894,2.7151,2.7313,2.7557,2.7718,2.7867,2.8084,2.856,2.9032,2.902,3.0075,3.0735,2.9768,2.9858,3.0279,3.0911,3.0986,3.0986,3.0986,3.0986,3.0986,3.0986,3.0986,3.0986,3.0986,3.0986,3.0986,3.0986,3.0986,3.0986,3.0986,3.0986,3.1061,3.1123,3.1048,3.1061,3.1123,3.1123,3.1123,3.1123,3.1123,3.1272,3.1556,3.1629,3.2055,1.6135,1.6243,1.6306,1.601,1.6266,0.0,1.5333,1.5515,1.5897,1.5712,1.5775,1.6016,1.6555,1.7005,1.7245,1.7245,1.8061,1.8874,1.9492,1.9839,1.9847,1.9403,1.9707,1.9716,1.9037,1.9076,1.9145,1.9384,1.9311,1.9265,1.9265,1.9265,1.9107,1.8789,1.8789,1.8736,1.8558,1.9169,1.9648,1.9898,2.051,2.1382,2.2375,2.2375,2.2911,2.382,2.382,2.3907,2.409,2.409,2.3917,2.357,2.4003,2.4186,2.4176,2.4444,2.454,2.454,2.454,2.454,2.4615,2.5348,2.5589,2.5746,2.6565,2.6823,2.6894,2.7058,2.7718,2.8474,2.8554,2.9172,2.9883,3.0126,3.0203,3.0292,3.0495,3.0823,3.0911,3.0735,3.0748,3.0823,3.0986,3.0986,3.0986,3.0986,3.0986,3.0986,3.0986,3.0986,3.0986,3.0986,3.0986,3.0986,3.0986,3.0986,3.0986,3.0986,3.0986,3.1259,3.1882,3.1334,3.1259,3.1882,3.1869,3.1869,3.1869,3.1869,3.1603,3.1123,3.2055,3.2417,1.7147,1.7095,1.7128,1.6431,1.6535,0.0,0.0,1.5703,1.5763,1.6042,1.5712,1.5531,1.5988,1.6398,1.6715,1.6715,1.7647,1.8464,1.8713,1.9323,1.961,1.9322,1.991,2.0032,1.9432,1.9774,2.006,1.9904,1.9904,1.9904,1.9904,1.9904,1.9825,1.958,1.958,1.9659,1.9728,2.0267,2.0853,2.1486,2.195,2.2708,2.3637,2.3637,2.3917,2.454,2.454,2.4786,2.5105,2.47,2.4946,2.56,2.4786,2.454,2.454,2.454,2.4786,2.5179,2.5179,2.5432,2.5841,2.6329,2.6483,2.6648,2.7557,2.8131,2.8462,2.853,2.9028,2.9509,2.9677,3.0139,3.0609,3.0761,3.0849,3.0849,3.0986,3.0986,3.0986,3.0986,3.0986,3.0986,3.0986,3.0986,3.0986,3.0986,3.0986,3.0986,3.0986,3.0986,3.0986,3.0986,3.0986,3.0986,3.0986,3.0986,3.1123,3.1542,3.1529,3.1736,3.2074,3.2101,3.2232,3.2648,3.2648,3.2648,3.2648,3.2989,3.2918,3.239,3.2618,3.2917,1.8264,1.8135,1.8199,1.7097,1.6993,1.7099,0.0,0.0,0.0,1.6494,1.5945,1.544,1.5563,1.586,1.6158,1.6233,1.7272,1.7895,1.7636,1.8299,0.0,1.8816,1.9686,2.0073,1.9645,2.0292,2.0678,2.0285,2.0062,2.0043,2.0285,2.0294,2.0294,2.0294,2.0294,2.0537,2.1098,2.1293,2.202,2.306,2.3433,2.3885,2.4416,2.4413,2.454,2.454,2.47,2.5179,2.5746,2.5189,2.5852,2.6905,2.5359,2.4861,2.5031,2.5031,2.5432,2.6069,2.6069,2.6483,2.7151,2.7313,2.7476,2.7718,2.8542,2.9287,2.9869,3.0088,3.0152,3.0305,3.0622,3.0698,3.0773,3.0986,3.0986,3.0986,3.0986,3.0986,3.0986,3.0986,3.0986,3.0986,3.0986,3.0986,3.0986,3.0986,3.0986,3.0986,3.0986,3.0986,3.0986,3.0986,3.0986,3.1061,3.1185,3.1185,3.1542,3.2304,3.229,3.2362,3.2492,3.3073,3.3353,3.3213,3.3353,3.3422,3.3422,3.4041,3.4109,3.3644,3.3241,3.3465,1.9876,1.9868,1.9679,1.8081,1.8458,1.8744,1.6906,0.0,1.6562,1.6048,0.0,1.5356,1.5119,0.0,0.0,1.5732,1.6279,1.6726,1.7007,1.7503,1.7885,1.7885,1.9044,1.9831,1.9761,2.0215,2.0771,2.1507,2.081,2.0708,2.1527,2.1568,2.1568,2.1568,2.1568,2.1645,2.1731,2.2107,2.2443,2.2584,2.3463,2.3898,2.3971,2.4364,2.454,2.454,2.5348,2.5746,2.5819,2.6565,2.6905,2.6987,2.5997,2.6163,2.6823,2.6823,2.6905,2.6976,2.6976,2.6987,2.7232,2.8051,2.887,2.9534,2.9624,2.9856,3.0075,3.0075,3.0394,3.0622,3.0698,3.0849,3.0986,3.0986,3.0986,3.0986,3.0986,3.0986,3.0986,3.0986,3.0986,3.0986,3.0986,3.0986,3.0986,3.0986,3.0986,3.0986,3.0986,3.0986,3.0986,3.0986,3.0986,3.1259,3.1942,3.1942,3.2304,3.3003,3.3073,3.3353,3.4027,3.4095,3.3905,3.3213,3.3837,3.4177,3.4177,3.4245,3.3973,3.3297,3.3837,3.4056,2.0207,2.0318,2.0273,1.8635,1.8605,1.8673,1.7424,0.0,1.6448,0.0,0.0,0.0,0.0,0.0,0.0,0.0,1.6276,1.6643,1.6301,1.6881,1.7368,1.7637,0.0,0.0,1.9775,1.9934,2.0307,2.0948,2.0638,2.071,2.1373,2.1662,2.1807,2.1807,2.1807,2.1807,2.1807,2.2004,2.2232,2.2501,2.334,2.4127,2.4662,2.5256,2.5744,2.6008,2.6412,2.6894,2.7383,2.7139,2.7718,2.8554,2.7718,2.7232,2.7069,2.7069,2.7476,2.7891,2.7891,2.8211,2.8712,2.9131,2.9468,2.9792,2.9934,3.0011,3.0152,3.0381,3.0546,3.0698,3.0849,3.0911,3.0986,3.0986,3.1334,3.1676,3.1676,3.1676,3.1736,3.2173,3.1955,3.1676,3.1836,3.1421,3.0986,3.0986,3.0986,3.1616,3.3381,3.3604,3.3381,3.2818,3.2461,3.2376,3.272,3.272,3.3073,3.3754,3.3837,3.4192,3.4971,3.4528,3.4394,3.4505,3.4839,3.4986,3.4986,3.4986,3.4854,3.4505,3.4394,3.4461,2.099,2.1108,2.1042,0.0,0.0,0.0,0.0,0.0,0.0,0.0,0.0,0.0,0.0,0.0,1.5846,1.5965,0.0,1.6475,1.596,1.6332,1.6798,0.0,0.0,0.0,0.0,1.9272,1.9437,2.0006,0.0,2.0048,2.0886,2.1248,2.1538,2.1797,2.1807,2.1807,2.1807,2.2025,2.2279,2.2615,2.3547,2.4426,2.5325,2.6018,2.6588,2.7151,2.7395,2.7891,2.8462,2.8051,2.8633,2.9714,2.9118,2.8462,2.781,2.781,2.8303,2.887,2.887,2.9287,2.9792,2.9869,2.9869,2.9934,3.0152,3.0228,3.0381,3.0823,3.1048,3.1185,3.1542,3.1616,3.1542,3.1334,3.1882,3.2362,3.2146,3.229,3.2506,3.2946,3.2791,3.2804,3.3255,3.2055,3.0986,3.0986,3.169,3.303,3.5228,3.5504,3.5082,3.407,3.3644,3.3422,3.3492,3.3492,3.3837,3.461,3.461,3.4905,3.5504,3.4905,3.4905,3.5504,3.5504,3.5504,3.5504,3.5504,3.5504,3.5504,3.4905,3.4905,0.0,0.0,0.0,1.958,0.0,0.0,0.0,0.0,1.8028,0.0,0.0,0.0,0.0,1.657,1.6213,1.6666,1.6182,0.0,0.0,1.6001,1.5742,1.5753,1.6943,0.0,0.0,1.804,1.8164,0.0,1.8309,0.0,2.0348,2.0462,2.0876,2.1776,2.1807,2.1807,2.1807,2.2553,2.2938,2.3023,2.4213,2.5077,2.5592,2.6085,2.6588,2.7151,2.8051,2.8462,2.8542,2.9378,2.9714,2.9792,2.9792,2.9714,2.9702,2.9702,2.9714,2.9792,2.9792,2.9792,2.9869,3.0011,3.0075,3.0152,3.0292,3.0533,3.0836,3.1589,3.1869,3.2218,3.2932,3.3143,3.2932,3.2218,3.2648,3.2932,3.2218,3.2648,3.3017,3.2618,3.3311,3.4221,3.5213,3.296,3.0986,3.0986,3.3465,3.5359,3.5504,3.5504,3.5082,3.407,3.4002,3.4056,3.4245,3.4245,3.461,3.5424,3.5439,3.5504,3.5504,3.5504,3.5504,3.5504,3.5504,3.5504,3.5504,3.5504,3.5504,3.5504,3.5504,3.5504,0.0,0.0,2.4354,2.1369,0.0,0.0,0.0,0.0,0.0,0.0,0.0,0.0,0.0,1.7512,1.7553,1.763,1.7456,1.7104,0.0,1.6038,1.5637,1.5532,1.655,1.7276,1.7481,0.0,0.0,1.873,1.9146,0.0,0.0,2.176,2.2221,2.1987,2.2867,2.3117,2.2628,2.3338,2.3694,2.3768,2.4679,2.5394,2.6,2.6974,2.7746,2.8346,2.9049,2.9378,2.9378,2.9702,2.9792,2.9792,2.9792,2.9792,2.9792,2.9792,2.9792,2.9792,2.9934,3.0444,3.0934,3.1009,3.1355,3.1756,3.1974,3.2132,3.2218,3.2648,3.2791,3.2861,3.3143,3.3213,3.3143,3.2861,3.3408,3.3822,3.3616,3.3754,3.4056,3.4438,3.4356,3.4476,3.5359,3.4654,3.3948,3.3948,3.4868,3.5504,3.5504,3.5504,3.5359,3.5001,3.5001,3.5001,3.5067,3.5052,3.5213,3.5504,3.5504,3.5504,3.5504,3.5504,3.5504,3.5504,3.5504,3.5504,3.5504,3.5504,3.5504,3.5504,3.5504,3.5504,2.6175,2.6351,0.0,2.3468,2.3123,0.0,1.9959,0.0,2.01,0.0,0.0,0.0,0.0,0.0,1.863,1.897,1.8572,1.7954,0.0,1.686,1.6606,1.6262,1.6594,1.6915,1.7196,1.7313,1.7685,1.84,1.9075,1.9881,0.0,0.0,2.2718,2.2512,2.3568,2.3829,2.3423,2.4131,2.4564,2.4564,2.537,2.6015,2.6553,2.7628,2.8411,2.8963,2.9541,2.9792,2.9792,2.9792,2.9792,2.9869,3.0062,3.0203,3.0279,2.9998,3.0152,3.0432,3.0859,3.1429,3.1915,3.1988,3.2335,3.2749,3.2975,3.2975,3.3115,3.3478,3.3561,3.363,3.3934,3.4002,3.3934,3.363,3.4192,3.4677,3.438,3.4528,3.4905,3.5424,3.5052,3.4905,3.5424,3.5504,3.5504,3.5504,3.5504,3.5504,3.5504,3.5504,3.5504,3.5504,3.5504,3.5504,3.5504,3.5504,3.5504,3.5504,3.5504,3.5504,3.5504,3.5504,3.5504,3.5504,3.5504,3.5504,3.5504,3.5504,3.5504,3.5504,3.5554,3.5539]}]]